[[{"header":{"parameterUnit":"m.s-1","parameterCategory":1,"la1":31.0,"la2":29.5877,"lo1":-88.7671,"lo2":-86.6584,"dy":0.0162,"dx":0.0185,"nx":115,"ny":88,"refTime":"2026-03-25T12:00:00:Z","depth":0,"parameterNumber":2,"parameterNumberName":"U-component_of_WINDS"},"data":[0.0,0.0,0.0,0.0,0.0,0.0,0.0,0.0,0.0,0.0,0.0,0.0,0.0,0.0,0.0,0.0,0.0,0.0,0.0,0.0,0.0,0.0,0.0,0.0,0.0,0.0,0.0,0.0,0.0,0.0,0.0,0.0,0.0,0.0,0.0,0.0,0.0,0.0,0.0,0.0,0.0,0.0,0.0,0.0,0.0,0.0,0.0,0.0,0.0,0.0,0.0,0.0,0.0,0.0,0.0,0.0,0.0,0.0,0.0,0.0,0.0,0.0,0.0,0.0,0.0,0.0,0.0,0.0,0.0,0.0,0.0,0.0,0.0,0.0,0.0,0.0,0.0,0.0,0.0,0.0,0.0,0.0,0.0,0.0,0.0,0.0,0.0,0.0,0.0,0.0,0.0,0.0,0.0,0.0,0.0,0.0,0.0,0.0,0.0,0.0,0.0,0.0,0.0,0.0,0.0,0.0,0.0,0.0,0.0,0.0,0.0,0.0,0.0,0.0,0.0,0.0,0.0,0.0,0.0,0.0,0.0,0.0,0.0,0.0,0.0,0.0,0.0,0.0,0.0,0.0,0.0,0.0,0.0,0.0,0.0,0.0,0.0,0.0,0.0,0.0,0.0,0.0,0.0,0.0,0.0,0.0,0.0,0.0,0.0,0.0,0.0,0.0,0.0,0.0,0.0,0.0,0.0,0.0,0.0,0.0,0.0,0.0,0.0,0.0,0.0,0.0,0.0,0.0,0.0,0.0,0.0,0.0,0.0,0.0,0.0,0.0,0.0,0.0,0.0,0.0,0.0,0.0,0.0,0.0,0.0,0.0,0.0,0.0,0.0,0.0,0.0,0.0,0.0,0.0,0.0,0.0,0.0,0.0,0.0,0.0,0.0,0.0,0.0,0.0,0.0,0.0,0.0,0.0,0.0,0.0,0.0,0.0,0.0,0.0,0.0,0.0,0.0,0.0,0.0,0.0,0.0,0.0,0.0,0.0,0.0,0.0,0.0,0.0,0.0,0.0,0.0,0.0,0.0,0.0,0.0,0.0,0.0,0.0,0.0,0.0,0.0,0.0,0.0,0.0,0.0,0.0,0.0,0.0,0.0,0.0,0.0,0.0,0.0,0.0,0.0,0.0,0.0,0.0,0.0,0.0,0.0,0.0,0.0,0.0,0.0,0.0,0.0,0.0,0.0,0.0,0.0,0.0,0.0,0.0,0.0,0.0,0.0,0.0,0.0,0.0,0.0,0.0,0.0,0.0,0.0,0.0,0.0,0.0,0.0,0.0,0.0,0.0,0.0,0.0,0.0,0.0,0.0,0.0,0.0,0.0,0.0,0.0,0.0,0.0,0.0,0.0,0.0,0.0,0.0,0.0,0.0,0.0,0.0,0.0,0.0,0.0,0.0,0.0,0.0,0.0,0.0,0.0,0.0,0.0,0.0,0.0,0.0,0.0,0.0,0.0,0.0,0.0,0.0,0.0,0.0,0.0,0.0,0.0,0.0,0.0,0.0,0.0,0.0,0.0,0.0,0.0,0.0,0.0,0.0,0.0,0.0,0.0,0.0,0.0,0.0,0.0,0.0,0.0,0.0,0.0,0.0,0.0,0.0,0.0,0.0,0.0,0.0,0.0,0.0,0.0,0.0,0.0,0.0,0.0,0.0,0.0,0.0,0.0,0.0,0.0,0.0,0.0,0.0,0.0,0.0,0.0,0.0,0.0,0.0,0.0,0.0,0.0,0.0,0.0,0.0,0.0,0.0,0.0,0.0,0.0,0.0,0.0,0.0,0.0,0.0,0.0,0.0,0.0,0.0,0.0,0.0,0.0,0.0,0.0,0.0,0.0,0.0,0.0,0.0,0.0,0.0,0.0,0.0,0.0,0.0,0.0,0.0,0.0,0.0,0.0,0.0,0.0,0.0,0.0,0.0,0.0,0.0,0.0,0.0,0.0,0.0,0.0,0.0,0.0,0.0,0.0,0.0,0.0,0.0,0.0,0.0,0.0,0.0,0.0,0.0,0.0,0.0,0.0,0.0,0.0,0.0,0.0,0.0,0.0,0.0,0.0,0.0,0.0,0.0,0.0,0.0,0.0,0.0,0.0,0.0,0.0,0.0,0.0,0.0,0.0,0.0,0.0,0.0,0.0,0.0,0.0,0.0,0.0,0.0,0.0,0.0,0.0,0.0,0.0,0.0,0.0,0.0,0.0,0.0,0.0,0.0,0.0,0.0,0.0,0.0,0.0,0.0,0.0,0.0,0.0,0.0,0.0,0.0,0.0,0.0,0.0,0.0,0.0,0.0,0.0,0.0,0.0,0.0,0.0,0.0,0.0,0.0,0.0,0.0,0.0,0.0,0.0,0.0,0.0,0.0,0.0,0.0,0.0,0.0,0.0,0.0,0.0,0.0,0.0,0.0,0.0,0.0,0.0,0.0,0.0,0.0,0.0,0.0,0.0,0.0,0.0,0.0,0.0,0.0,0.0,0.0,0.0,0.0,0.0,0.0,0.0,0.0,0.0,0.0,0.0,0.0,0.0,0.0,0.0,0.0,0.0,0.0,0.0,0.0,0.0,0.0,0.0,0.0,0.0,0.0,0.0,0.0,0.0,0.0,0.0,0.0,0.0,0.0,0.0,0.0,0.0,0.0,0.0,0.0,0.0,0.0,0.0,0.0,0.0,0.0,0.0,0.0,0.0,0.0,0.0,0.0,0.0,0.0,0.0,0.0,0.0,0.0,0.0,0.0,0.0,0.0,0.0,0.0,0.0,0.0,0.0,0.0,0.0,0.0,0.0,0.0,0.0,0.0,0.0,0.0,0.0,0.0,0.0,0.0,0.0,0.0,0.0,0.0,0.0,0.0,0.0,0.0,0.0,0.0,0.0,0.0,0.0,0.0,0.0,0.0,0.0,0.0,0.0,0.0,0.0,0.0,0.0,0.0,0.0,0.0,0.0,0.0,0.0,0.0,0.0,0.0,0.0,0.0,0.0,0.0,0.0,0.0,0.0,0.0,0.0,0.0,0.0,0.0,0.0,0.0,0.0,0.0,0.0,0.0,0.0,0.0,0.0,0.0,0.0,0.0,0.0,0.0,0.0,0.0,0.0,0.0,0.0,0.0,0.0,0.0,0.0,0.0,0.0,0.0,0.0,0.0,0.0,0.0,0.0,0.0,0.0,0.0,0.0,0.0,0.0,0.0,0.0,0.0,0.0,0.0,0.0,0.0,0.0,0.0,0.0,0.0,0.0,0.0,0.0,0.0,0.0,0.0,0.0,0.0,0.0,0.0,0.0,0.0,0.0,0.0,0.0,0.0,0.0,0.0,0.0,0.0,0.0,0.0,0.0,0.0,0.0,0.0,0.0,0.0,0.0,0.0,0.0,0.0,0.0,0.0,0.0,0.0,0.0,0.0,0.0,0.0,0.0,0.0,0.0,0.0,0.0,0.0,0.0,0.0,0.0,0.0,0.0,0.0,0.0,0.0,0.0,0.0,0.0,0.0,0.0,0.0,0.0,0.0,0.0,0.0,0.0,0.0,0.0,0.0,0.0,0.0,0.0,0.0,0.0,0.0,0.0,0.0,0.0,0.0,0.0,0.0,0.0,0.0,0.0,0.0,0.0,0.0,0.0,0.0,0.0,0.0,0.0,0.0,0.0,0.0,0.0,0.0,0.0,0.0,0.0,0.0,0.0,0.0,0.0,0.0,0.0,0.0,0.0,0.0,0.0,0.0,0.0,0.0,0.0,0.0,0.0,0.0,0.0,0.0,0.0,0.0,0.0,0.0,0.0,0.0,0.0,0.0,0.0,0.0,0.0,0.0,0.0,0.0,0.0,0.0,0.0,0.0,0.0,0.0,0.0,0.0,0.0,0.0,0.0,0.0,0.0,0.0,0.0,0.0,0.0,0.0,0.0,0.0,0.0,0.0,0.0,0.0,0.0,0.0,0.0,0.0,0.0,0.0,0.0,0.0,0.0,0.0,0.0,0.0,0.0,0.0,0.0,0.0,0.0,0.0,0.0,0.0,0.0,0.0,0.0,0.0,0.0,0.0,0.0,0.0,0.0,0.0,0.0,0.0,0.0,0.0,0.0,0.0,0.0,0.0,0.0,0.0,0.0,0.0,0.0,0.0,0.0,0.0,0.0,0.0,0.0,0.0,0.0,0.0,0.0,0.0,0.0,0.0,0.0,0.0,0.0,0.0,0.0,0.0,0.0,0.0,0.0,0.0,0.0,0.0,0.0,0.0,0.0,0.0,0.0,0.0,0.0,0.0,0.0,0.0,0.0,0.0368,0.0,0.0,0.0,0.0,0.0,0.0,0.0,0.0,0.0,0.0,0.0,0.0,0.0,0.0,0.0,0.0,0.0,0.0,0.0,0.0,0.0,0.0,0.0,0.0,0.0,0.0,0.0,0.0,0.0,0.0,0.0,0.0,0.0,0.0,0.0,0.0,0.0,0.0,0.0,0.0,0.0,0.0,0.0,0.0,0.0,0.0,0.0,0.0,0.0,0.0,0.0,0.0,0.0,0.0,0.0,0.0,0.0,0.0,0.0,0.0,0.0,0.0,0.0,0.0,0.0,0.0,0.0,0.0,0.0,0.0,0.0,0.0,0.0,0.0,0.0,0.0,0.0,0.0,0.0,0.0,0.0,0.0,0.0,0.0,0.0,0.0,0.0,0.0,0.0,0.0,0.0,0.0,0.0,0.0,0.0,0.0,0.0,0.0,0.0,0.0,0.0,0.0,0.0,0.0,0.0,0.0,0.0,0.0,0.0,0.0,0.1003,0.1013,0.0893,0.0679,0.041,0.0,0.0,0.0,0.0,0.0,0.0,0.0,0.0,0.0,0.0,0.0,0.0,0.0,0.0,0.0,0.0,0.0,0.0,0.0,0.0,0.0,0.0,0.0,0.0,0.0,0.0,0.0,0.0,0.0,0.0,0.0,0.0,0.0,0.0,0.0,0.0,0.0,0.0,0.0,0.0,0.0,0.0,0.0,0.0,0.0,0.0,0.0,0.0,0.0,0.0,0.0,0.0,0.0,0.0,0.0,0.0,0.0,0.0,0.0,0.0,0.0,0.0,0.0,0.0,0.0,0.0,0.0,0.0,0.0,0.0,0.0,0.0,0.0,0.0,0.0,0.0,0.0,0.0,0.0,0.0,0.0,0.0,0.0,0.0,0.0,0.0,0.0,0.0,0.0,0.0,0.0,0.0,0.0,0.0,0.0,0.0,0.0,0.0,0.0,0.0,0.0,0.0,0.0,0.0,0.0,0.0,0.0,0.0,0.0,0.0,0.0,0.0,0.1024,0.0779,0.0413,0.0,0.0,0.0,0.0,0.0,0.0,0.0,0.0,0.0,0.0,0.0,0.0,0.0,0.0,0.0,0.0,0.0,0.0,0.0,0.0,0.0,0.0,0.0,0.0,0.0,0.0,0.0,0.0,0.0,0.0,0.0,0.0,0.0,0.0,0.0,0.0,0.0,0.0,0.0,0.0,0.0,0.0,0.0,0.0,0.0,0.0,0.0,0.0,0.0,0.0,0.0,0.0,0.0,0.0,0.0,0.0,0.0,0.0,0.0,0.0,0.0,0.0,0.0,0.0,0.0,0.0,0.0,0.0,0.0,0.0,0.0,0.0,0.0,0.0,0.0,0.0,0.0,0.0,0.0,0.0,0.0,0.0,0.0,0.0,0.0,0.0,0.0,0.0,0.0,0.0,0.0,0.0,0.0,0.0,0.0,0.0,0.0,0.0,0.0,0.0,0.0,0.0,0.0,0.0,0.0,0.0,0.0,0.0,0.0,0.0,0.1331,0.1466,0.1223,0.0,0.0426,0.0,0.0,0.0,0.0,0.0,0.0,0.0,0.0,0.0,0.0,0.0,0.0,0.0,0.0,0.0,0.0,0.0,0.0,0.0,0.0,0.0,0.0,0.0,0.0,0.0,0.0,0.0,0.0,0.0,0.0,0.0,0.0,0.0,0.0,0.0,0.0,0.0,0.0,0.0,0.0,0.0,0.0,0.0,0.0,0.0,0.0,0.0,0.0,0.0,0.0,0.0,0.0,0.0,0.0,0.0,0.0,0.0,0.0,0.0,0.0,0.0,0.0,0.0,0.0,0.0,0.0,0.0,0.0,0.0,0.0,0.0,0.0,0.0,0.0,0.0,0.0,0.0,0.0,0.0,0.0,0.0,0.0,0.0,0.0,0.0,0.0,0.0,0.0,0.0,0.0,0.0,0.0,0.0,0.0,0.0,0.0,0.0,0.0,0.0,0.0,0.0,0.0,0.0,0.0,0.0,0.0,0.0,0.0,0.0,0.0,0.0,0.1675,0.1368,0.1003,0.0,0.0,0.0,0.0,0.0,0.0,0.0,0.0,0.0,0.0,0.0,0.0,0.0,0.0,0.0,0.0,0.0,0.0,0.0,0.0,0.0,0.0,0.0,0.0,0.0,0.0,0.0,0.0,0.0,0.0,0.0,0.0,0.0,0.0,0.0,0.0,0.0,0.0,0.0,0.0,0.0,0.0,0.0,0.0,0.0,0.0,0.0,0.0,0.0,0.0,0.0,0.0,0.0,0.0,0.0,0.0,0.0,0.0,0.0,0.0,0.0,0.0,0.0,0.0,0.0,0.0,0.0,0.0,0.0,0.0,0.0,0.0,0.0,0.0,0.0,0.0,0.0,0.0,0.0,0.0,0.0,0.0,0.0,0.0,0.0,0.0,0.0,0.0,0.0,0.0,0.0,0.0,0.0,0.0,0.0,0.0,0.0,0.0,0.0,0.0,0.0,0.0,0.0,0.0,0.0,0.0,0.0,0.0,0.0,0.0,0.1882,0.0,0.1783,0.1467,0.114,0.0776,0.0,0.0,0.0,0.0,0.0,0.0,0.0,0.0,0.0,0.0,0.0,0.0,0.0,0.0,0.0,0.0,0.0,0.0,0.0,0.0,0.0,0.0,0.0,0.0,0.0,0.0,0.0,0.0,0.0,0.0,0.0,0.0,0.0,0.0,0.0,0.0,0.0,0.0,0.0,0.0,0.0,0.0,0.0,0.0,0.0,0.0,0.0,0.0,0.0,0.0,0.0,0.0,0.0,0.0,0.0,0.0,0.0,0.0,0.0,0.0,0.0,0.0,0.0,0.0,0.0,0.0,0.0,0.0,0.0,0.0,0.0,0.0,0.0,0.0,0.0,0.0,0.0,0.0,0.0,0.0,0.0,0.0,0.0,0.0,0.0,0.0,0.0,0.0,0.0,0.0,0.0,0.0,0.0,0.0,0.0,0.0,0.0,0.0,0.0,0.0,0.0,0.0,0.0,0.0,0.0,0.0,0.0,0.0,0.0,0.2087,0.1922,0.181,0.1473,0.1168,0.0,0.0,0.0,0.0,0.0,0.0,0.0,0.0,0.0,0.0,0.0,0.0,0.0,0.0,0.0,0.0,0.0,0.0,0.0,0.0,0.0,0.0,0.0,0.0,0.0,0.0,0.0,0.0,0.0,0.0,0.0,0.0,0.0,0.0,0.0,0.0,0.0,0.0,0.0,0.0,0.0,0.0,0.0,0.0,0.0,0.0,0.0,0.0,0.0,0.0,0.0,0.0,0.0,0.0,0.0,0.0,0.0,0.0,0.0,0.0,0.0,0.0,0.0,0.0,0.0,0.0,0.0,0.0,0.0,0.0,0.0,0.0,0.0,0.0,0.0,0.0,0.0,0.0,0.0,0.0,0.0,0.0,0.0,0.0,0.0,0.0,0.0,0.0,0.0,0.0,0.0,0.0,0.0,0.0,0.0,0.0,0.0,0.0,0.0,0.0,0.0,0.0,0.0,0.0,0.0,0.0,0.0,0.0,0.0,0.2095,0.2107,0.2072,0.1939,0.1721,0.1436,0.0,0.0,0.0,0.0,0.0,0.0,0.0,0.0,0.0,0.0,0.0,0.0,0.0,0.0,0.0,0.0,0.0,0.0,0.0,0.0,0.0,0.0,0.0,0.0,0.0,0.0,0.0,0.0,0.0,0.0,0.0,0.0,0.0,0.0,0.0,0.0,0.0,0.0,0.0,0.0,0.0,0.0,0.0,0.0,0.0,0.0,0.0,0.0,0.0,0.0,0.0,0.0,0.0,0.0,0.0,0.0,0.0,0.0,0.0,0.0,0.0,0.0,0.0,0.0,0.0,0.0,0.0,0.0,0.0,0.0,0.0,0.0,0.0,0.0,0.0,0.0,0.0,0.0,0.0,0.0,0.0,0.0,0.0,0.0,0.0,0.0,0.0,0.0,0.0,0.0,0.0,0.0,0.0,0.0,0.0,0.0,0.0,0.0,0.0,0.0,0.0,0.0,0.0,0.0,0.0,0.0,0.0,0.0,0.0,0.2059,0.0,0.2133,0.0,0.1816,0.1513,0.0,0.0,0.0,0.0,0.0,0.0,0.0,0.0,0.0,0.0,0.0,0.0,0.0,0.0,0.0,0.0,0.0,0.0,0.0,0.0,0.0,0.0,0.0,0.0,0.0,0.0,0.0,0.0,0.0,0.0,0.0,0.0,0.0,0.0,0.0,0.0,0.0,0.0,0.0,0.0,0.0,0.0,0.0,0.0,0.0,0.0,0.0,0.0,0.0,0.0,0.0,0.0,0.0,0.0,0.0,0.0,0.0,0.0,0.0,0.0,0.0,0.0,0.0,0.0,0.0,0.0,0.0,0.0,0.0,0.0,0.0,0.0,0.0,0.0,0.0,0.0,0.0,0.0,0.0,0.0,0.0,0.0,0.0,0.0,0.0,0.0,0.0,0.0,0.0,0.0,0.0,0.0,0.0,0.0,0.0,0.0,0.0,0.0,0.0,0.0,0.0,0.0,0.0,0.0,0.0,0.0,0.0,0.0,0.0,0.2184,0.2178,0.2105,0.1986,0.165,0.137,0.0,0.0,0.0,0.0,0.0,0.0,0.0,0.0,0.0,0.0,0.0,0.0,0.0,0.0,0.0,0.0,0.0,0.0,0.0,0.0,0.0,0.0,0.0,0.0,0.0,0.0,0.0,0.0,0.0,0.0,0.0,0.0,0.0,0.0,0.0,0.0,0.0,0.0,0.0,0.0,0.0,0.0,0.0,0.0,0.0,0.0,0.0,0.0,0.0,0.0,0.0,0.0,0.0,0.0,0.0,0.0,0.0,0.0,0.0,0.0,0.0,0.0,0.0,0.0,0.0,0.0,0.0,0.0,0.0,0.0,0.0,0.0,0.0,0.0,0.0,0.0,0.0,0.0,0.0,0.0,0.0,0.0,0.0,0.0,0.0,0.0,0.0,0.0,0.0,0.0,0.0,0.0,0.0,0.0,0.0,0.0,0.0,0.0,0.0,0.0,0.0,0.0,0.0,0.0,0.0,0.0,0.0,0.0,0.0,0.172,0.1725,0.1653,0.1521,0.1239,0.1042,0.0,0.0,0.0,0.0,0.0,0.0,0.0,0.0,0.0,0.0,0.0,0.0,0.0,0.0,0.0,0.0,0.0,0.0,0.0,0.0,0.0,0.0,0.0,0.0,0.0,0.0,0.0,0.0,0.0,0.0,0.0,0.0,0.0,0.0,0.0,0.0,0.0,0.0,0.0,0.0,0.0,0.0,0.0,0.0,0.0,0.0,0.0,0.0,0.0,0.0,0.0,0.0,0.0,0.0,0.0,0.0,0.0,0.0,0.0,0.0,0.0,0.0,0.0,0.0,0.0,0.0,0.0,0.0,0.0,0.0,0.0,0.0,0.0,0.0,0.0,0.0,0.0,0.0,0.0,0.0,0.0,0.0,0.0,0.0,0.0,0.0,0.0,0.0,0.0,0.0,0.0,0.0,0.0,0.0,0.0,0.0,0.0,0.0,0.0,0.0,0.0,0.0,0.0,0.0,0.0,0.0,0.0,0.0,0.0,0.1358,0.1406,0.1358,0.1226,0.1002,0.0885,0.0828,0.0,0.0,0.0,0.0,0.0,0.0,0.0,0.0,0.0,0.0,0.0,0.0,0.0,0.0,0.0,0.0,0.0,0.0,0.0,0.0,0.0,0.0,0.0,0.0,0.0,0.0,0.0,0.0,0.0,0.0,0.0,0.0,0.0,0.0,0.0,0.0,0.0,0.0,0.0,0.0,0.0,0.0,0.0,0.0,0.0,0.0,0.0,0.0,0.0,0.0,0.0,0.0,0.0,0.0,0.0,0.0,0.0,0.0,0.0,0.0,0.0,0.0,0.0,0.0,0.0,0.0,0.0,0.0,0.0,0.0,0.0,0.0,0.0,0.0,0.0,0.0,0.0,0.0,0.0,0.0,0.0,0.0,0.0,0.0,0.0,0.0,0.0,0.0,0.0,0.0,0.0,0.0,0.0,0.0,0.0,0.0,0.0,0.0,0.0,0.0,0.0,0.0,0.0,0.0,0.0,0.0,0.0,0.0,0.1082,0.118,0.1184,0.1078,0.0933,0.0805,0.0,0.0,0.0,0.0,0.0,0.0,0.0,0.0,0.0,0.0,0.0,0.0,0.0,0.0,0.0,0.0,0.0,0.0,0.0,0.0,0.0,0.0,0.0,0.0,0.0,0.0,0.0,0.0,0.0,0.0,0.0,0.0,0.0,0.0,0.0,0.0,0.0,0.0,0.0,0.0,0.0,0.0,0.0,0.0,0.0,0.0,0.0,0.0,0.0,0.0,0.0,0.0,0.0,0.0,0.0,0.0,0.0,0.0,0.0,0.0,0.0,0.0,0.0,0.0,0.0,0.0,0.0,0.0,0.0,0.0,0.0,0.0,0.0,0.0,0.0,0.0,0.0,0.0,0.0,0.0,0.0,0.0,0.0,0.0,0.0,0.0,0.0,0.0,0.0,0.0,0.0,0.0,0.0,0.0,0.0,0.0,0.0,0.0,0.0,0.0,0.0,0.0,0.0,0.0,0.0,0.0,0.0,0.0,0.0,0.0756,0.066,0.0694,0.0795,0.0541,0.0404,0.0,0.0,0.0,0.0,0.0,0.0,0.0,0.0,0.0,0.0,0.0,0.0,0.0,0.0,0.0,0.0,0.0,0.0,0.0,0.0,0.0,0.0,0.0,0.0,0.0,0.0,0.0,0.0,0.0,0.0,0.0,0.0,0.0,0.0,0.0,0.0,0.0,0.0,0.0,0.0,0.0,0.0,0.0,0.0,0.0,0.0,0.0,0.0,0.0,0.0,0.0,0.0,0.0,0.0,0.0,0.0,0.0,0.0,0.0,0.0,0.0,0.0,0.0,0.0,0.0,0.0,0.0,0.0,0.0,0.0,0.0,0.0,0.0,0.0,0.0,0.0,0.0,0.0,0.0,0.0,0.0,0.0,0.0,0.0,0.0,0.0,0.0,0.0,0.0,0.0,0.0,0.0,0.0,0.0,0.0,0.0,0.0,0.0,0.0,0.0,0.0,0.0,0.0,0.0,0.0,0.0,0.0,0.0,0.0945,0.0519,0.0325,0.0287,0.041,0.0207,0.0154,0.0,0.0,0.0,0.0,0.0,0.0,0.0,0.0,0.0,0.0,0.0,0.0,0.0,0.0,0.0,0.0,0.0,0.0,0.0,0.0,0.0,0.0,0.0,0.0,0.0,0.0,0.0,0.0,0.0,0.0,0.0,0.0,0.0,0.0,0.0,0.0,0.0,0.0,0.0,0.0,0.0,0.0,0.0,0.0,0.0,0.0,0.0,0.0,0.0,0.0,0.0,0.0,0.0,0.0,0.0,0.0,0.0,0.0,0.0,0.0,0.0,0.0,0.0,0.0,0.0,0.0,0.0,0.0,0.0,0.0,0.0,0.0,0.0,0.0,0.0,0.0,0.0,0.0,0.0,0.0,0.0,0.0,0.0,0.0,0.0,0.0,0.0,0.0,0.0,0.0,0.0,0.0,0.0,0.0,0.0,0.0,0.0,0.0,0.0,0.0,0.0,0.0,0.0,0.0,0.0,0.0,0.0,0.0,0.0586,0.0373,0.0125,0.0,0.0,0.0,0.0021,0.0,0.0,0.0,0.0,0.0,0.0,0.0,0.0,0.0,0.0,0.0,0.0,0.0,0.0,0.0,0.0,0.0,0.0,0.0,0.0,0.0,0.0,0.0,0.0,0.0,0.0,0.0,0.0,0.0,0.0,0.0,0.0,0.0,0.0,0.0,0.0,0.0,0.0,0.0,0.0,0.0,0.0,0.0,0.0,0.0,0.0,0.0,0.0,0.0,0.0,0.0,0.0,0.0,0.0,0.0,0.0,0.0,0.0,0.0,0.0,0.0,0.0,0.0,0.0,0.0,0.0,0.0,0.0,0.0,0.0,0.0,0.0,0.0,0.0,0.0,0.0,0.0,0.0,0.0,0.0,0.0,0.0,0.0,0.0,0.0,0.0,0.0,0.0,0.0,0.0,0.0,0.0,0.0,0.0,0.0,0.0,0.0,0.0,0.0,0.0,0.0,0.0,0.0,0.0,0.0,0.0,0.0,0.0,0.0507,0.0089,0.0026,0.0,0.0,0.0,0.0098,0.0,0.0,0.0,0.0,0.0,0.0,0.0,0.0,0.0,0.0,0.0,0.0,0.0,0.0,0.0,0.0,0.0,0.0,0.0,0.0,0.0,0.0,0.0,0.0,0.0,0.0,0.0,0.0,0.0,0.0,0.0,0.0,0.0,0.0,0.0,0.0,0.0,0.0,0.0,0.0,0.0,0.0,0.0,0.0,0.0,0.0,0.0,0.0,0.3285,0.0,0.0,0.0,0.0,0.0,0.0,0.0,0.0,0.0,0.0,0.0,0.0,0.0,0.0,0.0,0.0,0.0,0.0,0.0,0.0,0.0,0.0,0.0,0.0,0.0,0.0,0.0,0.0,0.0,0.0,0.0,0.0,0.0,0.0,0.0,0.0,0.0,0.0,0.0,0.0,0.0,0.0,0.0,0.0,0.0,0.0,0.0,0.0,0.0,0.0,0.0,0.0,0.0,0.0,0.0,0.0,0.0,0.0,0.0,0.0472,0.0,0.0,0.0,0.0,0.0,0.0066,0.0,0.0,0.0,0.0,0.0,0.0,0.0,0.0,0.0,0.0,0.0,0.0,0.0,0.0,0.0,0.0,0.0,0.0,0.0,0.0,0.0,0.0,0.0,0.0,0.0,0.0,0.0,0.0,0.0,0.0,0.0,0.0,0.0,0.0,0.0,0.0,0.0,0.0,0.0,0.0,0.0,0.0,0.0,0.0,0.0,0.0,0.0,0.0,0.0,0.0,0.0,0.0,0.0,0.0,0.0,0.0,0.0,0.0,0.0,0.0,0.0,0.0,0.0,0.0,0.0,0.0,0.0,0.0,0.0,0.0,0.0,0.0,0.0,0.0,0.0,0.0,0.0,0.0,0.0,0.0,0.0,0.0,0.0,0.0,0.0,0.0,0.0,0.0,0.0,0.0,0.0,0.0,0.0,0.0,0.0,0.0,0.0,0.0,0.0,0.0,0.0,0.0,0.0,0.0,0.0,0.0,0.0,0.0645,0.0413,0.0,0.0,0.0,0.0,0.0,0.0007,0.0,0.0,0.0,0.0,0.0,0.0,0.0,0.0,0.0,0.0,0.0,0.0,0.0,0.0,0.0,0.0,0.0,0.0,0.0,0.0,0.0,0.0,0.0,0.0,0.0,0.0,0.0,0.0,0.0,0.0,0.0,0.0,0.0,0.0,0.0,0.0,0.0,0.0,0.0,0.1881,0.2567,0.0,0.0,0.0,0.0,0.0,0.0,0.0,0.0,0.4389,0.0,0.0,0.0,0.0,0.0,0.0,0.0,0.0,0.0,0.0,0.0,0.0,0.0,0.0,0.0,0.0,0.0,0.0,0.0,0.0,0.0,0.0,0.0,0.0,0.0,0.0,0.0,0.0,0.0,0.0,0.0,0.0,0.0,0.0,0.0,0.0,0.0,0.0,0.0,0.0,0.0,0.0,0.0,0.0,0.0,0.0,0.0,0.0,0.0,0.0,0.0,0.0,0.0,0.0,0.0,0.0,0.0704,0.0418,0.0189,0.0,0.0,0.0,0.0,0.0,0.0096,0.0328,0.0,0.0,0.0,0.0,0.0,0.0,0.0,0.0,0.0,0.0,0.0,0.0,0.0,0.0,0.0,0.0,0.0,0.0,0.0,0.0,0.0,0.0,0.0,0.0,0.0,0.0,0.0,0.0,0.0,0.0,0.0,0.0,0.0,0.0,0.0,0.0,0.0,0.0,0.0,0.2953,0.3654,0.0,0.0,0.0,0.0,0.0,0.0,0.0,0.0,0.3598,0.0,0.0,0.0,0.0,0.0,0.0,0.0,0.0,0.0,0.0,0.0,0.0,0.0,0.0,0.0,0.0,0.0,0.0,0.0,0.0,0.0,0.0,0.0,0.0,0.0,0.0,0.0,0.0,0.0,0.0,0.0,0.0,0.0,0.0,0.0,0.0,0.0,0.0,0.0,0.0,0.0,0.0,0.0,0.0,0.0,0.0,0.0,0.0,0.0,0.0,0.0,0.0,0.0,0.0,0.0,0.0565,0.0386,0.02,0.0,0.0,0.0,0.0,0.0142,0.0337,0.0,0.0,0.0,0.0,0.0,0.0,0.0,0.0,0.0,0.0,0.0,0.0,0.0,0.0,0.0,0.0,0.0,0.0,0.0,0.0,0.0,0.0,0.0,0.0,0.0,0.0,0.0,0.0,0.0,0.0,0.0,0.0,0.0,0.0,0.0,0.0,0.0,0.0,0.0,0.0,0.3284,0.3758,0.4497,0.0,0.0,0.0,0.0,0.0,0.0,0.4118,0.3624,0.0,0.0,0.0,0.0,0.0,0.0,0.0,0.0,0.0,0.0,0.0,0.0,0.0,0.0,0.0,0.0,0.0,0.0,0.0,0.0,0.0,0.0,0.0,0.0,0.0,0.0,0.0,0.0,0.0,0.0,0.0,0.0,0.0,0.0,0.0,0.0,0.0,0.0,0.0,0.0,0.0,0.0,0.0,0.0,0.0,0.0,0.0,0.0,0.0,0.0,0.0,0.0,0.0,0.0,0.0,0.0419,0.0348,0.0225,0.0,0.0,0.0,0.0,0.0207,0.0509,0.0,0.0,0.0,0.0,0.0,0.0,0.0,0.0,0.0,0.0,0.0,0.0,0.0,0.0,0.0,0.0,0.0,0.0,0.0,0.0,0.0,0.0,0.0,0.0,0.0,0.0,0.0,0.0,0.0,0.0,0.0,0.0,0.0,0.0,0.0,0.0,0.0,0.0,0.0,0.0,0.0,0.3817,0.4474,0.446,0.0,0.0,0.0,0.0,0.4629,0.4383,0.0,0.0,0.0,0.0,0.0,0.0,0.0,0.0,0.0,0.0,0.0,0.0,0.0,0.0,0.0,0.0,0.0,0.0,0.0,0.0,0.0,0.0,0.0,0.0,0.0,0.0,0.0,0.0,0.0,0.0,0.0,0.0,0.0,0.0,0.0,0.0,0.0,0.0,0.0,0.0,0.0,0.0,0.0,0.0,0.0,0.0,0.0,0.0,0.0,0.0,0.0,0.0,0.0,0.0,0.0,0.0,0.0413,0.017,0.0,0.0,0.0,0.0,0.0,0.0026,0.0317,0.0,0.0,0.0,0.0,0.0,0.0,0.0,0.0,0.0,0.0,0.0,0.0,0.0,0.0,0.0,0.0,0.0,0.0,0.0,0.0,0.0,0.0,0.0,0.0,0.0,0.0,0.0,0.0,0.0,0.0,0.0,0.0,0.0,0.0,0.0,0.0,0.0,0.0,0.0,0.0,0.0,0.3925,0.4132,0.4451,0.4785,0.0,0.0,0.0,0.5014,0.476,0.0,0.0,0.0,0.0,0.0,0.0,0.0,0.0,0.0,0.0,0.0,0.0,0.0,0.0,0.0,0.0,0.0,0.0,0.0,0.0,0.0,0.0,0.0,0.0,0.0,0.0,0.0,0.0,0.0,0.0,0.0,0.0,0.0,0.0,0.0,0.0,0.0,0.0,0.0,0.0,0.0,0.0,0.0,0.0,0.0,0.0,0.0,0.0,0.0,0.0,0.0,0.0,0.0,0.0,0.0,0.0445,0.0289,0.0103,0.0,0.0,0.0,0.0,0.0,0.0155,0.0399,0.0,0.0,0.0,0.0,0.0,0.0,0.0,0.0,0.0,0.0,0.0,0.0,0.0,0.0,0.0,0.0,0.0,0.0,0.0,0.0,0.0,0.0,0.0,0.0,0.0,0.0,0.0,0.0,0.0,0.0,0.0,0.0,0.0,0.0,0.0,0.0,0.0,0.0,0.0,0.0,0.0,0.0,0.4419,0.4457,0.0,0.0,0.0,0.4852,0.4923,0.0,0.0,0.0,0.0,0.0,0.0,0.0,0.0,0.0,0.0,0.0,0.0,0.0,0.0,0.0,0.0,0.0,0.0,0.0,0.0,0.0,0.0,0.0,0.0,0.0,0.0,0.0,0.0,0.0,0.0,0.0,0.0,0.0,0.0,0.0,0.0,0.0,0.0,0.0,0.0,0.0,0.0,0.0,0.0,0.0,0.0,0.0,0.0,0.0,0.0,0.0,0.0,0.0,0.0,0.0,0.0,0.0,0.0206,0.0075,0.0,0.0,0.0,0.0,0.0,0.0226,0.0,0.0,0.0,0.0,0.0,0.0,0.0,0.0,0.0,0.0,0.0,0.0,0.0,0.0,0.0,0.0,0.0,0.0,0.0,0.0,0.0,0.0,0.0,0.0,0.0,0.0,0.0,0.0641,0.0,0.0,0.0,0.0,0.0,0.0,0.0,0.0,0.0,0.0,0.0,0.0,0.0,0.0,0.4466,0.4606,0.4508,0.4515,0.0,0.0,0.4883,0.4824,0.4393,0.3962,0.0,0.0,0.0,0.0,0.0,0.0,0.0,0.0,0.0,0.0,0.0,0.0,0.0,0.0,0.0,0.0,0.0,0.0,0.0,0.0,0.0,0.0,0.0,0.0,0.0,0.0,0.0,0.0,0.0,0.0,0.0,0.0,0.0,0.0,0.0,0.0,0.0,0.0,0.0,0.0,0.0,0.0,0.0,0.0,0.0,0.0,0.0,0.0,0.0,0.0,0.0,0.0,0.0,0.0,0.0,0.0195,0.0072,0.0,0.0,0.0,0.0,0.0,0.0147,0.0364,0.0,0.0,0.0,0.0,0.0,0.0,0.0,0.0,0.0,0.0,0.0,0.0,0.0,0.0,0.0,0.0,0.0,0.0,0.0,0.0,0.0,0.0,0.0,0.0,0.0,0.0,0.0,0.0,0.0,0.0,0.0,0.0,0.0,0.0,0.0,0.0,0.0,0.0,0.0,0.0,0.0,0.4667,0.4439,0.4624,0.4768,0.0,0.0,0.5094,0.4851,0.467,0.4415,0.4015,0.0,0.0,0.0,0.0,0.0,0.0,0.0,0.0,0.0,0.0,0.0,0.0,0.0,0.0,0.0,0.0,0.0,0.0,0.0,0.0,0.0,0.0,0.0,0.0,0.0,0.0,0.0,0.0,0.0,0.0,0.0,0.0,0.0,0.0,0.0,0.0,0.0,0.0,0.0,0.0,0.0,0.0,0.0,0.0,0.0,0.0,0.0,0.0,0.0,0.0,0.0,0.0,0.0,0.0292,0.0083,0.0031,0.0,0.0,0.0,0.0,0.0,0.0126,0.0354,0.0,0.0,0.0,0.0,0.0,0.0,0.0,0.0,0.0,0.0,0.0,0.0,0.0,0.0,0.0,0.0,0.0,0.0,0.0,0.0,0.0,0.0,0.0,0.0,0.0,0.0,0.0,0.0,0.2163,0.2099,0.2081,0.0,0.0,0.0,0.0,0.0,0.0,0.0,0.0,0.0,0.0,0.4518,0.4425,0.4497,0.0,0.0,0.4877,0.4994,0.5092,0.4644,0.4228,0.4024,0.3548,0.0,0.0,0.0,0.0,0.0,0.0,0.0,0.0,0.0,0.0,0.0,0.0,0.0,0.0,0.0,0.0,0.0,0.0,0.0,0.0,0.0,0.0,0.0,0.0,0.0,0.0,0.0,0.0,0.0,0.0,0.0,0.0,0.0,0.0,0.0,0.0,0.0,0.0,0.0,0.0,0.0,0.0,0.0,0.0,0.0,0.0,0.0,0.0,0.0,0.0,0.0,0.0,0.0264,0.0,0.0,0.0,0.0,0.0,0.0025,0.0064,0.0187,0.0403,0.0,0.0,0.0,0.0,0.0,0.0,0.0,0.0,0.0,0.0,0.0,0.0,0.0,0.0,0.0,0.0,0.0,0.0,0.0,0.0,0.0,0.0,0.0,0.0,0.0,0.0,0.0,0.0,0.2192,0.2048,0.195,0.0,0.0,0.0,0.0,0.0,0.0,0.0,0.0,0.0,0.0,0.4225,0.4321,0.4395,0.4573,0.4907,0.4941,0.5036,0.5252,0.4676,0.4209,0.4233,0.0,0.0,0.0,0.0,0.0,0.0,0.0,0.0,0.0,0.0,0.0,0.0,0.0,0.0,0.0,0.0,0.0,0.0,0.0,0.0,0.0,0.0,0.0,0.0,0.0,0.0,0.0,0.0,0.0,0.0,0.3082,0.0,0.0,0.0,0.0,0.0,0.0,0.0,0.0,0.0,0.0,0.0,0.0,0.0,0.0,0.0,0.0,0.0,0.0,0.0,0.0,0.0,0.0,0.0,0.0,0.0,0.0,0.0,0.0,0.0056,0.0178,0.0336,0.0491,0.0703,0.0,0.0,0.0,0.0,0.0,0.0,0.0,0.0,0.0,0.0,0.0,0.0,0.0,0.0,0.0,0.0,0.0,0.0,0.0,0.0,0.0,0.0,0.0,0.0,0.0,0.0,0.2532,0.2408,0.2141,0.0,0.0,0.0,0.0,0.0,0.0,0.0,0.0,0.0,0.0,0.3465,0.3835,0.4172,0.4423,0.4742,0.5202,0.5264,0.5271,0.5277,0.4786,0.4475,0.0,0.0,0.0,0.0,0.0,0.0,0.0,0.0,0.0,0.0,0.0,0.0,0.0,0.0,0.0,0.0,0.0,0.0,0.0,0.0,0.0,0.0,0.0,0.0,0.0,0.0,0.0,0.2314,0.223,0.0,0.0,0.0,0.0,0.0,0.0,0.0,0.0,0.0,0.0,0.0,0.0895,0.0806,0.0,0.0,0.0,0.0,0.0,0.0,0.0,0.0,0.0,0.0,0.0,0.0,0.017,0.0,0.0,0.0,0.0,0.0,0.0058,0.0208,0.0328,0.054,0.0838,0.0,0.0,0.0,0.0,0.0,0.0,0.0,0.0,0.0,0.0,0.0,0.0,0.0,0.0,0.0,0.0,0.0,0.0,0.0,0.0,0.0,0.0,0.0,0.0,0.0,0.2355,0.0,0.0,0.0,0.0,0.0,0.0,0.0,0.0,0.0,0.0,0.0,0.3522,0.338,0.3592,0.3872,0.4163,0.4363,0.455,0.0,0.0,0.0,0.0,0.0,0.0,0.0,0.0,0.0,0.0,0.0,0.0,0.0,0.0,0.5137,0.4725,0.4738,0.4789,0.4789,0.0,0.0,0.0,0.0,0.0,0.0,0.0,0.0,0.0,0.0,0.0,0.0,0.0,0.0,0.1777,0.0,0.1788,0.0,0.0,0.0,0.0,0.0,0.0,0.0,0.0,0.0026,-0.0023,0.0212,0.0302,0.041,0.0,0.0782,0.1066,0.0,0.0,0.0,0.0,0.0,0.0,0.0,0.0,0.013,0.0,0.0,0.0,0.0,0.0,0.008,0.0276,0.0471,0.0679,0.0888,0.1064,0.1071,0.0,0.0,0.0,0.0,0.0,0.0,0.0,0.0,0.0,0.0,0.0,0.0,0.0,0.0,0.0,0.0,0.0,0.0,0.0,0.0,0.0,0.0,0.0,0.2293,0.0,0.0,0.0,0.0,0.0,0.0,0.0,0.0,0.0,0.3393,0.3347,0.3228,0.3227,0.3259,0.345,0.383,0.0,0.0,0.0,0.0,0.0,0.0,0.0,0.3951,0.3831,0.3574,0.3428,0.3559,0.4115,0.4393,0.3944,0.0,0.0,0.4454,0.4466,0.451,0.4523,0.5006,0.5293,0.4863,0.5188,0.5513,0.0,0.0,0.0,0.0,0.0,0.0,0.0,0.0,0.1277,0.1243,0.0,0.1497,0.0,0.0,0.0,0.0,0.0,0.0,0.0,0.0,-0.0466,-0.054,-0.0649,-0.0132,0.0156,0.02,0.0615,0.0753,0.0656,0.0769,0.0,0.0,0.0,0.0,0.0,0.0,0.0131,0.0,0.0,0.0,0.0,0.0,0.0125,0.0385,0.0712,0.0886,0.0885,0.0899,0.089,0.0888,0.0899,0.0,0.0,0.0,0.0,0.0,0.0,0.0,0.0,0.0,0.0,0.0,0.0,0.0,0.0,0.0,0.0,0.0,0.0,0.0,0.0,0.2231,0.0,0.0,0.0,0.0,0.0,0.0,0.0,0.0,0.0,0.0,0.3317,0.2855,0.2497,0.2683,0.0,0.0,0.0,0.0,0.329,0.4071,0.4293,0.4366,0.4371,0.403,0.3893,0.4262,0.0,0.0,0.4078,0.4244,0.42,0.3694,0.4027,0.438,0.4366,0.419,0.4057,0.4061,0.454,0.467,0.4241,0.4804,0.531,0.0899,0.0,0.0,0.0,0.0,0.1172,0.0889,0.0518,0.0516,0.0341,0.0113,0.0362,0.0,0.0,0.0,0.0,0.0,0.0,-0.0761,-0.0954,-0.1246,-0.1259,-0.0983,-0.0904,-0.0774,-0.0585,-0.0449,-0.041,-0.0439,-0.041,-0.0194,0.0197,0.0,0.0,0.0,0.0,-0.0144,0.0,0.0,0.0,0.0,0.0,0.0128,0.0393,0.0626,0.0801,0.0885,0.0885,0.0885,0.0885,0.0885,0.0,0.0,0.0,0.0,0.0,0.0,0.0,0.0,0.0,0.0,0.0,0.0,0.0,0.0,0.0,0.0,0.0,0.0,0.0,0.2182,0.1654,0.15,0.0,0.0,0.0,0.0,0.0,0.0,0.0,0.0,0.0,0.2265,0.2617,0.2799,0.0,0.0,0.2824,0.3423,0.3259,0.3282,0.3832,0.0,0.0,0.0,0.3508,0.3228,0.3441,0.3498,0.3573,0.3716,0.3786,0.3775,0.3633,0.3732,0.3829,0.3856,0.4104,0.4253,0.4309,0.4614,0.4835,0.4709,0.5004,0.5303,-0.0237,0.0432,0.0891,0.0865,0.0504,0.0424,0.0144,-0.0235,-0.0232,-0.0367,-0.0576,-0.0284,-0.0167,-0.0163,-0.0153,0.0,0.0,0.0,-0.1257,-0.1372,-0.1664,-0.1642,-0.1378,-0.1313,-0.1224,-0.1069,-0.0942,-0.0887,-0.0885,-0.0883,-0.0775,-0.0527,0.0,0.0,-0.0487,-0.0424,-0.0316,-0.0164,-0.0052,0.0,0.0,0.0056,0.0151,0.0318,0.057,0.0744,0.0818,0.0875,0.0885,0.0885,0.0885,0.0885,0.0,0.0,0.0,0.0,0.0,0.0,0.0,0.0,0.0,0.0,0.0,0.1585,0.0,0.0,0.0,0.0,0.151,0.1537,0.1812,0.1899,0.0,0.0,0.0,0.0,0.0,0.0,0.0,0.1689,0.1756,0.1797,0.1813,0.2523,0.3006,0.2874,0.2762,0.2865,0.3345,0.0,0.3385,0.3604,0.3434,0.3395,0.3671,0.3412,0.3215,0.3276,0.3354,0.3441,0.3569,0.36,0.36,0.36,0.36,0.36,0.36,0.3876,0.4079,0.4093,0.441,0.4636,0.4442,0.4673,0.4935,-0.1439,-0.1346,-0.0515,-0.0307,-0.0487,-0.0502,-0.0682,-0.0962,-0.0956,-0.0999,-0.103,-0.0695,-0.0589,-0.0644,-0.0646,0.0,-0.148,-0.1451,-0.1612,-0.1893,-0.1857,-0.1854,-0.1871,-0.1564,-0.1446,-0.148,-0.1223,-0.109,-0.1068,-0.1054,-0.1142,-0.1346,-0.11,-0.0957,-0.0918,-0.0616,-0.0439,-0.0395,-0.0165,0.0,0.0,0.0132,0.0185,0.0217,0.0513,0.0685,0.0707,0.0829,0.0885,0.0885,0.0885,0.0885,0.0885,0.0,0.0,0.0,0.0,0.0,0.0,0.0,0.0,0.0,0.0,0.0,0.0,0.0,0.0,0.0,0.1087,0.0,0.1313,0.2558,0.0,0.0,0.0,0.183,0.1802,0.192,0.197,0.1847,0.0,0.0,0.1869,0.0,0.3111,0.3135,0.2907,0.2834,0.3087,0.3402,0.3552,0.3458,0.353,0.3597,0.3613,0.358,0.3552,0.357,0.36,0.3586,0.36,0.36,0.36,0.36,0.36,0.36,0.36,0.362,0.36,0.3631,0.3986,0.4172,0.3807,0.4023,0.4329,-0.252,-0.2481,-0.1901,-0.1552,-0.1314,-0.1314,-0.1409,-0.1571,-0.1477,-0.1749,-0.2258,-0.2013,-0.2235,-0.2754,-0.275,-0.2838,-0.2957,-0.2662,-0.2568,-0.2601,-0.2264,-0.2291,-0.2633,-0.2549,-0.2681,-0.2961,-0.2913,-0.2718,-0.2426,-0.2322,-0.2119,-0.1854,-0.1665,-0.146,-0.1205,-0.1114,-0.0859,-0.0395,-0.0344,-0.0211,-0.0005,0.0032,0.0087,0.0209,0.0372,0.0545,0.0705,0.0831,0.0885,0.0885,0.0885,0.0885,0.0885,0.0885,0.0,0.0,0.0,0.0,0.0,0.0,0.0,0.0,0.0,0.1684,0.137,0.0,0.15,0.0,0.1358,0.1607,0.1689,0.1998,0.0,0.0,0.2091,0.208,0.1975,0.2082,0.213,0.2046,0.2076,0.2194,0.2461,0.284,0.3179,0.3429,0.3286,0.3184,0.3252,0.3443,0.3593,0.3545,0.3587,0.36,0.36,0.36,0.36,0.36,0.36,0.36,0.36,0.36,0.36,0.36,0.36,0.36,0.36,0.36,0.36,0.36,0.37,0.3763,0.3622,0.3707,0.3796,-0.3398,-0.3361,-0.3106,-0.2845,-0.2556,-0.2071,-0.2023,-0.2282,-0.2202,-0.251,-0.3038,-0.2952,-0.3124,-0.3499,-0.3513,-0.3513,-0.3493,-0.3264,-0.3167,-0.3154,-0.2903,-0.2916,-0.3174,-0.3167,-0.3282,-0.3499,-0.3513,-0.3385,-0.3163,-0.2914,-0.2647,-0.2408,-0.2125,-0.1873,-0.1695,-0.1438,-0.1122,-0.0801,-0.0535,-0.0279,0.0,0.0,0.0033,0.012,0.0375,0.0521,0.0487,0.0871,0.1017,0.091,0.0883,0.0885,0.0885,0.0885,0.0903,0.0,0.0,0.0,0.0,0.0,0.0,0.0,0.0,0.0,0.0,0.0,0.1463,0.0,0.16,0.1797,0.1797,0.1797,0.1885,0.2141,0.2184,0.217,0.2087,0.2242,0.2279,0.2164,0.2313,0.2606,0.3031,0.3222,0.3385,0.3569,0.3494,0.3436,0.344,0.3535,0.36,0.36,0.36,0.36,0.36,0.36,0.36,0.36,0.36,0.36,0.36,0.36,0.36,0.36,0.36,0.36,0.36,0.36,0.36,0.36,0.36,0.36,0.36,0.36,0.36,-0.4159,-0.4151,-0.405,-0.3932,-0.3762,-0.2828,-0.2633,-0.2975,-0.2934,-0.32,-0.3652,-0.3707,-0.3728,-0.3736,-0.3741,-0.374,-0.3728,-0.3673,-0.3633,-0.3645,-0.3583,-0.3583,-0.3631,-0.3652,-0.368,-0.3735,-0.3721,-0.3693,-0.3625,-0.3274,-0.3046,-0.2915,-0.2505,-0.2259,-0.217,-0.1671,-0.1368,-0.1271,-0.069,-0.0279,0.0,0.0,0.0,0.0,0.041,0.0494,0.0225,0.0834,0.1071,0.0852,0.0913,0.0951,0.0959,0.0984,0.0853,0.0,0.0398,0.0,0.0,0.0,0.0,0.0,0.0,0.0,0.0,0.1117,0.1341,0.1758,0.1797,0.1797,0.1797,0.186,0.1935,0.2012,0.2049,0.2081,0.2075,0.2289,0.2428,0.2307,0.2569,0.2959,0.3491,0.36,0.36,0.36,0.3582,0.3583,0.3608,0.3597,0.36,0.36,0.36,0.36,0.36,0.36,0.36,0.36,0.36,0.36,0.36,0.36,0.36,0.36,0.36,0.36,0.36,0.36,0.36,0.36,0.36,0.36,0.36,0.36,0.36,-0.4968,-0.492,-0.4274,-0.3984,-0.3944,-0.3745,-0.3563,-0.3367,-0.3162,-0.357,-0.4419,-0.4796,-0.4957,-0.495,-0.4958,-0.4972,-0.4941,-0.4565,-0.4388,-0.4373,-0.405,-0.409,-0.4388,-0.4388,-0.459,-0.4957,-0.4966,-0.4766,-0.4396,-0.4203,-0.3757,-0.306,-0.286,-0.2583,-0.2221,0.0,0.0,0.0,-0.064,-0.0262,0.0,0.0,0.0,0.0,0.0201,0.0,0.0216,0.0445,0.0547,0.052,0.0968,0.0,0.0,0.0,0.0,0.0,0.0,0.0,0.0,0.0,0.0,0.0,0.0124,0.0343,0.0727,0.0879,0.1195,0.1728,0.1797,0.1797,0.1809,0.2249,0.2284,0.1686,0.1537,0.1424,0.1348,0.1877,0.2402,0.2807,0.2907,0.3105,0.3518,0.36,0.36,0.36,0.36,0.36,0.36,0.36,0.36,0.36,0.36,0.36,0.36,0.36,0.36,0.36,0.36,0.36,0.36,0.36,0.36,0.36,0.36,0.36,0.36,0.36,0.36,0.36,0.36,0.36,0.36,0.36,0.36,-0.6478,0.0,-0.6042,-0.5873,0.0,-0.5354,-0.5163,-0.5161,-0.4235,-0.4329,-0.5161,-0.5568,-0.5754,-0.5754,-0.5746,-0.5744,-0.573,-0.5316,-0.5146,-0.5131,-0.4806,-0.4754,-0.4936,-0.4944,-0.5079,-0.5293,-0.5309,-0.519,-0.4947,-0.4654,-0.4281,-0.3827,-0.3345,-0.2985,-0.2747,-0.248,-0.2024,-0.1344,-0.1007,-0.0636,-0.0224,-0.019,-0.0145,0.0011,0.0,0.0,0.0,0.0,0.0,0.0,0.0,0.0,0.0,0.0,0.0,0.0467,0.0166,0.0048,0.0133,0.0126,0.0068,0.0,0.0,0.0109,0.0349,0.0535,0.0713,0.091,0.171,0.1881,0.1019,0.1195,0.1204,0.0829,0.0958,0.1114,0.1231,0.1524,0.2135,0.2975,0.3137,0.3259,0.3563,0.36,0.36,0.3556,0.3062,0.2937,0.3478,0.36,0.36,0.36,0.36,0.36,0.36,0.36,0.36,0.36,0.36,0.36,0.36,0.36,0.36,0.36,0.36,0.36,0.36,0.36,0.36,0.36,0.36,0.36,0.36,0.36,0.36,-0.7771,-0.7762,-0.778,-0.7815,-0.7727,-0.6918,-0.6792,-0.7039,0.0,0.0,0.0,-0.6088,-0.6196,-0.6196,-0.6196,-0.6196,-0.6185,-0.5923,-0.5756,-0.5681,-0.5472,-0.5347,-0.5309,-0.5309,-0.5309,-0.5309,-0.5309,-0.5309,-0.5293,-0.4906,-0.4682,-0.4546,-0.3889,-0.3445,-0.3273,-0.2773,-0.2251,-0.1775,-0.151,-0.1116,-0.0542,-0.0513,-0.0379,-0.0084,0.0145,0.0173,0.0011,0.0475,0.0619,0.0352,0.0591,0.0738,0.0725,0.0268,0.0,0.0,0.0,0.0,0.0,0.0,0.0,0.0,0.0,0.0,0.0,0.0193,0.0243,0.0013,0.1353,0.1605,0.0,0.0,0.0,0.0,0.0436,0.0823,0.1036,0.1173,0.165,0.2651,0.2887,0.3123,0.3317,0.3353,0.3467,0.3412,0.2546,0.2042,0.3029,0.3431,0.36,0.36,0.36,0.36,0.36,0.36,0.36,0.36,0.36,0.36,0.36,0.36,0.36,0.36,0.36,0.36,0.36,0.36,0.36,0.36,0.36,0.36,0.36,0.36,0.36,-0.7637,-0.7638,-0.7745,-0.7815,-0.7788,-0.7657,-0.7638,-0.7586,-0.6466,-0.6041,-0.6135,-0.6176,-0.6196,-0.6196,-0.6196,-0.6196,-0.6198,-0.6158,-0.5976,0.0,-0.5654,-0.5526,-0.5308,-0.5309,-0.5309,-0.5309,-0.5316,-0.5309,-0.5301,-0.5246,-0.5009,-0.4634,-0.4484,-0.4043,-0.331,-0.2773,-0.2462,-0.238,-0.1954,-0.1489,-0.1023,-0.1003,-0.0802,-0.038,-0.0307,-0.0184,0.0,0.0,0.0101,0.0062,0.0095,0.0129,0.0,0.0,0.0,0.0,0.0,0.0,0.0,0.0,0.0,0.0,0.0,0.0,0.0,0.0033,0.0032,0.0,0.0,0.0302,0.0,0.0,0.0,0.0,0.0,0.0,0.0,0.0647,0.103,0.1318,0.1717,0.2172,0.2528,0.2571,0.2785,0.3129,0.2235,0.151,0.2088,0.2948,0.3534,0.36,0.36,0.36,0.3534,0.3578,0.3512,0.36,0.3567,0.3545,0.36,0.36,0.36,0.36,0.36,0.36,0.36,0.36,0.36,0.36,0.36,0.36,0.36,0.3578,0.3567,-0.8361,-0.8617,-0.8702,-0.889,-0.9143,-0.8852,-0.856,-0.8265,-0.7776,-0.7464,-0.7281,-0.7158,-0.7118,-0.7091,-0.6775,-0.6637,-0.663,-0.6476,-0.6338,-0.6179,-0.6034,-0.5912,-0.5779,-0.56,-0.5511,-0.5504,-0.5367,-0.5309,-0.5309,-0.5309,-0.5198,-0.4969,-0.4714,-0.4156,-0.3343,-0.3067,-0.2825,-0.2603,-0.2212,-0.1837,-0.1488,-0.1479,-0.1179,-0.0577,-0.0558,-0.0387,0.0,0.0,0.0,0.0,0.0,0.0,0.0,0.0,0.0,0.0,0.0,0.0,0.0,0.0,0.0,0.0,0.0,0.0,0.0,0.0,0.0,0.0,0.0,0.0,0.0,0.0,0.0,0.0,0.0,0.0,0.0,0.0223,0.0544,0.0849,0.1148,0.1507,0.201,0.1888,0.1633,0.17,0.1387,0.1463,0.1352,0.2042,0.2746,0.3023,0.3112,0.3112,0.3101,0.2801,0.279,0.3045,0.3112,0.3247,0.3497,0.36,0.36,0.36,0.36,0.36,0.36,0.36,0.36,0.36,0.36,0.36,0.3578,0.335,0.3134,-0.8947,-0.9319,-0.9588,-0.9913,-1.0244,-0.9853,-0.9439,-0.9079,-0.905,-0.8846,-0.8467,-0.8084,-0.7899,-0.7836,-0.7262,-0.6983,-0.6966,-0.6783,-0.6643,-0.6583,-0.6388,-0.6266,-0.6176,-0.5936,-0.577,-0.569,-0.5493,-0.5367,-0.5308,-0.5309,-0.5309,-0.5254,-0.4842,-0.4258,-0.3608,-0.3401,-0.3138,-0.2827,-0.2486,-0.2191,-0.1968,-0.1958,-0.1637,-0.1012,-0.0955,-0.0741,-0.0316,-0.0203,-0.0154,-0.0147,-0.0054,0.0,0.0,0.0,0.0,0.0,0.0,0.0,0.0,0.0,0.0,0.0,0.0,0.0,0.0,0.0,0.0,0.0,0.0,0.0,0.0,0.0,0.0,0.0,0.0,0.0,0.0,0.0,0.0157,0.0627,0.0705,0.0884,0.1207,0.113,0.074,0.0393,0.0939,0.1318,0.0895,0.1217,0.1784,0.214,0.2397,0.2497,0.2472,0.2164,0.2151,0.2583,0.2705,0.3009,0.3409,0.36,0.36,0.36,0.36,0.36,0.36,0.36,0.36,0.36,0.36,0.3556,0.335,0.2876,0.2528,-0.8706,-0.8928,-0.9775,-1.0244,-1.0293,-1.0235,-1.0166,-1.0118,-1.0147,-0.9864,-0.9307,-0.8349,-0.7919,-0.7819,-0.7252,-0.6983,-0.6983,-0.6973,-0.6837,-0.6623,-0.6576,-0.6432,-0.6246,-0.6178,-0.6006,-0.575,-0.5683,-0.5551,-0.5368,-0.5336,-0.5316,-0.5246,-0.484,-0.4572,-0.4387,-0.3698,-0.3286,-0.3237,-0.2853,-0.2582,-0.2446,-0.2439,-0.2188,-0.1717,-0.1691,-0.1531,-0.1152,-0.0838,-0.063,-0.0602,-0.0238,0.0,0.0,0.0,0.0,0.0,0.0,0.0,0.0,0.0,0.0,0.0,0.0,0.0,0.0,0.0,0.0,0.0,0.0,0.0,0.0,0.0,0.0,0.0,0.0,0.0,0.0,0.0,0.0022,0.0056,0.0,0.0,0.0,0.0,0.0,0.0,0.0549,0.0806,0.0348,0.0616,0.0996,0.1174,0.1507,0.1819,0.1852,0.1852,0.1897,0.2428,0.2672,0.2932,0.3339,0.36,0.36,0.36,0.36,0.36,0.36,0.36,0.36,0.3578,0.3534,0.342,0.289,0.2297,0.194,-0.8095,-0.8744,-0.9169,-0.9735,-1.0264,-1.0312,-1.0312,-1.0312,-1.0312,-1.0166,-0.9844,-0.8847,-0.8201,-0.7878,-0.7269,-0.6983,-0.6983,-0.6983,-0.6933,-0.6854,-0.6827,-0.676,-0.6667,-0.6499,-0.6349,-0.6219,-0.6068,-0.5927,-0.5811,-0.5625,-0.5458,-0.5305,-0.5096,-0.4866,-0.461,-0.425,-0.3959,-0.3712,-0.329,-0.3025,-0.2959,-0.2744,-0.2394,-0.1975,-0.1928,-0.1724,-0.1339,-0.1131,-0.1045,-0.103,-0.0657,-0.029,0.0,0.0,0.0,0.0,0.0,0.0,0.0,0.0,0.0,0.0,0.0,0.0,0.0,0.0,0.0,0.0,0.0,0.0,0.0,0.0,0.0,0.0,0.0,0.0,0.0,0.0,0.0,0.0,0.0,0.0,0.0,0.0,0.0,0.0,0.0,0.0,0.0,0.0213,0.0337,0.0393,0.0605,0.0872,0.1129,0.0929,0.1084,0.1507,0.1953,0.243,0.3353,0.3589,0.36,0.36,0.36,0.36,0.36,0.36,0.36,0.3523,0.3181,0.2887,0.2295,0.1697,0.1241,-0.7824,-0.8675,-0.9009,-0.9578,-1.0293,-1.0312,-1.0312,-1.0312,-1.0312,-1.0235,-1.0,-0.9249,-0.8614,-0.8059,-0.7335,-0.6983,-0.6983,-0.6983,-0.6983,-0.6983,-0.6983,-0.6983,-0.6973,-0.6803,-0.6667,-0.6586,-0.6401,-0.6279,-0.6173,-0.597,-0.5685,-0.5446,-0.5406,-0.5198,-0.4824,-0.4682,-0.4457,-0.4159,-0.3727,-0.349,-0.3433,-0.3085,-0.2651,-0.2239,-0.2181,-0.2036,-0.1707,-0.1565,-0.149,-0.1488,-0.1082,-0.0596,0.0,0.0,0.0,0.0,0.0,0.0,0.0,0.0,0.0,0.0,0.0,0.0,0.0,0.0,0.0,0.0,0.0,0.0,0.0,0.0,0.0,0.0,0.0,0.0,0.0,0.0,0.0,0.0,0.0,0.0,0.0,0.0,0.0,0.0,0.0,0.0,0.0,0.0,0.0,0.0,0.0,0.0191,0.0538,0.0404,0.0303,0.0806,0.1463,0.2266,0.3309,0.3556,0.36,0.36,0.36,0.36,0.36,0.36,0.3486,0.3273,0.2887,0.2317,0.1685,0.1073,0.0575,-0.8193,-0.8827,-0.9795,-1.0205,-1.0283,-1.0312,-1.0293,-1.0264,-1.0303,-1.002,-0.9637,-0.9497,-0.9159,-0.8602,-0.7586,-0.701,-0.7004,-0.701,-0.6983,-0.6983,-0.6983,-0.6983,-0.6983,-0.698,-0.685,-0.665,-0.661,-0.6459,-0.623,-0.6173,-0.601,-0.5703,-0.5698,-0.5549,-0.5233,-0.4865,-0.4624,-0.4554,-0.4175,-0.3956,-0.3907,-0.3519,-0.3093,-0.2712,-0.2646,-0.2613,-0.2563,-0.2189,-0.1961,-0.1961,-0.1532,-0.0913,0.0,0.0,0.0,0.0,0.0,0.0,0.0,0.0,0.0,0.0,0.0,0.0,0.0,0.0,0.0,0.0,0.0,0.0,0.0,0.0,0.0,0.0,0.0,0.0,0.0,0.0,0.0,0.0,0.0,0.0,0.0,0.0,0.0,0.0,0.0,0.0,0.0,0.0,0.0,0.0,0.0,0.0,0.0,0.0,0.0,0.0683,0.1263,0.2075,0.2959,0.36,0.36,0.36,0.36,0.36,0.36,0.3497,0.3306,0.2979,0.2408,0.1808,0.1291,0.0529,0.0,-0.8419,-0.9279,-1.0,-1.0098,-0.9824,-1.0157,-1.0098,-0.9843,-1.0157,-1.0205,-0.9971,-0.9657,-0.9389,-0.9161,-0.8443,-0.7886,-0.7569,-0.7178,-0.6983,-0.6983,-0.6983,-0.6983,-0.6983,-0.6983,-0.697,-0.687,-0.686,-0.6724,-0.6476,-0.6462,-0.6314,-0.6055,-0.6026,-0.5861,-0.5579,-0.5391,-0.521,-0.5034,-0.4604,-0.4393,-0.435,-0.3964,-0.3544,-0.311,-0.2837,-0.2688,-0.2688,-0.253,-0.2464,-0.2464,-0.2003,-0.1742,-0.1673,-0.1146,-0.057,0.0,0.0,0.0,0.0,0.0,0.0,0.0,0.0,0.0,0.0,0.0,0.0,0.0,0.0,0.0,0.0,0.0,0.0,0.0,0.0,0.0,0.0,0.0,0.0,0.0,0.0,0.0,0.0,0.0,0.0,0.0,0.0,0.0,0.0,0.0,0.0,0.0,0.0,0.0,0.0,0.0,0.0,0.0,0.0851,0.1464,0.2233,0.3298,0.3534,0.3589,0.36,0.36,0.36,0.3578,0.3328,0.2743,0.2153,0.1606,0.102,0.0372,0.0,-0.8837,-0.9537,-1.0088,-1.0098,-0.9805,-1.0137,-1.0108,-0.9814,-1.0137,-1.0312,-1.0235,-0.9912,-0.9755,-0.9686,-0.9199,-0.8665,-0.8131,-0.7544,-0.7185,-0.701,-0.6983,-0.6983,-0.6983,-0.6983,-0.6983,-0.6993,-0.6983,-0.6904,-0.6743,-0.6744,-0.658,-0.6334,-0.6321,-0.6171,-0.5914,-0.5852,-0.5762,-0.5549,-0.5276,-0.5061,-0.4929,-0.4652,-0.4175,-0.3579,-0.3223,-0.2937,-0.2711,-0.2688,-0.2688,-0.2646,-0.2389,-0.2372,-0.2588,-0.21,-0.1221,0.0,0.0,0.0,0.0,0.0,0.0,0.0,0.0,0.0,0.0,0.0,0.0,0.0,0.0,0.0,0.0,0.0,0.0,0.0,0.0,0.0,0.0,0.0,0.0,0.0,0.0,0.0,0.0,0.0,0.0,0.0,0.0,0.0,0.0,0.0,0.0,0.0,0.0,0.0,0.0,0.0,0.0,0.0,0.0,0.1074,0.1657,0.2729,0.3404,0.3515,0.36,0.36,0.36,0.36,0.3187,0.2591,0.2092,0.1556,0.0946,0.0313,0.0,-0.9478,-0.9607,-1.0079,-1.0254,-1.0186,-1.0254,-1.0273,-1.0186,-1.0264,-1.0312,-1.0293,-1.0254,-1.0225,-1.0157,-0.9706,-0.9209,-0.8604,-0.8108,-0.7562,-0.7031,-0.6983,-0.6983,-0.6983,-0.6983,-0.6983,-0.6983,-0.6983,-0.6983,-0.696,-0.6946,-0.683,-0.6643,-0.6603,-0.6456,-0.6214,-0.6205,-0.6182,-0.6113,-0.6041,-0.593,-0.5733,-0.5516,-0.4991,-0.4155,-0.3854,-0.3421,-0.2785,-0.2725,-0.2705,-0.2708,-0.2685,-0.2699,-0.2691,-0.2588,-0.1857,0.0,0.0,0.0,0.0,0.0,0.0,0.0,0.0,0.0,0.0,0.0,0.0,0.0,0.0,0.0,0.0,0.0,0.0,0.0,0.0,0.0,0.0,0.0,0.0,0.0,0.0,0.0,0.0,0.0,0.0,0.0,0.0,0.0,0.0,0.0,0.0,0.0,0.0,0.0,0.0,0.0,0.0,0.0,0.0,0.0896,0.1339,0.2173,0.2755,0.299,0.3534,0.3567,0.3556,0.3467,0.2892,0.233,0.1896,0.0,0.0,0.0,0.0,-0.9369,-1.004,-1.0225,-1.0079,-0.9834,-1.0127,-1.0108,-0.9814,-1.0118,-1.0312,-1.0312,-1.0312,-1.0312,-1.0283,-1.0098,-0.9558,-0.8726,-0.849,-0.7946,-0.7136,-0.7,-0.6983,-0.6983,-0.6983,-0.6983,-0.6983,-0.6983,-0.6983,-0.6983,-0.6983,-0.6957,-0.689,-0.686,-0.6734,-0.6486,-0.6482,-0.6392,-0.6216,-0.6196,-0.6142,-0.6043,-0.5996,-0.5661,-0.5037,-0.4233,-0.3718,-0.358,-0.3113,-0.2809,-0.273,-0.2781,-0.28,-0.2711,-0.2688,-0.1857,0.0,0.0,0.0,0.0,0.0,0.0,0.0,0.0,0.0,0.0,0.0,0.0,0.0,0.0,0.0,0.0,0.0,0.0,0.0,0.0,0.0,0.0,0.0,0.0,0.0,0.0,0.0,0.0,0.0,0.0,0.0,0.0,0.0,0.0,0.0,0.0,0.0,0.0,0.0,0.0,0.0,0.0,0.0,0.0,0.0,0.1016,0.1285,0.1883,0.2541,0.3095,0.3388,0.3393,0.3134,0.2541,0.2015,0.153,0.0,0.0,0.0,0.0,-0.9399,-1.001,-1.0215,-1.0108,-0.9853,-1.0176,-1.0118,-0.9863,-1.0157,-1.0312,-1.0312,-1.0312,-1.0312,-1.0312,-1.0312,-0.9805,-0.9039,-0.8999,-0.8392,-0.7398,-0.7063,-0.7,-0.6983,-0.6983,-0.6983,-0.6983,-0.6983,-0.6983,-0.6983,-0.6983,-0.6983,-0.6983,-0.6983,-0.6924,-0.677,-0.673,-0.6647,-0.6519,-0.6506,-0.6445,-0.6395,-0.6445,-0.6175,-0.5489,-0.4706,-0.4238,-0.3994,-0.3407,-0.302,-0.2875,-0.2846,-0.2791,-0.2706,-0.2645,-0.1888,0.0,0.0,0.0,0.0,0.0,0.0,0.0,0.0,0.0,0.0,0.0,0.0,0.0,0.0,0.0,0.0,0.0,0.0,0.0,0.0,0.0,0.0,0.0,0.0,0.0,0.0,0.0,0.0,0.0,0.0,0.0,0.0,0.0,0.0,0.0,0.0,0.0,0.0,0.0,0.0,0.0,0.0,0.0,0.0,0.0,0.0574,0.051,0.0823,0.167,0.2317,0.2535,0.2573,0.2503,0.211,0.1629,0.1163,0.0,0.0,0.0,0.0,-0.9469,-0.9568,-1.0079,-1.0303,-1.0244,-1.0235,-1.0186,-1.0186,-1.0127,-1.0147,-1.0205,-1.0196,-1.0264,-1.0293,-1.0312,-0.9962,-0.9567,-0.9419,-0.8898,-0.8021,-0.7482,-0.7192,-0.7031,-0.6983,-0.6983,-0.6983,-0.6983,-0.6983,-0.6983,-0.6983,-0.6983,-0.6983,-0.6983,-0.6983,-0.6953,-0.6986,-0.6953,-0.6924,-0.6946,-0.6834,-0.6633,-0.6823,-0.6578,-0.5683,-0.5254,-0.4759,-0.4234,-0.3675,-0.33,-0.3111,-0.2899,-0.2785,-0.2723,-0.2641,-0.1566,0.0,0.0,0.0,0.0,0.0,0.0,0.0,0.0,0.0,0.0,0.0,0.0,0.0,0.0,0.0,0.0,0.0,0.0,0.0,0.0,0.0,0.0,0.0,0.0,0.0,0.0,0.0,0.0,0.0,0.0,0.0,0.0,0.0,0.0,0.0,0.0,0.0,0.0,0.0,0.0,0.0,0.0,0.0,0.0,0.0,0.0,0.0246,0.0286,0.1072,0.1593,0.1747,0.1844,0.1861,0.1685,0.1232,0.0861,0.0555,0.0,0.0,0.0,-0.9139,-0.9557,-1.0069,-1.0312,-1.0225,-0.9893,-0.9725,-0.9657,-0.9289,-0.9419,-0.9647,-0.9715,-0.9961,-1.0283,-1.0303,-1.001,-0.9637,-0.9509,-0.9161,-0.8563,-0.837,-0.7724,-0.714,-0.6983,-0.6983,-0.6983,-0.6983,-0.6983,-0.6983,-0.6983,-0.6983,-0.6983,-0.6983,-0.6983,-0.6983,-0.6983,-0.6983,-0.6983,-0.6983,-0.6973,-0.6906,-0.694,-0.6881,-0.6594,-0.5738,-0.5187,-0.4859,-0.4028,-0.346,-0.3252,-0.3094,-0.2996,-0.2882,-0.1656,0.0,0.0,0.0,0.0,0.0,0.0,0.0,0.0,0.0,0.0,0.0,0.0,0.0,0.0,0.0,0.0,0.0,0.0,0.0,0.0,0.0,0.0,0.0,0.0,0.0,0.0,0.0,0.0,0.0,0.0,0.0,0.0,0.0,0.0,0.0,0.0,0.0,0.0,0.0,0.0,0.0,0.0,0.0,0.0,0.0,0.0,0.0,0.0489,0.0662,0.1088,0.1281,0.1438,0.1483,0.1504,0.1149,0.0786,0.0528,0.0,0.0,0.0,0.0,-0.8675,-0.9199,-0.9745,-1.0088,-1.0225,-0.9706,-0.9489,-0.9399,-0.894,-0.9009,-0.9409,-0.9489,-0.9794,-1.0264,-1.0312,-1.0157,-0.9863,-0.9834,-0.9538,-0.9017,-0.8531,-0.7977,-0.744,-0.7168,-0.6983,-0.6983,-0.6983,-0.6983,-0.6983,-0.6983,-0.6983,-0.6983,-0.6983,-0.6983,-0.6983,-0.6983,-0.6983,-0.6983,-0.6983,-0.6983,-0.6983,-0.6983,-0.6983,-0.6835,-0.6113,-0.5524,-0.4919,-0.4052,-0.3542,-0.3432,-0.3361,-0.3314,-0.3115,-0.1195,0.0,0.0,0.0,0.0,0.0,0.0,0.0,0.0,0.0,0.0,0.0,0.0,0.0,0.0,0.0,0.0,0.0,0.0,0.0,0.0,0.0,0.0,0.0,0.0,0.0,0.0,0.0,0.0,0.0,0.0,0.0,0.0,0.0,0.0,0.0,0.0,0.0,0.0,0.0,0.0,0.0,0.0,0.0,0.0,0.0,0.0,0.0,0.0,0.0,0.0,0.0,0.0,0.0,0.0,0.0627,0.0312,0.0095,0.0,0.0,0.0,0.0,-0.8224,-0.8736,-0.927,-0.9814,-1.0157,-0.9686,-0.9409,-0.9389,-0.8827,-0.8928,-0.9399,-0.9489,-0.9804,-1.0312,-1.0312,-1.0303,-1.0273,-1.0225,-0.9981,-0.9379,-0.8685,-0.8036,-0.7946,-0.7262,-0.7014,-0.6983,-0.6983,-0.6983,-0.6983,-0.6983,-0.6983,-0.6983,-0.6983,-0.6983,-0.6983,-0.6983,-0.6983,-0.6983,-0.6983,-0.6983,-0.6983,-0.6983,-0.6983,-0.6894,-0.6445,-0.562,-0.4794,-0.4063,-0.3719,-0.3685,-0.3622,-0.3562,-0.3279,-0.1319,0.0,0.0,0.0,0.0,0.0,0.0,0.0,0.0,0.0,-0.009,0.0,0.0,0.0,0.0,0.0,0.0,0.0,0.0,0.0,0.0,0.0,0.0,-0.009,0.0,0.0,0.0,0.0,0.0,0.0,0.0,0.0,0.0,0.0,0.0,0.0,0.0,0.0,0.0,0.0,0.0,0.0,0.0,0.0,0.0,0.0,0.0,0.0,0.0,0.0,0.0,0.0,0.0,0.0,0.0,0.0,0.0,0.0,0.0,0.0,0.0,0.0,-0.8214,-0.8736,-0.9289,-0.9805,-1.0098,-0.9309,-0.9119,-0.9419,-0.8492,-0.8683,-0.933,-0.9489,-0.9814,-1.0312,-1.0312,-1.0312,-1.0312,-1.0312,-1.0205,-1.002,-0.9029,-0.8572,-0.8296,-0.7513,-0.7042,-0.6993,-0.6983,-0.6983,-0.6983,-0.6983,-0.6983,-0.6983,-0.6983,-0.6983,-0.6983,-0.6983,-0.6983,-0.6983,-0.6983,-0.6983,-0.6983,-0.6983,-0.6983,-0.6937,-0.6477,-0.5873,-0.5173,-0.4537,-0.4242,-0.4132,-0.3829,-0.36,-0.3176,-0.1443,0.0,0.0,0.0,0.0,0.0,0.0,-0.0448,-0.1151,-0.0917,-0.0705,-0.0717,-0.0818,-0.0583,0.0,0.0,0.0,-0.1073,-0.0493,-0.0583,-0.1007,-0.1052,-0.0862,-0.0672,-0.0292,0.0,0.0,0.0,0.0,0.0,0.0,0.0,0.0,0.0,0.0,0.0,0.0,0.0,0.0,0.0,0.0,0.0,0.0,0.0,0.0,0.0,0.0,0.0,0.0,0.0,0.0,0.0,0.0,0.0,0.0,0.0,0.0,0.0,0.0,0.0,0.0,0.0,-0.8211,-0.8746,-0.9279,-0.9814,-1.0118,-0.944,-0.9249,-0.9309,-0.8645,-0.8726,-0.9369,-0.9489,-0.9795,-1.0283,-1.0312,-1.0312,-1.0312,-1.0303,-1.0137,-0.9863,-0.9268,-0.8817,-0.8296,-0.7759,-0.7311,-0.7063,-0.6983,-0.6983,-0.6983,-0.6983,-0.6983,-0.6983,-0.6983,-0.6983,-0.6983,-0.6983,-0.6983,-0.6983,-0.6983,-0.6983,-0.6983,-0.6983,-0.6983,-0.6894,-0.6488,-0.6012,-0.5712,-0.5146,-0.4881,-0.4635,-0.4067,-0.36,-0.3523,-0.2393,-0.1521,-0.094,-0.084,-0.0494,0.0,-0.056,-0.1118,-0.1741,-0.1485,-0.1385,-0.1263,-0.1276,-0.1019,-0.0583,0.0,-0.0471,-0.1596,-0.1598,-0.152,-0.1552,-0.1631,-0.1429,-0.1252,-0.0784,-0.0269,0.0,0.0,0.0,0.0,0.0,0.0,0.0,0.0,0.0,0.0,0.0,0.0,0.0,0.0,0.0,0.0,0.0,0.0,0.0,0.0,0.0,0.0,0.0,0.0,0.0,0.0,0.0,0.0,0.0,0.0,0.0,0.0,0.0,0.0,0.0,0.0,-0.8121,-0.8726,-0.9189,-0.9735,-1.0157,-0.9725,-0.9538,-0.9568,-0.9059,-0.9139,-0.9558,-0.9617,-0.9932,-1.0244,-1.0312,-1.0312,-1.0312,-1.0283,-1.0079,-0.9578,-0.9488,-0.8938,-0.8326,-0.8028,-0.7728,-0.7171,-0.7031,-0.701,-0.6983,-0.6983,-0.6983,-0.6983,-0.6983,-0.6983,-0.6983,-0.6983,-0.6983,-0.6983,-0.6983,-0.6983,-0.6983,-0.6983,-0.6983,-0.6905,-0.6641,-0.6392,-0.6205,-0.5782,-0.5432,-0.5378,-0.4436,-0.3862,-0.3611,-0.3534,-0.3231,-0.211,-0.2066,-0.1542,-0.0862,-0.1195,-0.1773,-0.1962,-0.1953,-0.193,-0.1864,-0.181,-0.1555,-0.0997,-0.0639,-0.0616,-0.1864,-0.2302,-0.2335,-0.2226,-0.2074,-0.1969,-0.1872,-0.1517,-0.1125,0.0,0.0,0.0,0.0,0.0,0.0,0.0,0.0,0.0,0.0,0.0,0.0,0.0,0.0,0.0,0.0,0.0,0.0,0.0,0.0,0.0,0.0,0.0,0.0,0.0,0.0,0.0,0.0,0.0,0.0,0.0,0.0,0.0,0.0,0.0,0.0,-0.7752,-0.8706,-0.8797,-0.9389,-1.0137,-0.9725,-0.9736,-1.003,-0.9547,-0.9667,-1.0079,-1.0166,-1.0186,-1.0303,-1.0312,-1.0312,-1.0312,-1.0283,-1.0001,-0.9568,-0.9478,-0.9079,-0.8523,-0.8347,-0.8124,-0.7721,-0.7283,-0.6993,-0.6983,-0.6983,-0.6983,-0.6983,-0.6983,-0.6983,-0.6983,-0.6983,-0.6983,-0.6983,-0.6983,-0.6983,-0.6983,-0.6983,-0.6983,-0.6983,-0.682,-0.6799,-0.6721,-0.6343,-0.6044,-0.5997,-0.5383,-0.4607,-0.399,-0.3763,-0.3434,-0.3239,-0.3115,-0.2557,-0.1797,-0.1697,-0.2377,-0.2871,-0.2824,-0.2563,-0.263,-0.2812,-0.2426,-0.1532,-0.0919,-0.0975,-0.3076,-0.3243,-0.3334,-0.3186,-0.2916,-0.2702,-0.2701,-0.2558,-0.2349,-0.1754,0.0,0.0,0.0,0.0,0.0,0.0,0.0,0.0,0.0,0.0,0.0,0.0,0.0,0.0,0.0,0.0,0.0,0.0,0.0,0.0,0.0,0.0,0.0,0.0,0.0,0.0,0.0,0.0,0.0,0.0,0.0,0.0,0.0,0.0,0.0,-0.7938,-0.8706,-0.8999,-0.9558,-1.0118,-0.9726,-0.9637,-0.9824,-0.9617,-0.9627,-0.9893,-1.0157,-1.0312,-1.0312,-1.0312,-1.0312,-1.0312,-1.0312,-1.0,-0.9597,-0.9469,-0.9039,-0.8398,-0.8314,-0.7935,-0.7499,-0.7105,-0.701,-0.6983,-0.6983,-0.6983,-0.6983,-0.6983,-0.6983,-0.6983,-0.6983,-0.6983,-0.6983,-0.6983,-0.6983,-0.6983,-0.6983,-0.6983,-0.6983,-0.6983,-0.6983,-0.6947,-0.6799,-0.6609,-0.6556,-0.6327,-0.5894,-0.5206,-0.4228,-0.36,-0.36,-0.3589,-0.3398,-0.2835,-0.2746,-0.3051,-0.342,-0.3284,-0.3181,-0.3214,-0.3295,-0.3187,-0.2604,-0.2246,-0.2279,-0.3453,-0.3588,-0.3623,-0.3649,-0.3482,-0.3414,-0.3392,-0.324,-0.3107,-0.2908,0.0,0.0,0.0,0.0,0.0,0.0,-0.0445,-0.0424,-0.0558,0.0,0.0,0.0,0.0,0.0,0.0,0.0,0.0,0.0,0.0,0.0,0.0,0.0,0.0,0.0,0.0,0.0,0.0,0.0,0.0,0.0,0.0,0.0,0.0,0.0,0.0,-0.81,-0.8736,-0.9159,-0.9715,-1.0176,-0.9854,-0.9677,-0.9657,-0.9677,-0.9686,-0.9716,-1.0088,-1.0312,-1.0312,-1.0312,-1.0312,-1.0312,-1.0312,-0.9922,-0.9419,-0.9429,-0.8947,-0.818,-0.7964,-0.7873,-0.7468,-0.729,-0.7105,-0.7,-0.6983,-0.6983,-0.6983,-0.6983,-0.6983,-0.6983,-0.6983,-0.6983,-0.6983,-0.6983,-0.6983,-0.6983,-0.6983,-0.6983,-0.6983,-0.6983,-0.6983,-0.6989,-0.6947,-0.6926,-0.693,-0.6909,-0.6909,-0.6603,-0.4831,-0.3656,-0.36,-0.36,-0.36,-0.3567,-0.3523,-0.3456,-0.3589,-0.36,-0.3589,-0.3578,-0.3545,-0.3556,-0.36,-0.349,-0.3419,-0.3656,-0.3683,-0.3734,-0.3809,-0.3865,-0.3889,-0.3849,-0.38,-0.3814,-0.351,-0.2999,-0.2489,-0.1748,-0.1156,-0.1766,-0.2201,-0.1808,-0.1181,-0.1256,-0.1019,0.0,0.0,0.0,0.0,0.0,0.0,0.0,0.0,0.0,0.0,0.0,0.0,0.0,0.0,0.0,0.0,0.0,0.0,0.0,0.0,0.0,0.0,0.0,0.0,0.0,-0.7721,-0.8695,-0.8766,-0.9369,-1.0186,-1.0176,-1.0186,-1.0157,-1.0118,-1.0215,-1.0069,-1.0244,-1.0312,-1.0312,-1.0312,-1.0312,-1.0312,-1.0264,-0.9775,-0.9069,-0.9209,-0.8837,-0.8067,-0.8431,-0.8039,-0.7593,-0.7624,-0.7457,-0.7115,-0.6983,-0.6983,-0.6983,-0.6983,-0.6983,-0.6983,-0.6983,-0.6983,-0.6983,-0.6983,-0.6983,-0.6983,-0.6983,-0.6983,-0.6983,-0.6983,-0.6983,-0.6983,-0.6983,-0.6983,-0.6983,-0.6983,-0.6983,-0.6634,-0.4857,-0.384,-0.36,-0.36,-0.36,-0.36,-0.36,-0.36,-0.36,-0.36,-0.36,-0.36,-0.36,-0.36,-0.36,-0.36,-0.3674,-0.3822,-0.3948,-0.3966,-0.3981,-0.4028,-0.4102,-0.4128,-0.4148,-0.4193,-0.4195,-0.3727,-0.3908,-0.365,-0.298,-0.254,-0.295,-0.3109,-0.2468,-0.1898,-0.1661,-0.1424,-0.1174,-0.1203,-0.1268,-0.125,-0.1119,-0.0934,-0.1019,0.0,0.0,0.0,0.0,0.0,0.0,0.0,0.0,0.0,0.0,0.0,0.0,0.0,0.0,0.0,0.0,0.0,-0.7492,-0.8255,-0.8582,-0.9129,-0.9814,-0.9863,-0.9853,-0.9834,-0.9853,-0.9853,-0.9922,-1.0205,-1.0312,-1.0312,-1.0312,-1.0312,-1.0312,-1.0293,-0.9716,-0.8868,-0.8847,-0.8443,-0.7648,-0.7599,-0.7537,-0.7513,-0.7363,-0.7241,-0.7025,-0.6983,-0.6983,-0.6983,-0.6983,-0.6983,-0.6983,-0.6983,-0.6983,-0.6983,-0.6983,-0.6983,-0.6983,-0.6983,-0.6983,-0.6983,-0.6983,-0.6983,-0.6983,-0.6983,-0.6983,-0.6983,-0.6983,-0.6983,-0.6856,-0.5979,-0.5119,-0.36,-0.36,-0.36,-0.36,-0.36,-0.36,-0.36,-0.36,-0.36,-0.36,-0.36,-0.36,-0.36,-0.36,-0.3681,-0.3872,-0.4099,-0.4107,-0.4122,-0.4162,-0.4253,-0.4324,-0.4395,-0.4433,-0.447,-0.4491,-0.4491,-0.4491,-0.4012,-0.3436,-0.3633,-0.379,-0.34,-0.2746,-0.2232,-0.2007,-0.1799,-0.1945,-0.214,-0.2104,-0.2006,-0.1562,-0.147,0.0,0.0,0.0,0.0,0.0,0.0,0.0,0.0,0.0,0.0,0.0,0.0,0.0,0.0,0.0,0.0,0.0,-0.7565,-0.8129,-0.8541,-0.9079,-0.9677,-0.9686,-0.9716,-0.9706,-0.9726,-0.9726,-0.9795,-1.0137,-1.0312,-1.0312,-1.0312,-1.0312,-1.0283,-1.0176,-0.9558,-0.8958,-0.8462,-0.7938,-0.7356,-0.7056,-0.7056,-0.6993,-0.7073,-0.7025,-0.7014,-0.6983,-0.6983,-0.6983,-0.6983,-0.6983,-0.6983,-0.6983,-0.6983,-0.6983,-0.6983,-0.6983,-0.6983,-0.6983,-0.6983,-0.6983,-0.6983,-0.6983,-0.6983,-0.6983,-0.6983,-0.6983,-0.6983,-0.6983,-0.6909,-0.6719,-0.5583,-0.4177,-0.36,-0.36,-0.36,-0.36,-0.36,-0.36,-0.36,-0.36,-0.36,-0.36,-0.36,-0.36,-0.36,-0.3672,-0.3877,-0.4272,-0.4296,-0.4279,-0.4259,-0.4375,-0.446,-0.4474,-0.4491,-0.4491,-0.4491,-0.4491,-0.4491,-0.4491,-0.4391,-0.4419,-0.4349,-0.4173,-0.3677,-0.3014,-0.2786,-0.2653,-0.2997,-0.3124,-0.2923,-0.2768,-0.2335,-0.1916,-0.1606,0.0,0.0,0.0,0.0,0.0,0.0,0.0,0.0,0.0,0.0,0.0,0.0,0.0,0.0,0.0,0.0,-0.816,-0.8645,-0.8695,-0.9279,-1.0186,-1.0225,-1.0235,-1.0186,-1.0215,-1.0196,-1.0186,-1.0293,-1.0312,-1.0312,-1.0312,-1.0312,-1.0293,-0.9775,-0.927,-0.8746,-0.8201,-0.7759,-0.7273,-0.7073,-0.7014,-0.7056,-0.7014,-0.6983,-0.7013,-0.707,-0.7026,-0.6983,-0.6983,-0.6983,-0.6983,-0.6983,-0.6983,-0.6983,-0.6983,-0.6983,-0.6983,-0.6983,-0.6983,-0.6983,-0.6983,-0.6983,-0.6983,-0.6983,-0.6983,-0.6983,-0.6983,-0.6983,-0.6983,-0.6575,-0.5335,-0.4133,-0.36,-0.36,-0.36,-0.36,-0.36,-0.36,-0.3604,-0.3614,-0.3638,-0.361,-0.36,-0.3631,-0.3696,-0.3947,-0.4221,-0.447,-0.444,-0.4416,-0.4371,-0.4409,-0.447,-0.4477,-0.4491,-0.4491,-0.4491,-0.4491,-0.4491,-0.4491,-0.4491,-0.4491,-0.4556,-0.4394,-0.4443,-0.3953,-0.3753,-0.3713,-0.4128,-0.4139,-0.378,-0.3538,-0.3365,-0.2708,-0.2131,-0.1173,0.0,0.0,0.0,0.0,0.0,0.0,0.0,0.0,0.0,0.0,0.0,0.0,0.0,0.0,0.0,-0.8604,-0.9647,-0.9329,-0.9419,-0.9843,-1.0157,-1.0312,-1.0312,-1.0312,-1.0312,-1.0312,-1.0312,-1.0312,-1.0322,-1.0312,-1.0312,-1.0293,-1.0118,-0.9476,-0.8888,-0.8411,-0.8059,-0.7645,-0.7297,-0.7178,-0.7384,-0.7241,-0.6983,-0.7006,-0.7197,-0.7124,-0.707,-0.7042,-0.6983,-0.6983,-0.7046,-0.704,-0.7026,-0.702,-0.7006,-0.6983,-0.6983,-0.6983,-0.6983,-0.6983,-0.6983,-0.6983,-0.6983,-0.6983,-0.6983,-0.6972,-0.6951,-0.666,-0.584,-0.4689,-0.3763,-0.3622,-0.36,-0.36,-0.36,-0.36,-0.36,-0.3607,-0.3627,-0.3691,-0.3662,-0.3614,-0.3689,-0.3935,-0.4249,-0.4382,-0.4481,-0.4481,-0.4487,-0.4491,-0.4491,-0.4491,-0.4491,-0.4518,-0.4528,-0.4508,-0.4491,-0.4491,-0.4491,-0.4491,-0.4494,-0.4569,-0.4652,-0.4662,-0.4689,-0.4412,-0.4284,-0.4632,-0.4805,-0.446,-0.4406,-0.4407,-0.3538,-0.2644,-0.146,0.0,0.0,0.0,0.0,0.0,0.0,0.0,0.0,0.0,0.0,0.0,0.0,0.0,0.0,0.0,-0.8888,-0.9991,-0.9843,-0.9736,-0.9804,-1.0147,-1.0312,-1.0312,-1.0312,-1.0312,-1.0312,-1.0312,-1.0391,-1.044,-1.0488,-1.0645,-1.0673,-1.0479,-0.9837,-0.9281,-0.8808,-0.855,-0.8101,-0.7758,-0.7639,-0.7903,-0.7611,-0.7299,-0.7339,-0.7533,-0.7484,-0.7373,-0.7259,-0.7266,-0.7184,-0.7226,-0.7259,-0.7273,-0.7273,-0.7273,-0.7286,-0.7204,-0.7174,-0.713,-0.7066,-0.6983,-0.6983,-0.6983,-0.6983,-0.6898,-0.6825,-0.6793,-0.614,-0.5151,-0.3862,-0.36,-0.36,-0.36,-0.3604,-0.36,-0.3624,-0.3661,-0.3667,-0.3729,-0.3769,-0.3759,-0.3758,-0.3778,-0.4171,-0.4491,-0.4491,-0.4491,-0.4491,-0.4491,-0.4491,-0.4491,-0.4491,-0.4491,-0.4539,-0.4559,-0.4563,-0.4583,-0.461,-0.4627,-0.4634,-0.4624,-0.4634,-0.4726,-0.4793,-0.4824,-0.481,-0.4754,-0.4898,-0.5007,-0.5052,-0.4938,-0.4719,-0.386,-0.2878,-0.1677,0.0,0.0,0.0,0.0,0.0,0.0,0.0,0.0,0.0,0.0,0.0,0.0,0.0,0.0,0.0,-0.9019,-0.9548,-1.0049,-1.0264,-1.0244,-1.0303,-1.0322,-1.0381,-1.042,-1.0391,-1.0391,-1.04,-1.0606,-1.083,-1.0898,-1.1065,-1.1193,-1.0902,-1.029,-0.9595,-0.9013,-0.8868,-0.8565,-0.8224,-0.7997,-0.8527,-0.8154,-0.7719,-0.7799,-0.7889,-0.7852,-0.7826,-0.7764,-0.7715,-0.7538,-0.7726,-0.7847,-0.7866,-0.7831,-0.7792,-0.7726,-0.7569,-0.7504,-0.7426,-0.727,-0.718,-0.7104,-0.7093,-0.7073,-0.6954,-0.6384,-0.6363,-0.6401,-0.4711,-0.37,-0.36,-0.36,-0.3604,-0.3599,-0.361,-0.3688,-0.3775,-0.3792,-0.3851,-0.3906,-0.3931,-0.398,-0.4016,-0.4304,-0.447,-0.4491,-0.4491,-0.4491,-0.4491,-0.4491,-0.4518,-0.4522,-0.4563,-0.4621,-0.4674,-0.4702,-0.4733,-0.4779,-0.4803,-0.4813,-0.4796,-0.4743,-0.479,-0.4897,-0.4986,-0.503,-0.5064,-0.5122,-0.5146,-0.5207,-0.5311,-0.5014,-0.4165,-0.3297,-0.2245,-0.1247,0.0,0.0,0.0,0.0,0.0,0.0,0.0,0.0,0.0,0.0,0.0,0.0,0.0,0.0,-0.9009,-0.9548,-1.0069,-1.0312,-1.0312,-1.0312,-1.044,-1.0733,-1.0987,-1.0987,-1.0801,-1.0997,-1.1213,-1.135,-1.138,-1.1467,-1.1475,-1.0916,-1.0283,-0.9708,-0.9136,-0.8835,-0.8595,-0.8388,-0.8265,-0.8459,-0.8207,-0.7952,-0.7874,-0.8104,-0.8064,-0.7985,-0.8124,-0.8049,-0.7869,-0.7879,-0.7899,-0.7899,-0.7892,-0.7892,-0.7887,-0.7824,-0.7776,-0.7757,-0.7631,-0.7484,-0.7346,-0.7321,-0.7244,-0.6997,-0.6338,-0.5986,-0.5835,-0.4261,-0.3667,-0.3604,-0.3607,-0.364,-0.3717,-0.3799,-0.3866,-0.3922,-0.3939,-0.3986,-0.4094,-0.4027,-0.4111,-0.4266,-0.4385,-0.4491,-0.4491,-0.4491,-0.4491,-0.4491,-0.4508,-0.4559,-0.4593,-0.4679,-0.4743,-0.4796,-0.4828,-0.4857,-0.4899,-0.4975,-0.5011,-0.501,-0.497,-0.4962,-0.5045,-0.5192,-0.5283,-0.5266,-0.53,-0.5284,-0.5328,-0.5375,-0.5408,-0.4838,-0.4082,-0.3245,-0.2272,-0.1291,0.0,0.0,0.0,0.0,0.0,0.0,0.0,0.0,0.0,0.0,0.0,0.0,0.0,-0.9009,-0.9538,-1.0079,-1.0312,-1.0312,-1.0312,-1.0527,-1.0937,-1.1379,-1.1408,-1.1241,-1.1478,-1.1672,-1.1749,-1.1808,-1.1967,-1.1947,-1.1329,-1.0681,-1.004,-0.9395,-0.9211,-0.8955,-0.8546,-0.8706,-0.8737,-0.8517,-0.8232,-0.8284,-0.8437,-0.843,-0.8364,-0.8417,-0.8404,-0.8284,-0.8252,-0.8264,-0.8291,-0.8292,-0.8284,-0.8232,-0.8157,-0.809,-0.8049,-0.7944,-0.7804,-0.7682,-0.7595,-0.7519,-0.7094,-0.6453,-0.5744,-0.5104,-0.4353,-0.3689,-0.3604,-0.3712,-0.3788,-0.3936,-0.3994,-0.4082,-0.4178,-0.4122,-0.4153,-0.425,-0.4246,-0.4307,-0.4416,-0.4481,-0.4494,-0.4498,-0.4498,-0.4518,-0.4522,-0.4647,-0.4701,-0.4728,-0.4814,-0.4872,-0.4923,-0.4961,-0.4994,-0.5047,-0.513,-0.5201,-0.5205,-0.5203,-0.5206,-0.5183,-0.53,-0.5395,-0.5388,-0.5382,-0.5368,-0.5365,-0.5382,-0.5408,-0.5395,-0.4711,-0.388,-0.3225,-0.2235,-0.1271,0.0,0.0,0.0,0.0,0.0,0.0,0.0,0.0,0.0,0.0,0.0,0.0,-0.9019,-0.9548,-1.0059,-1.0312,-1.0312,-1.04,-1.0606,-1.0947,-1.1417,-1.1634,-1.1614,-1.1674,-1.1925,-1.2195,-1.2223,-1.241,-1.2548,-1.1984,-1.1319,-1.0668,-0.9905,-0.9738,-0.9376,-0.8996,-0.8972,-0.9191,-0.9081,-0.8598,-0.8758,-0.8717,-0.8704,-0.8724,-0.8691,-0.8671,-0.8645,-0.8631,-0.8644,-0.8618,-0.8618,-0.8611,-0.8571,-0.849,-0.8423,-0.8349,-0.8204,-0.8045,-0.7957,-0.7917,-0.7872,-0.7401,-0.662,-0.5861,-0.5079,-0.4237,-0.3836,-0.372,-0.3924,-0.4061,-0.4129,-0.4169,-0.428,-0.4358,-0.4304,-0.4355,-0.4385,-0.4409,-0.4443,-0.4457,-0.4491,-0.4505,-0.4515,-0.4545,-0.459,-0.4713,-0.4863,-0.4908,-0.4896,-0.4958,-0.5013,-0.5058,-0.5093,-0.5153,-0.5256,-0.5341,-0.531,-0.5324,-0.5307,-0.5311,-0.5307,-0.5317,-0.5395,-0.5395,-0.5392,-0.5392,-0.5395,-0.5395,-0.5446,-0.546,-0.4997,-0.4274,-0.3697,-0.3257,-0.2433,-0.1782,-0.1465,0.0,0.0,0.0,0.0,0.0,0.0,0.0,0.0,0.0,0.0,-0.9019,-0.9548,-1.0088,-1.0312,-1.04,-1.0948,-1.1104,-1.1015,-1.1669,-1.202,-1.2038,-1.2396,-1.2522,-1.2697,-1.2705,-1.2785,-1.256,-1.2138,-1.1433,-1.0775,-1.0115,-0.9575,-0.9172,-0.8929,-0.8962,-0.8976,-0.891,-0.8791,-0.8784,-0.8791,-0.8791,-0.8784,-0.8791,-0.8791,-0.8791,-0.8791,-0.8791,-0.8791,-0.8791,-0.8791,-0.8752,-0.8626,-0.8605,-0.8578,-0.8364,-0.822,-0.8152,-0.8095,-0.8029,-0.7675,-0.7104,-0.6383,-0.5251,-0.4446,-0.3953,-0.4234,-0.432,-0.4327,-0.4269,-0.4348,-0.4443,-0.4474,-0.4423,-0.4447,-0.4481,-0.4498,-0.4498,-0.4511,-0.4505,-0.4529,-0.4617,-0.4682,-0.4737,-0.4843,-0.5016,-0.5104,-0.5101,-0.5072,-0.5145,-0.5219,-0.5254,-0.5267,-0.5385,-0.5388,-0.5358,-0.5382,-0.5395,-0.5395,-0.5395,-0.5395,-0.5395,-0.5395,-0.5395,-0.5395,-0.5395,-0.5395,-0.5474,-0.5443,-0.5073,-0.49,-0.4769,-0.4298,-0.3591,-0.2854,-0.2162,-0.1198,0.0,0.0,0.0,0.0,0.0,0.0,0.0,0.0,0.0,-0.9027,-0.9547,-1.0079,-1.0312,-1.042,-1.1026,-1.1221,-1.1318,-1.2098,-1.2478,-1.2508,-1.2746,-1.2915,-1.2886,-1.2886,-1.2883,-1.2825,-1.215,-1.1441,-1.0775,-1.0192,-0.9471,-0.9008,-0.8818,-0.8818,-0.8791,-0.8791,-0.8791,-0.8791,-0.8791,-0.8791,-0.8791,-0.8791,-0.8791,-0.8791,-0.8791,-0.8791,-0.8791,-0.8791,-0.8791,-0.8712,-0.8573,-0.8533,-0.8626,-0.8395,-0.8018,-0.8068,-0.7953,-0.7713,-0.7648,-0.7231,-0.695,-0.6013,-0.5342,-0.4288,-0.4457,-0.4453,-0.4416,-0.4385,-0.4416,-0.447,-0.4491,-0.4498,-0.4532,-0.4532,-0.4528,-0.4545,-0.4559,-0.4545,-0.457,-0.4709,-0.4831,-0.4904,-0.4977,-0.5145,-0.5311,-0.527,-0.5214,-0.527,-0.5365,-0.5385,-0.5382,-0.5395,-0.5395,-0.5395,-0.5395,-0.5395,-0.5395,-0.5395,-0.5395,-0.5395,-0.5395,-0.5395,-0.5395,-0.5395,-0.5416,-0.5498,-0.5545,-0.5463,-0.5381,-0.5561,-0.5274,-0.4494,-0.3554,-0.2608,-0.1468,0.0,0.0,0.0,0.0,0.0,0.0,0.0,0.0,0.0,-0.8968,-0.9538,-1.0079,-1.0312,-1.0371,-1.0762,-1.1163,-1.1674,-1.2404,-1.2832,-1.2854,-1.2905,-1.2915,-1.2915,-1.2915,-1.2915,-1.2774,-1.2283,-1.1712,-1.0893,-1.0555,-0.9865,-0.9224,-0.891,-0.8949,-0.8857,-0.8791,-0.8791,-0.8791,-0.8791,-0.8791,-0.8791,-0.8791,-0.8791,-0.8791,-0.8791,-0.8791,-0.8791,-0.8791,-0.8778,-0.8606,-0.8295,-0.7969,-0.8302,-0.7683,-0.6918,-0.7259,-0.7197,-0.6899,-0.7086,-0.7278,-0.7336,-0.7222,-0.6656,-0.5507,-0.4587,-0.4636,-0.457,-0.4518,-0.4474,-0.4511,-0.4522,-0.4515,-0.4614,-0.464,-0.4559,-0.4549,-0.4685,-0.4713,-0.4796,-0.4921,-0.5074,-0.5164,-0.5188,-0.5266,-0.5365,-0.5354,-0.5314,-0.5331,-0.5395,-0.5395,-0.5395,-0.5395,-0.5395,-0.5395,-0.5395,-0.5395,-0.5395,-0.5399,-0.5399,-0.5415,-0.5415,-0.5395,-0.5399,-0.5412,-0.5443,-0.5508,-0.5569,-0.562,-0.5766,-0.5894,-0.5675,-0.5382,-0.3997,-0.254,-0.1391,0.0,0.0,0.0,0.0,0.0,0.0,0.0,0.0,0.0,-0.8653,-0.9547,-1.0088,-1.0312,-1.0371,-1.0732,-1.1163,-1.1625,-1.2139,-1.2576,-1.2844,-1.2915,-1.2915,-1.2915,-1.2915,-1.2915,-1.2808,-1.2618,-1.2197,-1.1699,-1.1216,-1.0453,-0.9744,-0.9536,-0.929,-0.8923,-0.8791,-0.8791,-0.8791,-0.8791,-0.8791,-0.8791,-0.8791,-0.8791,-0.8791,-0.8791,-0.8791,-0.8791,-0.8791,-0.8818,-0.8745,-0.8188,-0.7803,-0.771,-0.7101,-0.6629,-0.6764,-0.671,-0.6656,-0.6787,-0.7279,-0.7869,-0.8573,-0.7997,-0.6632,-0.5117,-0.5058,-0.4866,-0.4605,-0.4515,-0.4576,-0.4662,-0.4688,-0.4745,-0.4724,-0.459,-0.4611,-0.4791,-0.4941,-0.503,-0.5122,-0.5292,-0.5398,-0.5388,-0.5381,-0.5395,-0.5395,-0.5395,-0.5395,-0.5395,-0.5395,-0.5395,-0.5395,-0.5395,-0.5395,-0.5395,-0.5395,-0.5395,-0.5402,-0.5405,-0.5425,-0.5422,-0.5395,-0.5402,-0.5429,-0.5501,-0.5579,-0.5705,-0.581,-0.5994,-0.6184,-0.5593,-0.4917,-0.3658,-0.2327,-0.1254,0.0,0.0,0.0,0.0,0.0,0.0,0.0,0.0,0.0,-0.8244,-0.8868,-0.9636,-1.0088,-1.0342,-1.0722,-1.1163,-1.1625,-1.203,-1.2469,-1.2854,-1.2915,-1.2915,-1.2915,-1.2915,-1.2915,-1.2915,-1.2903,-1.2366,-1.1968,-1.1749,-1.1103,-1.0585,-1.021,-0.9801,-0.9387,-0.8916,-0.8791,-0.8791,-0.8791,-0.8791,-0.8791,-0.8791,-0.8791,-0.8791,-0.8791,-0.8798,-0.8791,-0.8804,-0.8871,-0.8858,-0.8249,-0.7735,-0.7482,-0.6831,-0.6331,-0.5973,-0.5919,-0.5891,-0.6524,-0.7366,-0.8164,-0.8725,-0.86,-0.795,-0.6754,-0.5964,-0.5218,-0.475,-0.4569,-0.4672,-0.478,-0.4816,-0.4848,-0.4933,-0.4816,-0.4801,-0.4979,-0.5156,-0.5275,-0.5275,-0.5384,-0.5405,-0.5402,-0.5398,-0.5388,-0.5395,-0.5395,-0.5395,-0.5395,-0.5395,-0.5395,-0.5395,-0.5395,-0.5395,-0.5395,-0.5395,-0.5422,-0.5409,-0.5436,-0.5446,-0.5463,-0.5457,-0.5481,-0.5511,-0.5586,-0.5657,-0.581,-0.5954,-0.6096,-0.6122,-0.5267,-0.4355,-0.3106,-0.2073,-0.1254,0.0,0.0,0.0,0.0,0.0,0.0,0.0,0.0,0.0,-0.787,-0.8149,-0.9089,-0.9795,-1.0303,-1.0654,-1.1114,-1.1615,-1.1952,-1.2422,-1.2866,-1.2915,-1.2915,-1.2915,-1.2915,-1.2915,-1.2915,-1.2915,-1.2439,-1.2175,-1.203,-1.1575,-1.1216,-1.0868,-1.0364,-0.9723,-0.9119,-0.8897,-0.8791,-0.8791,-0.8791,-0.8791,-0.8791,-0.8791,-0.8791,-0.8804,-0.8811,-0.8871,-0.8938,-0.9051,-0.8752,-0.8325,-0.7985,-0.7329,-0.6451,-0.5672,-0.5378,-0.511,-0.5041,-0.58,-0.7122,-0.811,-0.8685,-0.8791,-0.8765,-0.7889,-0.6797,-0.5725,-0.4824,-0.4644,-0.4796,-0.4931,-0.493,-0.4977,-0.5046,-0.5078,-0.5062,-0.5143,-0.5336,-0.5402,-0.5402,-0.5402,-0.5408,-0.5395,-0.5395,-0.5395,-0.5395,-0.5395,-0.5395,-0.5395,-0.5395,-0.5395,-0.5395,-0.5395,-0.5399,-0.5399,-0.5419,-0.5429,-0.544,-0.5501,-0.5539,-0.5549,-0.5562,-0.559,-0.56,-0.5698,-0.5793,-0.5898,-0.6032,-0.6158,-0.5992,-0.5123,-0.4023,-0.26,-0.1644,0.0,0.0,0.0,0.0,0.0,0.0,0.0,0.0,0.0,0.0,-0.7703,-0.8612,-0.9249,-0.9824,-1.0273,-1.041,-1.086,-1.1538,-1.1683,-1.2142,-1.2768,-1.2915,-1.2915,-1.2915,-1.2915,-1.2915,-1.2915,-1.2915,-1.2915,-1.2725,-1.2547,-1.2138,-1.1699,-1.1304,-1.0796,-1.0025,-0.9256,-0.8857,-0.8791,-0.8791,-0.8791,-0.8791,-0.8804,-0.8811,-0.8811,-0.8858,-0.8965,-0.9071,-0.9164,-0.9285,-0.9262,-0.8868,-0.8407,-0.7688,-0.682,-0.6203,-0.5679,-0.5073,-0.4862,-0.526,-0.6345,-0.7676,-0.8549,-0.8978,-0.9031,-0.8824,-0.7726,-0.6237,-0.5377,-0.4904,-0.4943,-0.5185,-0.5176,-0.5129,-0.522,-0.5287,-0.5279,-0.5279,-0.5408,-0.5408,-0.5408,-0.5408,-0.5395,-0.5395,-0.5395,-0.5395,-0.5395,-0.5395,-0.5395,-0.5395,-0.5395,-0.5395,-0.5395,-0.5402,-0.5419,-0.5416,-0.5425,-0.5453,-0.5573,-0.5603,-0.5633,-0.5657,-0.5677,-0.5651,-0.5644,-0.5837,-0.5937,-0.6028,-0.6096,-0.6205,-0.588,-0.4988,-0.3826,-0.2599,0.0,0.0,0.0,0.0,0.0,0.0,0.0,0.0,0.0,0.0,0.0]},{"header":{"parameterUnit":"m.s-1","parameterCategory":1,"la1":31.0,"la2":29.5877,"lo1":-88.7671,"lo2":-86.6584,"dy":0.0162,"dx":0.0185,"nx":115,"ny":88,"refTime":"2026-03-25T12:00:00:Z","depth":0,"parameterNumber":3,"parameterNumberName":"V-component_of_WINDS"},"data":[0.0,0.0,0.0,0.0,0.0,0.0,0.0,0.0,0.0,0.0,0.0,0.0,0.0,0.0,0.0,0.0,0.0,0.0,0.0,0.0,0.0,0.0,0.0,0.0,0.0,0.0,0.0,0.0,0.0,0.0,0.0,0.0,0.0,0.0,0.0,0.0,0.0,0.0,0.0,0.0,0.0,0.0,0.0,0.0,0.0,0.0,0.0,0.0,0.0,0.0,0.0,0.0,0.0,0.0,0.0,0.0,0.0,0.0,0.0,0.0,0.0,0.0,0.0,0.0,0.0,0.0,0.0,0.0,0.0,0.0,0.0,0.0,0.0,0.0,0.0,0.0,0.0,0.0,0.0,0.0,0.0,0.0,0.0,0.0,0.0,0.0,0.0,0.0,0.0,0.0,0.0,0.0,0.0,0.0,0.0,0.0,0.0,0.0,0.0,0.0,0.0,0.0,0.0,0.0,0.0,0.0,0.0,0.0,0.0,0.0,0.0,0.0,0.0,0.0,0.0,0.0,0.0,0.0,0.0,0.0,0.0,0.0,0.0,0.0,0.0,0.0,0.0,0.0,0.0,0.0,0.0,0.0,0.0,0.0,0.0,0.0,0.0,0.0,0.0,0.0,0.0,0.0,0.0,0.0,0.0,0.0,0.0,0.0,0.0,0.0,0.0,0.0,0.0,0.0,0.0,0.0,0.0,0.0,0.0,0.0,0.0,0.0,0.0,0.0,0.0,0.0,0.0,0.0,0.0,0.0,0.0,0.0,0.0,0.0,0.0,0.0,0.0,0.0,0.0,0.0,0.0,0.0,0.0,0.0,0.0,0.0,0.0,0.0,0.0,0.0,0.0,0.0,0.0,0.0,0.0,0.0,0.0,0.0,0.0,0.0,0.0,0.0,0.0,0.0,0.0,0.0,0.0,0.0,0.0,0.0,0.0,0.0,0.0,0.0,0.0,0.0,0.0,0.0,0.0,0.0,0.0,0.0,0.0,0.0,0.0,0.0,0.0,0.0,0.0,0.0,0.0,0.0,0.0,0.0,0.0,0.0,0.0,0.0,0.0,0.0,0.0,0.0,0.0,0.0,0.0,0.0,0.0,0.0,0.0,0.0,0.0,0.0,0.0,0.0,0.0,0.0,0.0,0.0,0.0,0.0,0.0,0.0,0.0,0.0,0.0,0.0,0.0,0.0,0.0,0.0,0.0,0.0,0.0,0.0,0.0,0.0,0.0,0.0,0.0,0.0,0.0,0.0,0.0,0.0,0.0,0.0,0.0,0.0,0.0,0.0,0.0,0.0,0.0,0.0,0.0,0.0,0.0,0.0,0.0,0.0,0.0,0.0,0.0,0.0,0.0,0.0,0.0,0.0,0.0,0.0,0.0,0.0,0.0,0.0,0.0,0.0,0.0,0.0,0.0,0.0,0.0,0.0,0.0,0.0,0.0,0.0,0.0,0.0,0.0,0.0,0.0,0.0,0.0,0.0,0.0,0.0,0.0,0.0,0.0,0.0,0.0,0.0,0.0,0.0,0.0,0.0,0.0,0.0,0.0,0.0,0.0,0.0,0.0,0.0,0.0,0.0,0.0,0.0,0.0,0.0,0.0,0.0,0.0,0.0,0.0,0.0,0.0,0.0,0.0,0.0,0.0,0.0,0.0,0.0,0.0,0.0,0.0,0.0,0.0,0.0,0.0,0.0,0.0,0.0,0.0,0.0,0.0,0.0,0.0,0.0,0.0,0.0,0.0,0.0,0.0,0.0,0.0,0.0,0.0,0.0,0.0,0.0,0.0,0.0,0.0,0.0,0.0,0.0,0.0,0.0,0.0,0.0,0.0,0.0,0.0,0.0,0.0,0.0,0.0,0.0,0.0,0.0,0.0,0.0,0.0,0.0,0.0,0.0,0.0,0.0,0.0,0.0,0.0,0.0,0.0,0.0,0.0,0.0,0.0,0.0,0.0,0.0,0.0,0.0,0.0,0.0,0.0,0.0,0.0,0.0,0.0,0.0,0.0,0.0,0.0,0.0,0.0,0.0,0.0,0.0,0.0,0.0,0.0,0.0,0.0,0.0,0.0,0.0,0.0,0.0,0.0,0.0,0.0,0.0,0.0,0.0,0.0,0.0,0.0,0.0,0.0,0.0,0.0,0.0,0.0,0.0,0.0,0.0,0.0,0.0,0.0,0.0,0.0,0.0,0.0,0.0,0.0,0.0,0.0,0.0,0.0,0.0,0.0,0.0,0.0,0.0,0.0,0.0,0.0,0.0,0.0,0.0,0.0,0.0,0.0,0.0,0.0,0.0,0.0,0.0,0.0,0.0,0.0,0.0,0.0,0.0,0.0,0.0,0.0,0.0,0.0,0.0,0.0,0.0,0.0,0.0,0.0,0.0,0.0,0.0,0.0,0.0,0.0,0.0,0.0,0.0,0.0,0.0,0.0,0.0,0.0,0.0,0.0,0.0,0.0,0.0,0.0,0.0,0.0,0.0,0.0,0.0,0.0,0.0,0.0,0.0,0.0,0.0,0.0,0.0,0.0,0.0,0.0,0.0,0.0,0.0,0.0,0.0,0.0,0.0,0.0,0.0,0.0,0.0,0.0,0.0,0.0,0.0,0.0,0.0,0.0,0.0,0.0,0.0,0.0,0.0,0.0,0.0,0.0,0.0,0.0,0.0,0.0,0.0,0.0,0.0,0.0,0.0,0.0,0.0,0.0,0.0,0.0,0.0,0.0,0.0,0.0,0.0,0.0,0.0,0.0,0.0,0.0,0.0,0.0,0.0,0.0,0.0,0.0,0.0,0.0,0.0,0.0,0.0,0.0,0.0,0.0,0.0,0.0,0.0,0.0,0.0,0.0,0.0,0.0,0.0,0.0,0.0,0.0,0.0,0.0,0.0,0.0,0.0,0.0,0.0,0.0,0.0,0.0,0.0,0.0,0.0,0.0,0.0,0.0,0.0,0.0,0.0,0.0,0.0,0.0,0.0,0.0,0.0,0.0,0.0,0.0,0.0,0.0,0.0,0.0,0.0,0.0,0.0,0.0,0.0,0.0,0.0,0.0,0.0,0.0,0.0,0.0,0.0,0.0,0.0,0.0,0.0,0.0,0.0,0.0,0.0,0.0,0.0,0.0,0.0,0.0,0.0,0.0,0.0,0.0,0.0,0.0,0.0,0.0,0.0,0.0,0.0,0.0,0.0,0.0,0.0,0.0,0.0,0.0,0.0,0.0,0.0,0.0,0.0,0.0,0.0,0.0,0.0,0.0,0.0,0.0,0.0,0.0,0.0,0.0,0.0,0.0,0.0,0.0,0.0,0.0,0.0,0.0,0.0,0.0,0.0,0.0,0.0,0.0,0.0,0.0,0.0,0.0,0.0,0.0,0.0,0.0,0.0,0.0,0.0,0.0,0.0,0.0,0.0,0.0,0.0,0.0,0.0,0.0,0.0,0.0,0.0,0.0,0.0,0.0,0.0,0.0,0.0,0.0,0.0,0.0,0.0,0.0,0.0,0.0,0.0,0.0,0.0,0.0,0.0,0.0,0.0,0.0,0.0,0.0,0.0,0.0,0.0,0.0,0.0,0.0,0.0,0.0,0.0,0.0,0.0,0.0,0.0,0.0,0.0,0.0,0.0,0.0,0.0,0.0,0.0,0.0,0.0,0.0,0.0,0.0,0.0,0.0,0.0,0.0,0.0,0.0,0.0,0.0,0.0,0.0,0.0,0.0,0.0,0.0,0.0,0.0,0.0,0.0,0.0,0.0,0.0,0.0,0.0,0.0,0.0,0.0,0.0,0.0,0.0,0.0,0.0,0.0,0.0,0.0,0.0,0.0,0.0,0.0,0.0,0.0,0.0,0.0,0.0,0.0,0.0,0.0,0.0,0.0,0.0,0.0,0.0,0.0,0.0,0.0,0.0,0.0,0.0,0.0,0.0,0.0,0.0,0.0,0.0,0.0,0.0,0.0,0.0,0.0,0.0,0.0,0.0,0.0,0.0,0.0,0.0,0.0,0.0,0.0,0.0,0.0,0.0,0.0,0.0,0.0,0.0,0.0,0.0,0.0,0.0,0.0,0.0,0.0,0.0,0.0,0.0,0.0,0.0,0.0,0.0,0.0,0.0,0.0,0.0,0.0,0.0,0.0,0.0,0.0,0.0,0.0,0.0,0.0,0.0,0.0,0.0,0.0,0.0,0.0,0.0,0.0,0.0,0.0,0.0,0.0,0.0,0.0,0.0,0.0,0.0,0.0,0.0,0.0,0.0,0.0,0.0,0.0,0.0,0.0,0.0,0.5104,0.0,0.0,0.0,0.0,0.0,0.0,0.0,0.0,0.0,0.0,0.0,0.0,0.0,0.0,0.0,0.0,0.0,0.0,0.0,0.0,0.0,0.0,0.0,0.0,0.0,0.0,0.0,0.0,0.0,0.0,0.0,0.0,0.0,0.0,0.0,0.0,0.0,0.0,0.0,0.0,0.0,0.0,0.0,0.0,0.0,0.0,0.0,0.0,0.0,0.0,0.0,0.0,0.0,0.0,0.0,0.0,0.0,0.0,0.0,0.0,0.0,0.0,0.0,0.0,0.0,0.0,0.0,0.0,0.0,0.0,0.0,0.0,0.0,0.0,0.0,0.0,0.0,0.0,0.0,0.0,0.0,0.0,0.0,0.0,0.0,0.0,0.0,0.0,0.0,0.0,0.0,0.0,0.0,0.0,0.0,0.0,0.0,0.0,0.0,0.0,0.0,0.0,0.0,0.0,0.0,0.0,0.0,0.0,0.0,0.0,0.5058,0.5036,0.5098,0.5092,0.5101,0.0,0.0,0.0,0.0,0.0,0.0,0.0,0.0,0.0,0.0,0.0,0.0,0.0,0.0,0.0,0.0,0.0,0.0,0.0,0.0,0.0,0.0,0.0,0.0,0.0,0.0,0.0,0.0,0.0,0.0,0.0,0.0,0.0,0.0,0.0,0.0,0.0,0.0,0.0,0.0,0.0,0.0,0.0,0.0,0.0,0.0,0.0,0.0,0.0,0.0,0.0,0.0,0.0,0.0,0.0,0.0,0.0,0.0,0.0,0.0,0.0,0.0,0.0,0.0,0.0,0.0,0.0,0.0,0.0,0.0,0.0,0.0,0.0,0.0,0.0,0.0,0.0,0.0,0.0,0.0,0.0,0.0,0.0,0.0,0.0,0.0,0.0,0.0,0.0,0.0,0.0,0.0,0.0,0.0,0.0,0.0,0.0,0.0,0.0,0.0,0.0,0.0,0.0,0.0,0.0,0.0,0.0,0.0,0.0,0.0,0.0,0.0,0.5332,0.5373,0.5394,0.0,0.0,0.0,0.0,0.0,0.0,0.0,0.0,0.0,0.0,0.0,0.0,0.0,0.0,0.0,0.0,0.0,0.0,0.0,0.0,0.0,0.0,0.0,0.0,0.0,0.0,0.0,0.0,0.0,0.0,0.0,0.0,0.0,0.0,0.0,0.0,0.0,0.0,0.0,0.0,0.0,0.0,0.0,0.0,0.0,0.0,0.0,0.0,0.0,0.0,0.0,0.0,0.0,0.0,0.0,0.0,0.0,0.0,0.0,0.0,0.0,0.0,0.0,0.0,0.0,0.0,0.0,0.0,0.0,0.0,0.0,0.0,0.0,0.0,0.0,0.0,0.0,0.0,0.0,0.0,0.0,0.0,0.0,0.0,0.0,0.0,0.0,0.0,0.0,0.0,0.0,0.0,0.0,0.0,0.0,0.0,0.0,0.0,0.0,0.0,0.0,0.0,0.0,0.0,0.0,0.0,0.0,0.0,0.0,0.0,0.5365,0.6076,0.6149,0.0,0.6294,0.0,0.0,0.0,0.0,0.0,0.0,0.0,0.0,0.0,0.0,0.0,0.0,0.0,0.0,0.0,0.0,0.0,0.0,0.0,0.0,0.0,0.0,0.0,0.0,0.0,0.0,0.0,0.0,0.0,0.0,0.0,0.0,0.0,0.0,0.0,0.0,0.0,0.0,0.0,0.0,0.0,0.0,0.0,0.0,0.0,0.0,0.0,0.0,0.0,0.0,0.0,0.0,0.0,0.0,0.0,0.0,0.0,0.0,0.0,0.0,0.0,0.0,0.0,0.0,0.0,0.0,0.0,0.0,0.0,0.0,0.0,0.0,0.0,0.0,0.0,0.0,0.0,0.0,0.0,0.0,0.0,0.0,0.0,0.0,0.0,0.0,0.0,0.0,0.0,0.0,0.0,0.0,0.0,0.0,0.0,0.0,0.0,0.0,0.0,0.0,0.0,0.0,0.0,0.0,0.0,0.0,0.0,0.0,0.0,0.0,0.0,0.6183,0.6218,0.6268,0.0,0.0,0.0,0.0,0.0,0.0,0.0,0.0,0.0,0.0,0.0,0.0,0.0,0.0,0.0,0.0,0.0,0.0,0.0,0.0,0.0,0.0,0.0,0.0,0.0,0.0,0.0,0.0,0.0,0.0,0.0,0.0,0.0,0.0,0.0,0.0,0.0,0.0,0.0,0.0,0.0,0.0,0.0,0.0,0.0,0.0,0.0,0.0,0.0,0.0,0.0,0.0,0.0,0.0,0.0,0.0,0.0,0.0,0.0,0.0,0.0,0.0,0.0,0.0,0.0,0.0,0.0,0.0,0.0,0.0,0.0,0.0,0.0,0.0,0.0,0.0,0.0,0.0,0.0,0.0,0.0,0.0,0.0,0.0,0.0,0.0,0.0,0.0,0.0,0.0,0.0,0.0,0.0,0.0,0.0,0.0,0.0,0.0,0.0,0.0,0.0,0.0,0.0,0.0,0.0,0.0,0.0,0.0,0.0,0.0,0.5857,0.0,0.6539,0.6336,0.6264,0.632,0.0,0.0,0.0,0.0,0.0,0.0,0.0,0.0,0.0,0.0,0.0,0.0,0.0,0.0,0.0,0.0,0.0,0.0,0.0,0.0,0.0,0.0,0.0,0.0,0.0,0.0,0.0,0.0,0.0,0.0,0.0,0.0,0.0,0.0,0.0,0.0,0.0,0.0,0.0,0.0,0.0,0.0,0.0,0.0,0.0,0.0,0.0,0.0,0.0,0.0,0.0,0.0,0.0,0.0,0.0,0.0,0.0,0.0,0.0,0.0,0.0,0.0,0.0,0.0,0.0,0.0,0.0,0.0,0.0,0.0,0.0,0.0,0.0,0.0,0.0,0.0,0.0,0.0,0.0,0.0,0.0,0.0,0.0,0.0,0.0,0.0,0.0,0.0,0.0,0.0,0.0,0.0,0.0,0.0,0.0,0.0,0.0,0.0,0.0,0.0,0.0,0.0,0.0,0.0,0.0,0.0,0.0,0.0,0.0,0.616,0.654,0.7379,0.6695,0.6319,0.0,0.0,0.0,0.0,0.0,0.0,0.0,0.0,0.0,0.0,0.0,0.0,0.0,0.0,0.0,0.0,0.0,0.0,0.0,0.0,0.0,0.0,0.0,0.0,0.0,0.0,0.0,0.0,0.0,0.0,0.0,0.0,0.0,0.0,0.0,0.0,0.0,0.0,0.0,0.0,0.0,0.0,0.0,0.0,0.0,0.0,0.0,0.0,0.0,0.0,0.0,0.0,0.0,0.0,0.0,0.0,0.0,0.0,0.0,0.0,0.0,0.0,0.0,0.0,0.0,0.0,0.0,0.0,0.0,0.0,0.0,0.0,0.0,0.0,0.0,0.0,0.0,0.0,0.0,0.0,0.0,0.0,0.0,0.0,0.0,0.0,0.0,0.0,0.0,0.0,0.0,0.0,0.0,0.0,0.0,0.0,0.0,0.0,0.0,0.0,0.0,0.0,0.0,0.0,0.0,0.0,0.0,0.0,0.0,0.5284,0.578,0.6473,0.7366,0.6656,0.6283,0.0,0.0,0.0,0.0,0.0,0.0,0.0,0.0,0.0,0.0,0.0,0.0,0.0,0.0,0.0,0.0,0.0,0.0,0.0,0.0,0.0,0.0,0.0,0.0,0.0,0.0,0.0,0.0,0.0,0.0,0.0,0.0,0.0,0.0,0.0,0.0,0.0,0.0,0.0,0.0,0.0,0.0,0.0,0.0,0.0,0.0,0.0,0.0,0.0,0.0,0.0,0.0,0.0,0.0,0.0,0.0,0.0,0.0,0.0,0.0,0.0,0.0,0.0,0.0,0.0,0.0,0.0,0.0,0.0,0.0,0.0,0.0,0.0,0.0,0.0,0.0,0.0,0.0,0.0,0.0,0.0,0.0,0.0,0.0,0.0,0.0,0.0,0.0,0.0,0.0,0.0,0.0,0.0,0.0,0.0,0.0,0.0,0.0,0.0,0.0,0.0,0.0,0.0,0.0,0.0,0.0,0.0,0.0,0.0,0.5129,0.0,0.633,0.0,0.6205,0.5822,0.0,0.0,0.0,0.0,0.0,0.0,0.0,0.0,0.0,0.0,0.0,0.0,0.0,0.0,0.0,0.0,0.0,0.0,0.0,0.0,0.0,0.0,0.0,0.0,0.0,0.0,0.0,0.0,0.0,0.0,0.0,0.0,0.0,0.0,0.0,0.0,0.0,0.0,0.0,0.0,0.0,0.0,0.0,0.0,0.0,0.0,0.0,0.0,0.0,0.0,0.0,0.0,0.0,0.0,0.0,0.0,0.0,0.0,0.0,0.0,0.0,0.0,0.0,0.0,0.0,0.0,0.0,0.0,0.0,0.0,0.0,0.0,0.0,0.0,0.0,0.0,0.0,0.0,0.0,0.0,0.0,0.0,0.0,0.0,0.0,0.0,0.0,0.0,0.0,0.0,0.0,0.0,0.0,0.0,0.0,0.0,0.0,0.0,0.0,0.0,0.0,0.0,0.0,0.0,0.0,0.0,0.0,0.0,0.0,0.5919,0.5983,0.6071,0.6111,0.5377,0.4971,0.0,0.0,0.0,0.0,0.0,0.0,0.0,0.0,0.0,0.0,0.0,0.0,0.0,0.0,0.0,0.0,0.0,0.0,0.0,0.0,0.0,0.0,0.0,0.0,0.0,0.0,0.0,0.0,0.0,0.0,0.0,0.0,0.0,0.0,0.0,0.0,0.0,0.0,0.0,0.0,0.0,0.0,0.0,0.0,0.0,0.0,0.0,0.0,0.0,0.0,0.0,0.0,0.0,0.0,0.0,0.0,0.0,0.0,0.0,0.0,0.0,0.0,0.0,0.0,0.0,0.0,0.0,0.0,0.0,0.0,0.0,0.0,0.0,0.0,0.0,0.0,0.0,0.0,0.0,0.0,0.0,0.0,0.0,0.0,0.0,0.0,0.0,0.0,0.0,0.0,0.0,0.0,0.0,0.0,0.0,0.0,0.0,0.0,0.0,0.0,0.0,0.0,0.0,0.0,0.0,0.0,0.0,0.0,0.0,0.5253,0.5824,0.6169,0.6203,0.5407,0.5269,0.0,0.0,0.0,0.0,0.0,0.0,0.0,0.0,0.0,0.0,0.0,0.0,0.0,0.0,0.0,0.0,0.0,0.0,0.0,0.0,0.0,0.0,0.0,0.0,0.0,0.0,0.0,0.0,0.0,0.0,0.0,0.0,0.0,0.0,0.0,0.0,0.0,0.0,0.0,0.0,0.0,0.0,0.0,0.0,0.0,0.0,0.0,0.0,0.0,0.0,0.0,0.0,0.0,0.0,0.0,0.0,0.0,0.0,0.0,0.0,0.0,0.0,0.0,0.0,0.0,0.0,0.0,0.0,0.0,0.0,0.0,0.0,0.0,0.0,0.0,0.0,0.0,0.0,0.0,0.0,0.0,0.0,0.0,0.0,0.0,0.0,0.0,0.0,0.0,0.0,0.0,0.0,0.0,0.0,0.0,0.0,0.0,0.0,0.0,0.0,0.0,0.0,0.0,0.0,0.0,0.0,0.0,0.0,0.0,0.5459,0.5929,0.6221,0.6288,0.5456,0.5436,0.6313,0.0,0.0,0.0,0.0,0.0,0.0,0.0,0.0,0.0,0.0,0.0,0.0,0.0,0.0,0.0,0.0,0.0,0.0,0.0,0.0,0.0,0.0,0.0,0.0,0.0,0.0,0.0,0.0,0.0,0.0,0.0,0.0,0.0,0.0,0.0,0.0,0.0,0.0,0.0,0.0,0.0,0.0,0.0,0.0,0.0,0.0,0.0,0.0,0.0,0.0,0.0,0.0,0.0,0.0,0.0,0.0,0.0,0.0,0.0,0.0,0.0,0.0,0.0,0.0,0.0,0.0,0.0,0.0,0.0,0.0,0.0,0.0,0.0,0.0,0.0,0.0,0.0,0.0,0.0,0.0,0.0,0.0,0.0,0.0,0.0,0.0,0.0,0.0,0.0,0.0,0.0,0.0,0.0,0.0,0.0,0.0,0.0,0.0,0.0,0.0,0.0,0.0,0.0,0.0,0.0,0.0,0.0,0.0,0.6215,0.6217,0.6256,0.6295,0.5468,0.5409,0.0,0.0,0.0,0.0,0.0,0.0,0.0,0.0,0.0,0.0,0.0,0.0,0.0,0.0,0.0,0.0,0.0,0.0,0.0,0.0,0.0,0.0,0.0,0.0,0.0,0.0,0.0,0.0,0.0,0.0,0.0,0.0,0.0,0.0,0.0,0.0,0.0,0.0,0.0,0.0,0.0,0.0,0.0,0.0,0.0,0.0,0.0,0.0,0.0,0.0,0.0,0.0,0.0,0.0,0.0,0.0,0.0,0.0,0.0,0.0,0.0,0.0,0.0,0.0,0.0,0.0,0.0,0.0,0.0,0.0,0.0,0.0,0.0,0.0,0.0,0.0,0.0,0.0,0.0,0.0,0.0,0.0,0.0,0.0,0.0,0.0,0.0,0.0,0.0,0.0,0.0,0.0,0.0,0.0,0.0,0.0,0.0,0.0,0.0,0.0,0.0,0.0,0.0,0.0,0.0,0.0,0.0,0.0,0.0,0.5377,0.5999,0.6369,0.6357,0.552,0.5473,0.0,0.0,0.0,0.0,0.0,0.0,0.0,0.0,0.0,0.0,0.0,0.0,0.0,0.0,0.0,0.0,0.0,0.0,0.0,0.0,0.0,0.0,0.0,0.0,0.0,0.0,0.0,0.0,0.0,0.0,0.0,0.0,0.0,0.0,0.0,0.0,0.0,0.0,0.0,0.0,0.0,0.0,0.0,0.0,0.0,0.0,0.0,0.0,0.0,0.0,0.0,0.0,0.0,0.0,0.0,0.0,0.0,0.0,0.0,0.0,0.0,0.0,0.0,0.0,0.0,0.0,0.0,0.0,0.0,0.0,0.0,0.0,0.0,0.0,0.0,0.0,0.0,0.0,0.0,0.0,0.0,0.0,0.0,0.0,0.0,0.0,0.0,0.0,0.0,0.0,0.0,0.0,0.0,0.0,0.0,0.0,0.0,0.0,0.0,0.0,0.0,0.0,0.0,0.0,0.0,0.0,0.0,0.0,0.5802,0.613,0.5948,0.5833,0.5865,0.5738,0.5877,0.0,0.0,0.0,0.0,0.0,0.0,0.0,0.0,0.0,0.0,0.0,0.0,0.0,0.0,0.0,0.0,0.0,0.0,0.0,0.0,0.0,0.0,0.0,0.0,0.0,0.0,0.0,0.0,0.0,0.0,0.0,0.0,0.0,0.0,0.0,0.0,0.0,0.0,0.0,0.0,0.0,0.0,0.0,0.0,0.0,0.0,0.0,0.0,0.0,0.0,0.0,0.0,0.0,0.0,0.0,0.0,0.0,0.0,0.0,0.0,0.0,0.0,0.0,0.0,0.0,0.0,0.0,0.0,0.0,0.0,0.0,0.0,0.0,0.0,0.0,0.0,0.0,0.0,0.0,0.0,0.0,0.0,0.0,0.0,0.0,0.0,0.0,0.0,0.0,0.0,0.0,0.0,0.0,0.0,0.0,0.0,0.0,0.0,0.0,0.0,0.0,0.0,0.0,0.0,0.0,0.0,0.0,0.0,0.5791,0.7354,0.5897,0.5098,0.5117,0.5937,0.6406,0.0,0.0,0.0,0.0,0.0,0.0,0.0,0.0,0.0,0.0,0.0,0.0,0.0,0.0,0.0,0.0,0.0,0.0,0.0,0.0,0.0,0.0,0.0,0.0,0.0,0.0,0.0,0.0,0.0,0.0,0.0,0.0,0.0,0.0,0.0,0.0,0.0,0.0,0.0,0.0,0.0,0.0,0.0,0.0,0.0,0.0,0.0,0.0,0.0,0.0,0.0,0.0,0.0,0.0,0.0,0.0,0.0,0.0,0.0,0.0,0.0,0.0,0.0,0.0,0.0,0.0,0.0,0.0,0.0,0.0,0.0,0.0,0.0,0.0,0.0,0.0,0.0,0.0,0.0,0.0,0.0,0.0,0.0,0.0,0.0,0.0,0.0,0.0,0.0,0.0,0.0,0.0,0.0,0.0,0.0,0.0,0.0,0.0,0.0,0.0,0.0,0.0,0.0,0.0,0.0,0.0,0.0,0.0,0.521,0.5624,0.5293,0.5098,0.5098,0.5957,0.6405,0.0,0.0,0.0,0.0,0.0,0.0,0.0,0.0,0.0,0.0,0.0,0.0,0.0,0.0,0.0,0.0,0.0,0.0,0.0,0.0,0.0,0.0,0.0,0.0,0.0,0.0,0.0,0.0,0.0,0.0,0.0,0.0,0.0,0.0,0.0,0.0,0.0,0.0,0.0,0.0,0.0,0.0,0.0,0.0,0.0,0.0,0.0,0.0,0.3949,0.0,0.0,0.0,0.0,0.0,0.0,0.0,0.0,0.0,0.0,0.0,0.0,0.0,0.0,0.0,0.0,0.0,0.0,0.0,0.0,0.0,0.0,0.0,0.0,0.0,0.0,0.0,0.0,0.0,0.0,0.0,0.0,0.0,0.0,0.0,0.0,0.0,0.0,0.0,0.0,0.0,0.0,0.0,0.0,0.0,0.0,0.0,0.0,0.0,0.0,0.0,0.0,0.0,0.0,0.0,0.0,0.0,0.0,0.0,0.5684,0.5703,0.5312,0.5098,0.5117,0.5957,0.6406,0.0,0.0,0.0,0.0,0.0,0.0,0.0,0.0,0.0,0.0,0.0,0.0,0.0,0.0,0.0,0.0,0.0,0.0,0.0,0.0,0.0,0.0,0.0,0.0,0.0,0.0,0.0,0.0,0.0,0.0,0.0,0.0,0.0,0.0,0.0,0.0,0.0,0.0,0.0,0.0,0.0,0.0,0.0,0.0,0.0,0.0,0.0,0.0,0.0,0.0,0.0,0.0,0.0,0.0,0.0,0.0,0.0,0.0,0.0,0.0,0.0,0.0,0.0,0.0,0.0,0.0,0.0,0.0,0.0,0.0,0.0,0.0,0.0,0.0,0.0,0.0,0.0,0.0,0.0,0.0,0.0,0.0,0.0,0.0,0.0,0.0,0.0,0.0,0.0,0.0,0.0,0.0,0.0,0.0,0.0,0.0,0.0,0.0,0.0,0.0,0.0,0.0,0.0,0.0,0.0,0.0,0.0,0.6236,0.6197,0.6172,0.5488,0.5098,0.5098,0.5937,0.6465,0.0,0.0,0.0,0.0,0.0,0.0,0.0,0.0,0.0,0.0,0.0,0.0,0.0,0.0,0.0,0.0,0.0,0.0,0.0,0.0,0.0,0.0,0.0,0.0,0.0,0.0,0.0,0.0,0.0,0.0,0.0,0.0,0.0,0.0,0.0,0.0,0.0,0.0,0.0,0.4948,0.6314,0.0,0.0,0.0,0.0,0.0,0.0,0.0,0.0,0.6297,0.0,0.0,0.0,0.0,0.0,0.0,0.0,0.0,0.0,0.0,0.0,0.0,0.0,0.0,0.0,0.0,0.0,0.0,0.0,0.0,0.0,0.0,0.0,0.0,0.0,0.0,0.0,0.0,0.0,0.0,0.0,0.0,0.0,0.0,0.0,0.0,0.0,0.0,0.0,0.0,0.0,0.0,0.0,0.0,0.0,0.0,0.0,0.0,0.0,0.0,0.0,0.0,0.0,0.0,0.0,0.0,0.6367,0.5668,0.5329,0.5293,0.5176,0.5098,0.5117,0.5937,0.6738,0.7415,0.0,0.0,0.0,0.0,0.0,0.0,0.0,0.0,0.0,0.0,0.0,0.0,0.0,0.0,0.0,0.0,0.0,0.0,0.0,0.0,0.0,0.0,0.0,0.0,0.0,0.0,0.0,0.0,0.0,0.0,0.0,0.0,0.0,0.0,0.0,0.0,0.0,0.0,0.0,0.7106,0.7972,0.0,0.0,0.0,0.0,0.0,0.0,0.0,0.0,0.5973,0.0,0.0,0.0,0.0,0.0,0.0,0.0,0.0,0.0,0.0,0.0,0.0,0.0,0.0,0.0,0.0,0.0,0.0,0.0,0.0,0.0,0.0,0.0,0.0,0.0,0.0,0.0,0.0,0.0,0.0,0.0,0.0,0.0,0.0,0.0,0.0,0.0,0.0,0.0,0.0,0.0,0.0,0.0,0.0,0.0,0.0,0.0,0.0,0.0,0.0,0.0,0.0,0.0,0.0,0.0,0.5734,0.5749,0.5563,0.5117,0.5098,0.5098,0.5117,0.5936,0.6788,0.0,0.0,0.0,0.0,0.0,0.0,0.0,0.0,0.0,0.0,0.0,0.0,0.0,0.0,0.0,0.0,0.0,0.0,0.0,0.0,0.0,0.0,0.0,0.0,0.0,0.0,0.0,0.0,0.0,0.0,0.0,0.0,0.0,0.0,0.0,0.0,0.0,0.0,0.0,0.0,0.7496,0.8139,0.771,0.0,0.0,0.0,0.0,0.0,0.0,0.6845,0.6833,0.0,0.0,0.0,0.0,0.0,0.0,0.0,0.0,0.0,0.0,0.0,0.0,0.0,0.0,0.0,0.0,0.0,0.0,0.0,0.0,0.0,0.0,0.0,0.0,0.0,0.0,0.0,0.0,0.0,0.0,0.0,0.0,0.0,0.0,0.0,0.0,0.0,0.0,0.0,0.0,0.0,0.0,0.0,0.0,0.0,0.0,0.0,0.0,0.0,0.0,0.0,0.0,0.0,0.0,0.0,0.5139,0.579,0.5796,0.5137,0.5098,0.5098,0.5117,0.611,0.6954,0.0,0.0,0.0,0.0,0.0,0.0,0.0,0.0,0.0,0.0,0.0,0.0,0.0,0.0,0.0,0.0,0.0,0.0,0.0,0.0,0.0,0.0,0.0,0.0,0.0,0.0,0.0,0.0,0.0,0.0,0.0,0.0,0.0,0.0,0.0,0.0,0.0,0.0,0.0,0.0,0.0,0.8327,0.7769,0.7934,0.0,0.0,0.0,0.0,0.7927,0.8243,0.0,0.0,0.0,0.0,0.0,0.0,0.0,0.0,0.0,0.0,0.0,0.0,0.0,0.0,0.0,0.0,0.0,0.0,0.0,0.0,0.0,0.0,0.0,0.0,0.0,0.0,0.0,0.0,0.0,0.0,0.0,0.0,0.0,0.0,0.0,0.0,0.0,0.0,0.0,0.0,0.0,0.0,0.0,0.0,0.0,0.0,0.0,0.0,0.0,0.0,0.0,0.0,0.0,0.0,0.0,0.0,0.5101,0.5193,0.5215,0.5098,0.5098,0.5098,0.5117,0.6699,0.7552,0.0,0.0,0.0,0.0,0.0,0.0,0.0,0.0,0.0,0.0,0.0,0.0,0.0,0.0,0.0,0.0,0.0,0.0,0.0,0.0,0.0,0.0,0.0,0.0,0.0,0.0,0.0,0.0,0.0,0.0,0.0,0.0,0.0,0.0,0.0,0.0,0.0,0.0,0.0,0.0,0.0,0.9027,0.8088,0.8494,0.8847,0.0,0.0,0.0,0.8674,0.9586,0.0,0.0,0.0,0.0,0.0,0.0,0.0,0.0,0.0,0.0,0.0,0.0,0.0,0.0,0.0,0.0,0.0,0.0,0.0,0.0,0.0,0.0,0.0,0.0,0.0,0.0,0.0,0.0,0.0,0.0,0.0,0.0,0.0,0.0,0.0,0.0,0.0,0.0,0.0,0.0,0.0,0.0,0.0,0.0,0.0,0.0,0.0,0.0,0.0,0.0,0.0,0.0,0.0,0.0,0.0,0.5059,0.5089,0.5097,0.5098,0.5098,0.5098,0.5098,0.5098,0.6776,0.745,0.0,0.0,0.0,0.0,0.0,0.0,0.0,0.0,0.0,0.0,0.0,0.0,0.0,0.0,0.0,0.0,0.0,0.0,0.0,0.0,0.0,0.0,0.0,0.0,0.0,0.0,0.0,0.0,0.0,0.0,0.0,0.0,0.0,0.0,0.0,0.0,0.0,0.0,0.0,0.0,0.0,0.0,0.8708,0.8952,0.0,0.0,0.0,0.9976,1.0483,0.0,0.0,0.0,0.0,0.0,0.0,0.0,0.0,0.0,0.0,0.0,0.0,0.0,0.0,0.0,0.0,0.0,0.0,0.0,0.0,0.0,0.0,0.0,0.0,0.0,0.0,0.0,0.0,0.0,0.0,0.0,0.0,0.0,0.0,0.0,0.0,0.0,0.0,0.0,0.0,0.0,0.0,0.0,0.0,0.0,0.0,0.0,0.0,0.0,0.0,0.0,0.0,0.0,0.0,0.0,0.0,0.0,0.5093,0.5097,0.5098,0.5098,0.5098,0.5098,0.5117,0.6578,0.0,0.0,0.0,0.0,0.0,0.0,0.0,0.0,0.0,0.0,0.0,0.0,0.0,0.0,0.0,0.0,0.0,0.0,0.0,0.0,0.0,0.0,0.0,0.0,0.0,0.0,0.0,0.1141,0.0,0.0,0.0,0.0,0.0,0.0,0.0,0.0,0.0,0.0,0.0,0.0,0.0,0.0,0.9576,0.951,0.9751,1.0155,0.0,0.0,1.1315,1.1828,1.1828,1.1588,0.0,0.0,0.0,0.0,0.0,0.0,0.0,0.0,0.0,0.0,0.0,0.0,0.0,0.0,0.0,0.0,0.0,0.0,0.0,0.0,0.0,0.0,0.0,0.0,0.0,0.0,0.0,0.0,0.0,0.0,0.0,0.0,0.0,0.0,0.0,0.0,0.0,0.0,0.0,0.0,0.0,0.0,0.0,0.0,0.0,0.0,0.0,0.0,0.0,0.0,0.0,0.0,0.0,0.0,0.0,0.5094,0.5097,0.5098,0.5098,0.5098,0.5098,0.5117,0.5994,0.6474,0.0,0.0,0.0,0.0,0.0,0.0,0.0,0.0,0.0,0.0,0.0,0.0,0.0,0.0,0.0,0.0,0.0,0.0,0.0,0.0,0.0,0.0,0.0,0.0,0.0,0.0,0.0,0.0,0.0,0.0,0.0,0.0,0.0,0.0,0.0,0.0,0.0,0.0,0.0,0.0,0.0,1.0451,1.057,1.1234,1.1745,0.0,0.0,1.2687,1.2006,1.3326,1.3639,1.1279,0.0,0.0,0.0,0.0,0.0,0.0,0.0,0.0,0.0,0.0,0.0,0.0,0.0,0.0,0.0,0.0,0.0,0.0,0.0,0.0,0.0,0.0,0.0,0.0,0.0,0.0,0.0,0.0,0.0,0.0,0.0,0.0,0.0,0.0,0.0,0.0,0.0,0.0,0.0,0.0,0.0,0.0,0.0,0.0,0.0,0.0,0.0,0.0,0.0,0.0,0.0,0.0,0.0,0.5089,0.5097,0.5098,0.5098,0.5098,0.5098,0.5098,0.5098,0.5936,0.6416,0.0,0.0,0.0,0.0,0.0,0.0,0.0,0.0,0.0,0.0,0.0,0.0,0.0,0.0,0.0,0.0,0.0,0.0,0.0,0.0,0.0,0.0,0.0,0.0,0.0,0.0,0.0,0.0,0.4638,0.4667,0.4654,0.0,0.0,0.0,0.0,0.0,0.0,0.0,0.0,0.0,0.0,1.0643,1.0682,1.1453,0.0,0.0,1.3023,1.3292,1.3464,1.3583,1.3207,1.1917,1.1169,0.0,0.0,0.0,0.0,0.0,0.0,0.0,0.0,0.0,0.0,0.0,0.0,0.0,0.0,0.0,0.0,0.0,0.0,0.0,0.0,0.0,0.0,0.0,0.0,0.0,0.0,0.0,0.0,0.0,0.0,0.0,0.0,0.0,0.0,0.0,0.0,0.0,0.0,0.0,0.0,0.0,0.0,0.0,0.0,0.0,0.0,0.0,0.0,0.0,0.0,0.0,0.0,0.5091,0.5098,0.5098,0.5098,0.5098,0.5098,0.5098,0.5117,0.57,0.6002,0.0,0.0,0.0,0.0,0.0,0.0,0.0,0.0,0.0,0.0,0.0,0.0,0.0,0.0,0.0,0.0,0.0,0.0,0.0,0.0,0.0,0.0,0.0,0.0,0.0,0.0,0.0,0.0,0.518,0.5092,0.4773,0.0,0.0,0.0,0.0,0.0,0.0,0.0,0.0,0.0,0.0,1.1244,1.15,1.2305,1.3071,1.3574,1.3645,1.386,1.4405,1.3923,1.3274,1.263,0.0,0.0,0.0,0.0,0.0,0.0,0.0,0.0,0.0,0.0,0.0,0.0,0.0,0.0,0.0,0.0,0.0,0.0,0.0,0.0,0.0,0.0,0.0,0.0,0.0,0.0,0.0,0.0,0.0,0.0,0.4109,0.0,0.0,0.0,0.0,0.0,0.0,0.0,0.0,0.0,0.0,0.0,0.0,0.0,0.0,0.0,0.0,0.0,0.0,0.0,0.0,0.0,0.0,0.0,0.5098,0.5117,0.5098,0.5098,0.5098,0.5097,0.5095,0.5126,0.5133,0.5147,0.0,0.0,0.0,0.0,0.0,0.0,0.0,0.0,0.0,0.0,0.0,0.0,0.0,0.0,0.0,0.0,0.0,0.0,0.0,0.0,0.0,0.0,0.0,0.0,0.0,0.0,0.6075,0.6293,0.5893,0.0,0.0,0.0,0.0,0.0,0.0,0.0,0.0,0.0,0.0,1.2234,1.2471,1.3307,1.4108,1.4539,1.4464,1.4462,1.4481,1.4499,1.4566,1.4358,0.0,0.0,0.0,0.0,0.0,0.0,0.0,0.0,0.0,0.0,0.0,0.0,0.0,0.0,0.0,0.0,0.0,0.0,0.0,0.0,0.0,0.0,0.0,0.0,0.0,0.0,0.0,0.4998,0.4497,0.0,0.0,0.0,0.0,0.0,0.0,0.0,0.0,0.0,0.0,0.0,0.7191,0.832,0.0,0.0,0.0,0.0,0.0,0.0,0.0,0.0,0.0,0.0,0.0,0.0,0.5388,0.5898,0.5391,0.5098,0.5098,0.5098,0.5097,0.5093,0.5087,0.5089,0.5108,0.0,0.0,0.0,0.0,0.0,0.0,0.0,0.0,0.0,0.0,0.0,0.0,0.0,0.0,0.0,0.0,0.0,0.0,0.0,0.0,0.0,0.0,0.0,0.0,0.0,0.6105,0.0,0.0,0.0,0.0,0.0,0.0,0.0,0.0,0.0,0.0,0.0,1.0602,1.2136,1.2604,1.2969,1.3432,1.4188,1.4682,0.0,0.0,0.0,0.0,0.0,0.0,0.0,0.0,0.0,0.0,0.0,0.0,0.0,0.0,1.4508,1.235,1.1673,1.1419,1.1419,0.0,0.0,0.0,0.0,0.0,0.0,0.0,0.0,0.0,0.0,0.0,0.0,0.0,0.0,0.5378,0.0,0.5085,0.0,0.0,0.0,0.0,0.0,0.0,0.0,0.0,0.7969,0.8262,0.8103,0.9214,0.917,0.0,0.8362,0.7996,0.0,0.0,0.0,0.0,0.0,0.0,0.0,0.0,0.5975,0.6777,0.5996,0.5547,0.5547,0.5547,0.541,0.511,0.5095,0.5092,0.5099,0.5603,0.5641,0.0,0.0,0.0,0.0,0.0,0.0,0.0,0.0,0.0,0.0,0.0,0.0,0.0,0.0,0.0,0.0,0.0,0.0,0.0,0.0,0.0,0.0,0.0,0.6419,0.0,0.0,0.0,0.0,0.0,0.0,0.0,0.0,0.0,0.9614,1.0474,1.159,1.3125,1.3258,1.3431,1.3957,0.0,0.0,0.0,0.0,0.0,0.0,0.0,1.443,1.4846,1.503,1.4884,1.4209,1.5357,1.6394,1.6388,0.0,0.0,1.4344,1.3643,1.3382,1.3398,1.3683,1.3993,1.4148,1.478,1.5328,0.0,0.0,0.0,0.0,0.0,0.0,0.0,0.0,0.4996,0.5466,0.0,0.6088,0.0,0.0,0.0,0.0,0.0,0.0,0.0,0.0,0.8053,0.8107,0.8863,0.8944,0.8944,0.8963,0.9707,0.9639,0.8706,0.6321,0.0,0.0,0.0,0.0,0.0,0.0,0.6854,0.7676,0.6895,0.6426,0.6426,0.6445,0.6034,0.5181,0.5146,0.5139,0.51,0.5117,0.5099,0.5099,0.5097,0.0,0.0,0.0,0.0,0.0,0.0,0.0,0.0,0.0,0.0,0.0,0.0,0.0,0.0,0.0,0.0,0.0,0.0,0.0,0.0,0.5692,0.0,0.0,0.0,0.0,0.0,0.0,0.0,0.0,0.0,0.0,0.9599,1.07,1.2308,1.4837,0.0,0.0,0.0,0.0,1.673,1.6215,1.6865,1.739,1.7369,1.6949,1.6821,1.7295,0.0,0.0,1.5387,1.6373,1.737,1.6926,1.7271,1.7487,1.747,1.6689,1.6159,1.6137,1.603,1.6053,1.6253,1.6787,1.7268,0.8252,0.0,0.0,0.0,0.0,0.8612,0.841,0.758,0.7678,0.7531,0.7167,0.7139,0.0,0.0,0.0,0.0,0.0,0.0,0.8638,0.8894,0.9233,0.9211,0.893,0.9547,0.95,0.8926,0.9149,0.8838,0.7957,0.7215,0.6989,0.7224,0.0,0.0,0.0,0.0,0.7753,0.8516,0.7773,0.7324,0.7324,0.7324,0.6913,0.6042,0.6022,0.5725,0.5119,0.51,0.51,0.51,0.51,0.0,0.0,0.0,0.0,0.0,0.0,0.0,0.0,0.0,0.0,0.0,0.0,0.0,0.0,0.0,0.0,0.0,0.0,0.0,0.6499,0.5926,0.5785,0.0,0.0,0.0,0.0,0.0,0.0,0.0,0.0,0.0,0.996,1.1623,1.3382,0.0,0.0,1.501,1.5805,1.6816,1.7388,1.7195,0.0,0.0,0.0,1.7005,1.6802,1.7497,1.8262,1.8764,1.8737,1.9141,1.9422,1.925,1.937,1.9471,1.9386,1.8135,1.7136,1.7082,1.7447,1.7812,1.7927,1.8515,1.9041,1.0349,1.0284,1.0117,0.9531,0.8794,0.9365,0.912,0.8278,0.8356,0.8293,0.8105,0.812,0.826,0.8514,0.8495,0.0,0.0,0.0,0.9389,0.9392,0.988,0.9844,0.9431,0.9933,0.9925,0.9432,0.9406,0.9156,0.8646,0.8627,0.8637,0.8617,0.0,0.0,0.9382,0.8622,0.8647,0.9393,0.8652,0.8223,0.8203,0.7871,0.7459,0.6926,0.6597,0.6146,0.5644,0.5299,0.51,0.51,0.51,0.51,0.0,0.0,0.0,0.0,0.0,0.0,0.0,0.0,0.0,0.0,0.0,0.4886,0.0,0.0,0.0,0.0,0.491,0.5614,0.7318,0.7134,0.0,0.0,0.0,0.0,0.0,0.0,0.0,0.94,0.9805,1.0095,1.0152,1.3019,1.5373,1.6093,1.5617,1.5598,1.6719,0.0,1.8601,1.8221,1.8473,1.8718,1.8666,1.8298,1.8175,1.864,1.9142,1.9642,2.0175,2.0288,2.0288,2.0288,2.0288,2.0288,2.0288,1.9322,1.8541,1.8558,1.8866,1.9174,1.924,1.9607,1.9885,1.2692,1.2545,1.0964,0.9858,0.9108,0.9107,0.8606,0.7832,0.7892,0.8359,0.9082,0.9153,0.963,1.0351,1.0371,0.0,1.0364,1.0368,1.0364,1.0276,1.0303,1.0283,1.028,1.0351,1.0368,1.0364,1.0377,1.0373,1.0375,1.0298,1.0269,1.0264,0.9428,0.9405,1.0115,0.9472,0.9462,1.0188,0.9471,0.9121,0.9082,0.8319,0.7869,0.779,0.6954,0.6487,0.6387,0.5544,0.51,0.51,0.51,0.51,0.51,0.0,0.0,0.0,0.0,0.0,0.0,0.0,0.0,0.0,0.0,0.0,0.0,0.0,0.0,0.0,0.53,0.0,0.7642,0.8958,0.0,0.0,0.0,0.8796,0.8981,1.049,1.1175,1.0344,0.0,0.0,1.0499,0.0,1.7757,1.7891,1.6484,1.6021,1.7563,1.9173,2.0019,1.9183,1.9765,2.0269,2.0108,2.0113,2.0079,2.0115,2.0288,2.0271,2.0288,2.0288,2.0288,2.0288,2.0288,2.0288,2.0288,2.0206,2.0288,2.0204,2.0097,2.0059,2.0171,2.0109,2.0046,1.2562,1.251,1.2216,1.1596,1.0799,1.0799,1.0314,0.9579,1.0226,1.0559,1.0682,1.1346,1.1703,1.1812,1.1793,1.1792,1.1803,1.1913,1.1954,1.1947,1.2035,1.203,1.194,1.1958,1.1909,1.1822,1.1794,1.1861,1.1924,1.1287,1.1029,1.1076,1.0256,0.9952,1.0183,1.0016,1.0002,1.0188,1.0014,0.9939,0.998,0.9785,0.9355,0.8708,0.7843,0.7069,0.6407,0.5563,0.51,0.51,0.51,0.51,0.51,0.51,0.0,0.0,0.0,0.0,0.0,0.0,0.0,0.0,0.0,0.6706,0.6358,0.0,0.5906,0.0,0.7416,0.9058,0.946,0.9818,0.0,0.0,1.0756,1.1433,1.0857,1.1731,1.2119,1.1459,1.1811,1.2564,1.3826,1.6159,1.8201,1.9446,1.8579,1.7942,1.8386,1.9463,2.025,2.004,2.0152,2.0288,2.0288,2.0288,2.0288,2.0288,2.0288,2.0288,2.0288,2.0288,2.0288,2.0288,2.0288,2.0288,2.0288,2.0288,2.0288,2.0288,2.0271,2.0239,2.0285,2.0249,2.0233,1.3565,1.3574,1.3655,1.3173,1.2356,1.209,1.1662,1.1216,1.1669,1.1807,1.1722,1.2207,1.2386,1.2305,1.2301,1.2301,1.2307,1.237,1.2415,1.2418,1.2479,1.2476,1.2413,1.2415,1.2385,1.2305,1.2301,1.2337,1.2396,1.1995,1.1817,1.1868,1.1465,1.1271,1.126,1.0567,1.0192,1.0183,1.0201,1.0231,1.0293,1.0312,1.0059,0.9589,0.8703,0.801,0.7562,0.6701,0.6226,0.6183,0.5496,0.51,0.51,0.51,0.5433,0.0,0.0,0.0,0.0,0.0,0.0,0.0,0.0,0.0,0.0,0.0,0.7376,0.0,0.9019,1.0095,1.0095,1.0095,1.0298,1.0766,1.1931,1.2508,1.2027,1.2714,1.2965,1.2272,1.3158,1.4732,1.7136,1.8273,1.9196,2.0175,1.9752,1.9365,1.9385,1.9923,2.0288,2.0288,2.0288,2.0288,2.0288,2.0288,2.0288,2.0288,2.0288,2.0288,2.0288,2.0288,2.0288,2.0288,2.0288,2.0288,2.0288,2.0288,2.0288,2.0288,2.0288,2.0288,2.0288,2.0288,2.0288,1.4838,1.4841,1.4889,1.4455,1.3712,1.3197,1.2798,1.2482,1.2613,1.2628,1.2607,1.2591,1.2584,1.2562,1.258,1.2601,1.2584,1.2601,1.2592,1.2609,1.2626,1.2626,1.2613,1.2607,1.2599,1.2582,1.2587,1.2595,1.2615,1.2629,1.2626,1.2657,1.2665,1.2691,1.2627,1.1263,1.0477,1.0352,1.027,1.0231,1.0293,1.0312,1.0312,1.0273,0.9386,0.8951,0.8982,0.8102,0.762,0.755,0.6203,0.5425,0.5424,0.5618,0.6428,0.0,0.8017,0.0,0.0,0.0,0.0,0.0,0.0,0.0,0.0,0.7791,0.9042,1.0003,1.0095,1.0095,1.0095,1.0481,1.1082,1.1941,1.2628,1.2999,1.292,1.3677,1.399,1.3297,1.4521,1.6673,1.9673,2.0288,2.0288,2.0288,2.0252,2.0192,2.0267,2.0269,2.0288,2.0288,2.0288,2.0288,2.0288,2.0288,2.0288,2.0288,2.0288,2.0288,2.0288,2.0288,2.0288,2.0288,2.0288,2.0288,2.0288,2.0288,2.0288,2.0288,2.0288,2.0288,2.0288,2.0288,2.0288,1.4505,1.4521,1.4785,1.4805,1.4654,1.4545,1.3684,1.2403,1.3201,1.3804,1.4232,1.413,1.4095,1.4077,1.4074,1.409,1.4101,1.4207,1.4242,1.4246,1.4362,1.4351,1.4242,1.4242,1.4178,1.4095,1.4071,1.414,1.4239,1.3563,1.3349,1.3525,1.287,1.2589,1.2678,0.0,0.0,0.0,1.0567,1.0231,1.0293,1.0312,1.0312,1.0273,0.9431,0.0,0.8982,0.8152,0.7695,0.7678,0.7319,0.0,0.0,0.0,0.0,0.0,0.0,0.0,0.0,0.0,0.0,0.0,0.9081,0.9115,0.7641,0.8922,0.9909,1.0087,1.0095,1.0095,1.0133,1.2633,1.3975,1.3371,1.4175,1.454,1.3919,1.5079,1.6012,1.6125,1.6385,1.75,1.9827,2.0288,2.0288,2.0288,2.0288,2.0288,2.0288,2.0288,2.0288,2.0288,2.0288,2.0288,2.0288,2.0288,2.0288,2.0288,2.0288,2.0288,2.0288,2.0288,2.0288,2.0288,2.0288,2.0288,2.0288,2.0288,2.0288,2.0288,2.0288,2.0288,2.0288,2.0288,2.0288,1.5285,0.0,1.5463,1.5528,0.0,1.5715,1.5264,1.4375,1.4268,1.4586,1.5203,1.5536,1.5676,1.5676,1.568,1.5701,1.5664,1.5356,1.5187,1.5171,1.4847,1.4658,1.4619,1.4616,1.457,1.4493,1.4488,1.4531,1.4574,1.4219,1.4111,1.4221,1.39,1.3782,1.3811,1.3465,1.2691,1.1464,1.0636,1.0215,1.0251,1.0252,1.0253,1.0273,0.0,0.0,0.0,0.0,0.0,0.0,0.0,0.0,0.0,0.0,0.0,0.8914,0.9803,0.9785,0.871,0.9218,0.959,0.9473,1.0371,1.0566,0.9681,0.9242,0.9661,1.1331,1.2166,1.2634,1.2772,1.4286,1.5089,1.4605,1.5517,1.5938,1.5537,1.6394,1.731,1.7661,1.7732,1.8425,2.0077,2.0288,2.0288,2.0296,2.0337,2.0336,2.031,2.0288,2.0288,2.0288,2.0288,2.0288,2.0288,2.0288,2.0288,2.0288,2.0288,2.0288,2.0288,2.0288,2.0288,2.0288,2.0288,2.0288,2.0288,2.0288,2.0288,2.0288,2.0288,2.0288,2.0288,2.0288,2.0288,1.6223,1.6206,1.6197,1.6202,1.6223,1.6499,1.6551,1.6384,0.0,0.0,0.0,1.6615,1.6908,1.6908,1.6908,1.6908,1.685,1.6218,1.5842,1.5662,1.501,1.464,1.4488,1.4488,1.4488,1.4488,1.4488,1.4488,1.4493,1.4608,1.4682,1.4724,1.4871,1.496,1.4958,1.4264,1.3228,1.188,1.105,1.0566,1.0455,1.0437,1.0364,1.0293,1.0233,1.0233,1.0293,1.0243,1.0216,1.0228,1.0217,1.0227,1.013,0.7554,0.666,0.8086,0.9785,1.0352,0.9434,1.0234,1.0762,1.0762,1.1543,1.1934,1.1699,0.9803,0.9665,1.2246,1.4135,1.5267,1.5391,1.5391,1.5488,1.5684,1.6635,1.7129,1.6941,1.7598,1.8285,1.8641,1.8823,1.924,2.0159,2.0311,2.0312,2.0321,2.0369,2.0386,2.0342,2.0298,2.0288,2.0288,2.0288,2.0288,2.0288,2.0288,2.0288,2.0288,2.0288,2.0288,2.0288,2.0288,2.0288,2.0288,2.0288,2.0288,2.0288,2.0288,2.0288,2.0288,2.0288,2.0288,2.0288,2.0288,2.0288,1.6308,1.6286,1.6214,1.6202,1.6215,1.6234,1.6264,1.6267,1.6493,1.6653,1.6743,1.6853,1.6908,1.6908,1.6908,1.6908,1.6887,1.6777,1.6365,0.0,1.5588,1.5157,1.4509,1.4488,1.4488,1.4488,1.4506,1.4488,1.449,1.4511,1.4573,1.4697,1.4723,1.483,1.493,1.4264,1.3786,1.3542,1.2742,1.2017,1.1341,1.1323,1.0947,1.0247,1.023,1.0233,1.0293,1.0312,1.0292,1.0293,1.0293,1.0292,1.0254,0.9805,0.9668,1.0,1.1562,1.2461,1.2305,1.2461,1.2539,1.2578,1.3281,1.3242,1.207,1.209,1.1758,1.1016,1.3613,1.5368,1.541,1.5469,1.5801,1.6738,1.7461,1.7852,1.7812,1.8524,1.9054,1.9154,1.975,2.0137,2.0312,2.0385,2.0377,2.0327,2.0405,2.0472,2.0401,2.0334,2.03,2.0288,2.0288,2.0288,2.03,2.0292,2.0304,2.0288,2.0294,2.0298,2.0288,2.0288,2.0288,2.0288,2.0288,2.0288,2.0288,2.0288,2.0288,2.0288,2.0288,2.0288,2.0288,2.0292,2.0294,1.7456,1.7331,1.7289,1.7193,1.7082,1.7234,1.7382,1.7524,1.7725,1.7583,1.7257,1.7773,1.8041,1.8031,1.8152,1.8203,1.8185,1.7762,1.7355,1.6977,1.6551,1.616,1.5771,1.5359,1.5141,1.5123,1.4695,1.4488,1.4488,1.4488,1.4528,1.4587,1.4671,1.4798,1.4963,1.4663,1.4533,1.4574,1.3353,1.2522,1.2175,1.2156,1.1973,1.1607,1.1608,1.1634,1.1699,1.1699,1.1719,1.1719,1.1387,1.0937,1.0352,1.0312,1.1133,1.293,1.3809,1.3984,1.3359,1.3906,1.4258,1.4277,1.459,1.4824,1.4805,1.4434,1.3926,1.3184,1.457,1.6211,1.7891,1.6543,1.6094,1.791,1.834,1.8555,1.8769,1.9432,1.9934,1.9943,2.0221,2.0433,2.0409,2.0421,2.0462,2.0457,2.048,2.0436,2.0463,2.0386,2.0343,2.0303,2.029,2.029,2.0292,2.0335,2.0337,2.03,2.029,2.0289,2.0287,2.0288,2.0288,2.0288,2.0288,2.0288,2.0288,2.0288,2.0288,2.0288,2.0288,2.0288,2.0292,2.0292,2.0287,1.8497,1.829,1.8151,1.7975,1.7833,1.803,1.8229,1.841,1.8403,1.8111,1.7752,1.8592,1.901,1.9036,1.92,1.9282,1.9205,1.8669,1.8284,1.8056,1.7462,1.707,1.6853,1.6255,1.5879,1.5658,1.5065,1.4695,1.4509,1.4488,1.4488,1.4508,1.463,1.479,1.4921,1.499,1.5047,1.5069,1.392,1.3179,1.2977,1.2958,1.2924,1.2772,1.2757,1.2811,1.2867,1.285,1.287,1.2851,1.2461,1.1797,1.0957,1.0879,1.2227,1.5,1.541,1.5019,1.4238,1.4883,1.541,1.541,1.5586,1.6055,1.6816,1.6406,1.5801,1.5527,1.6152,1.7793,1.9648,1.8301,1.7246,1.8809,1.918,1.9375,1.9609,2.0195,2.0585,2.0537,2.0515,2.0508,2.0472,2.0496,2.0553,2.0563,2.0486,2.0446,2.0508,2.0452,2.0391,2.0357,2.0348,2.0336,2.0319,2.0374,2.0355,2.0305,2.0289,2.0286,2.0302,2.0288,2.0288,2.0288,2.0288,2.0288,2.0288,2.0288,2.0288,2.0288,2.0288,2.0296,2.0292,2.0305,2.0312,1.859,1.8484,1.8073,1.7811,1.7805,1.7839,1.7878,1.7883,1.7866,1.798,1.8143,1.8753,1.9002,1.9022,1.9204,1.9282,1.9282,1.9224,1.8816,1.8166,1.8038,1.7612,1.7015,1.6832,1.6416,1.5824,1.564,1.5252,1.4674,1.4561,1.4506,1.4511,1.4651,1.4696,1.4752,1.49,1.5016,1.5026,1.4985,1.4598,1.3828,1.379,1.3436,1.2717,1.274,1.2701,1.2839,1.2785,1.2817,1.2818,1.2849,1.2793,1.2676,1.2656,1.3496,1.5234,1.541,1.5352,1.5254,1.5352,1.541,1.5469,1.6133,1.6641,1.6836,1.7383,1.707,1.6387,1.834,2.0019,2.0547,2.0137,1.9629,1.9316,1.9922,2.0449,2.043,2.0547,2.0605,2.0586,2.0586,2.0605,2.0566,2.0566,2.0586,2.0605,2.0539,2.0511,2.0563,2.0538,2.0503,2.0474,2.0433,2.0407,2.0404,2.0404,2.04,2.0324,2.0294,2.0297,2.0293,2.0288,2.0288,2.0288,2.0288,2.0288,2.0288,2.0288,2.0288,2.0292,2.03,2.03,2.0323,2.0359,2.0377,1.8842,1.8593,1.8366,1.8094,1.7822,1.7794,1.7794,1.7794,1.7794,1.7855,1.8013,1.8523,1.8861,1.9019,1.9218,1.9282,1.9282,1.9282,1.9113,1.8831,1.882,1.8636,1.8317,1.7796,1.7414,1.7087,1.6643,1.6258,1.5884,1.5454,1.4995,1.4551,1.4543,1.4622,1.4704,1.4792,1.4873,1.4956,1.5035,1.4911,1.4626,1.4628,1.455,1.4278,1.4225,1.4232,1.4234,1.4272,1.4278,1.4279,1.434,1.4372,1.4375,1.4394,1.4668,1.5352,1.541,1.541,1.541,1.541,1.5644,1.6113,1.6484,1.709,1.8105,1.8125,1.8047,1.8652,1.9785,2.0605,2.0605,2.0605,2.0449,2.0176,2.0391,2.0605,2.0605,2.0605,2.0605,2.0605,2.0605,2.0605,2.0605,2.0605,2.0605,2.0605,2.0566,2.0566,2.0605,2.0565,2.0564,2.0563,2.0538,2.0489,2.0477,2.0506,2.0479,2.0433,2.0395,2.0344,2.0311,2.029,2.0288,2.0288,2.0288,2.0288,2.0288,2.0288,2.0288,2.0302,2.0299,2.0303,2.034,2.0418,2.047,1.8978,1.8604,1.8445,1.8156,1.7805,1.7794,1.7794,1.7794,1.7794,1.7839,1.7949,1.8325,1.8632,1.89,1.9172,1.9282,1.9282,1.9282,1.9282,1.9282,1.9282,1.9282,1.9224,1.8724,1.8317,1.8034,1.7499,1.7107,1.6875,1.6346,1.5619,1.4937,1.4827,1.4756,1.4656,1.4682,1.4751,1.4838,1.4912,1.497,1.4983,1.5078,1.518,1.5266,1.5275,1.5275,1.5276,1.5291,1.5299,1.5279,1.5353,1.5379,1.541,1.541,1.541,1.541,1.541,1.541,1.541,1.5625,1.6055,1.6738,1.7148,1.793,1.8906,1.8926,1.9297,2.0254,2.0605,2.0605,2.0605,2.0605,2.0605,2.0605,2.0605,2.0605,2.0605,2.0605,2.0605,2.0605,2.0605,2.0605,2.0605,2.0605,2.0605,2.0605,2.0605,2.0605,2.0605,2.0605,2.0605,2.0605,2.0605,2.0565,2.054,2.0562,2.0564,2.0511,2.0436,2.0382,2.0318,2.0296,2.0288,2.0288,2.0288,2.0288,2.0288,2.0288,2.0289,2.0304,2.0303,2.0337,2.0419,2.048,2.0676,1.8843,1.8532,1.804,1.7856,1.7788,1.7794,1.7805,1.7822,1.78,1.7938,1.8125,1.822,1.8371,1.8659,1.9074,1.9293,1.9275,1.9293,1.9282,1.9282,1.9282,1.9282,1.9282,1.9242,1.8853,1.824,1.8129,1.7686,1.7,1.6875,1.6456,1.5695,1.5655,1.5273,1.4702,1.4725,1.4721,1.4722,1.4834,1.4894,1.4907,1.4983,1.5077,1.5189,1.5201,1.5207,1.5215,1.5274,1.5285,1.5285,1.5295,1.5344,1.5391,1.5391,1.541,1.541,1.543,1.543,1.5508,1.6191,1.6816,1.7227,1.8281,1.918,1.9414,1.9922,2.0332,2.0586,2.0605,2.0605,2.0605,2.0605,2.0605,2.0605,2.0605,2.0605,2.0605,2.0605,2.0605,2.0605,2.0605,2.0605,2.0605,2.0605,2.0605,2.0605,2.0605,2.0605,2.0605,2.0605,2.0605,2.0605,2.0605,2.0605,2.0605,2.0605,2.0566,2.0516,2.0469,2.0383,2.0333,2.0288,2.0288,2.0288,2.0288,2.0288,2.0288,2.0287,2.0299,2.031,2.0346,2.0408,2.0741,2.0638,2.0957,1.8743,1.831,1.7949,1.7894,1.8024,1.7883,1.7894,1.8035,1.7883,1.7856,1.7965,1.8114,1.8254,1.8348,1.8689,1.8952,1.9123,1.9231,1.9282,1.9282,1.9282,1.9282,1.9282,1.9282,1.9183,1.8908,1.8849,1.8441,1.7762,1.7664,1.726,1.6606,1.6471,1.6074,1.5408,1.533,1.5103,1.4647,1.4686,1.4771,1.4804,1.4892,1.4977,1.5073,1.5167,1.5194,1.5194,1.5221,1.5232,1.5232,1.5279,1.5292,1.528,1.5309,1.536,1.543,1.5937,1.5996,1.5644,1.6758,1.7754,1.8242,1.8867,1.957,2.0039,2.041,2.0605,2.0605,2.0605,2.0605,2.0605,2.0605,2.0605,2.0605,2.0605,2.0605,2.0605,2.0605,2.0605,2.0605,2.0605,2.0605,2.0605,2.0605,2.0605,2.0605,2.0605,2.0605,2.0605,2.0605,2.0605,2.0605,2.0605,2.0605,2.0605,2.0605,2.0586,2.0547,2.051,2.0455,2.0386,2.032,2.03,2.029,2.0288,2.0288,2.0288,2.0292,2.0295,2.0323,2.0375,2.0837,2.1225,2.1305,2.1797,1.8528,1.8199,1.7922,1.7894,1.8034,1.7872,1.7911,1.8052,1.7872,1.7794,1.7839,1.7998,1.8061,1.8121,1.8351,1.8609,1.8869,1.9091,1.925,1.9293,1.9282,1.9282,1.9282,1.9282,1.9282,1.9279,1.9282,1.8999,1.8559,1.8496,1.8078,1.7315,1.7279,1.6897,1.6221,1.6078,1.5778,1.5377,1.5349,1.5319,1.5115,1.5427,1.5381,1.5089,1.5329,1.5426,1.5229,1.5194,1.5194,1.5201,1.5244,1.5246,1.5211,1.5247,1.5303,1.5488,1.6289,1.6406,1.5801,1.7285,1.8711,1.9375,1.9629,2.0,2.0547,2.0605,2.0605,2.0605,2.0605,2.0605,2.0605,2.0605,2.0605,2.0605,2.0605,2.0605,2.0605,2.0605,2.0605,2.0605,2.0605,2.0605,2.0605,2.0605,2.0605,2.0605,2.0605,2.0605,2.0605,2.0605,2.0605,2.0605,2.0605,2.0605,2.0605,2.0605,2.0625,2.0605,2.0547,2.0499,2.048,2.0385,2.0342,2.0323,2.0288,2.0288,2.0288,2.0288,2.0338,2.0363,2.0774,2.1252,2.1659,2.2088,2.2676,1.823,1.814,1.7905,1.7828,1.7867,1.7828,1.7794,1.7844,1.7822,1.7794,1.7805,1.7805,1.7845,1.7861,1.8088,1.8346,1.8637,1.8901,1.9105,1.9286,1.9282,1.9282,1.9282,1.9282,1.9282,1.9282,1.9282,1.9282,1.9187,1.915,1.8798,1.8221,1.8111,1.7707,1.6902,1.6905,1.6872,1.671,1.6653,1.6402,1.5913,1.6484,1.6324,1.5305,1.5786,1.5926,1.5355,1.5306,1.529,1.521,1.5274,1.5212,1.5213,1.5211,1.5259,1.5547,1.6504,1.6543,1.584,1.7832,1.9668,2.0234,2.0527,2.0488,2.0566,2.0605,2.0605,2.0605,2.0605,2.0605,2.0605,2.0605,2.0605,2.0605,2.0605,2.0605,2.0605,2.0605,2.0605,2.0605,2.0605,2.0605,2.0605,2.0605,2.0605,2.0605,2.0605,2.0605,2.0605,2.0605,2.0605,2.0605,2.0605,2.0605,2.0605,2.0605,2.0625,2.0644,2.0586,2.0527,2.0601,2.0569,2.0578,2.0545,2.03,2.0294,2.0296,2.0312,2.05,2.065,2.1146,2.1797,2.2422,2.2988,2.3535,1.8264,1.7927,1.7845,1.7905,1.8041,1.7878,1.7889,1.8052,1.7883,1.7794,1.7794,1.7794,1.7794,1.7811,1.7894,1.8166,1.858,1.8711,1.8948,1.9247,1.9297,1.9282,1.9282,1.9282,1.9282,1.9282,1.9282,1.9282,1.9282,1.9282,1.9146,1.8963,1.8911,1.85,1.7759,1.7719,1.7502,1.6963,1.6908,1.6762,1.6548,1.6815,1.6765,1.6474,1.6517,1.66,1.6751,1.6347,1.5827,1.5285,1.5772,1.5828,1.5328,1.5194,1.5259,1.5586,1.7285,1.7402,1.6113,1.832,2.0254,2.0547,2.0605,2.0605,2.0605,2.0605,2.0605,2.0605,2.0605,2.0605,2.0605,2.0605,2.0605,2.0605,2.0605,2.0605,2.0605,2.0605,2.0605,2.0605,2.0605,2.0605,2.0605,2.0605,2.0605,2.0605,2.0605,2.0605,2.0605,2.0605,2.0605,2.0605,2.0605,2.0684,2.0801,2.0957,2.1074,2.1133,2.1074,2.0898,2.0913,2.1015,2.099,2.0979,2.0707,2.0523,2.0483,2.0583,2.0881,2.1174,2.1704,2.248,2.3359,2.3945,2.4414,1.8249,1.7943,1.785,1.7889,1.803,1.7872,1.7883,1.8025,1.7883,1.7794,1.7794,1.7794,1.7794,1.7794,1.7794,1.8034,1.843,1.845,1.8712,1.9148,1.9274,1.9297,1.9282,1.9282,1.9282,1.9282,1.9282,1.9282,1.9282,1.9282,1.9282,1.9282,1.9282,1.9055,1.857,1.8522,1.8262,1.7851,1.7814,1.7649,1.748,1.7649,1.7559,1.7212,1.7261,1.7401,1.7519,1.7424,1.7019,1.6252,1.6138,1.5731,1.525,1.5241,1.5806,1.7363,1.8496,1.8848,1.7754,1.9394,2.0605,2.0605,2.0605,2.0605,2.0605,2.0605,2.0605,2.0605,2.0605,2.0605,2.0605,2.0605,2.0605,2.0605,2.0605,2.0605,2.0605,2.0605,2.0605,2.0605,2.0605,2.0605,2.0605,2.0605,2.0605,2.0605,2.0605,2.0605,2.0605,2.0605,2.0625,2.0625,2.0605,2.0781,2.1094,2.1309,2.1523,2.1641,2.1699,2.1543,2.1457,2.1732,2.1859,2.2144,2.2046,2.1826,2.1743,2.1653,2.1793,2.2088,2.2431,2.3242,2.4121,2.4629,2.5059,1.8213,1.8161,1.7905,1.78,1.7833,1.7839,1.7867,1.7844,1.7878,1.7866,1.7856,1.7861,1.7822,1.7805,1.7794,1.7948,1.8184,1.8239,1.8499,1.8895,1.9115,1.9205,1.9286,1.9282,1.9282,1.9282,1.9282,1.9282,1.9282,1.9282,1.9282,1.9282,1.9282,1.9282,1.9168,1.926,1.9168,1.9055,1.915,1.8775,1.8225,1.8779,1.8639,1.7458,1.81,1.8318,1.8025,1.8526,1.8596,1.7697,1.6386,1.5692,1.5445,1.542,1.7351,1.9941,2.0508,2.0469,2.0449,2.0371,2.0605,2.0605,2.0605,2.0605,2.0605,2.0605,2.0605,2.0605,2.0605,2.0605,2.0605,2.0605,2.0605,2.0605,2.0605,2.0605,2.0605,2.0605,2.0605,2.0605,2.0605,2.0605,2.0605,2.0605,2.0605,2.0605,2.0605,2.0605,2.0664,2.0684,2.0703,2.082,2.1035,2.1445,2.1914,2.1973,2.2246,2.2734,2.2734,2.2559,2.2324,2.2557,2.283,2.31,2.3148,2.3,2.2797,2.254,2.2672,2.3033,2.3558,2.4212,2.4727,2.5176,2.541,1.8381,1.8189,1.7911,1.7794,1.7822,1.7986,1.81,1.8114,1.8305,1.8239,1.8119,1.8105,1.7971,1.7811,1.78,1.7943,1.8125,1.817,1.8348,1.8656,1.8744,1.8998,1.9225,1.9282,1.9282,1.9282,1.9282,1.9282,1.9282,1.9282,1.9282,1.9282,1.9282,1.9282,1.9282,1.9282,1.9282,1.9282,1.9282,1.9224,1.904,1.9132,1.9132,1.8882,1.918,1.9316,1.922,1.969,1.956,1.8684,1.7661,1.7043,1.7162,1.8245,1.9414,2.0254,2.0605,2.0605,2.0605,2.0605,2.0605,2.0605,2.0605,2.0605,2.0605,2.0605,2.0605,2.0605,2.0605,2.0605,2.0605,2.0605,2.0605,2.0605,2.0605,2.0605,2.0605,2.0605,2.0605,2.0605,2.0605,2.0605,2.0605,2.0605,2.0605,2.0605,2.0605,2.0684,2.0801,2.1211,2.1406,2.1797,2.207,2.2461,2.2734,2.2773,2.3086,2.3769,2.3906,2.3809,2.3613,2.3569,2.3799,2.4018,2.3696,2.3511,2.3214,2.2939,2.339,2.4011,2.4213,2.4648,2.5156,2.5605,2.5644,1.8604,1.8351,1.8089,1.79,1.7845,1.8088,1.818,1.8249,1.8457,1.8445,1.8244,1.818,1.8062,1.7822,1.7794,1.7883,1.8025,1.8018,1.8177,1.8462,1.8692,1.8935,1.9132,1.9235,1.9282,1.9282,1.9282,1.9282,1.9282,1.9282,1.9282,1.9282,1.9282,1.9282,1.9282,1.9282,1.9282,1.9282,1.9282,1.9282,1.9282,1.9282,1.9282,1.9335,1.9575,1.975,1.9869,2.0143,2.0021,1.9525,1.9061,1.8792,1.8866,1.9886,2.0605,2.0605,2.0605,2.0605,2.0605,2.0605,2.0605,2.0605,2.0605,2.0605,2.0605,2.0605,2.0605,2.0605,2.0605,2.0605,2.0605,2.0605,2.0605,2.0605,2.0605,2.0605,2.0605,2.0605,2.0605,2.0605,2.0605,2.0605,2.0605,2.0605,2.0605,2.0605,2.0605,2.084,2.1152,2.1719,2.2227,2.2578,2.2871,2.3184,2.3535,2.3652,2.3906,2.459,2.4727,2.4707,2.4629,2.4512,2.4668,2.4707,2.4336,2.4062,2.3945,2.3984,2.4465,2.4881,2.4922,2.5059,2.5547,2.6074,2.6094,1.8829,1.8576,1.8293,1.8052,1.7861,1.8121,1.8244,1.8254,1.8532,1.8484,1.8249,1.818,1.8057,1.7794,1.7794,1.78,1.7817,1.7845,1.796,1.8259,1.8599,1.8931,1.8948,1.92,1.9271,1.9282,1.9282,1.9282,1.9282,1.9282,1.9282,1.9282,1.9282,1.9282,1.9282,1.9282,1.9282,1.9282,1.9282,1.9282,1.9282,1.9282,1.9282,1.9335,1.951,1.9723,1.992,2.0141,2.0188,2.0253,2.0285,2.0137,2.0204,2.0465,2.0586,2.0605,2.0605,2.0605,2.0605,2.0605,2.0586,2.0586,2.0566,2.0586,2.0566,2.0586,2.0586,2.0605,2.0605,2.0586,2.0566,2.0586,2.0586,2.0566,2.0566,2.0586,2.0605,2.0605,2.0605,2.0605,2.0605,2.0605,2.0605,2.0625,2.0684,2.1445,2.125,2.1113,2.1699,2.2461,2.293,2.332,2.3574,2.3809,2.418,2.4531,2.4883,2.5332,2.5352,2.5352,2.5352,2.5312,2.5488,2.543,2.5,2.498,2.5176,2.5371,2.5527,2.5625,2.5566,2.5703,2.5957,2.6523,2.6758,1.8834,1.8576,1.8305,1.8034,1.7894,1.8295,1.8391,1.8239,1.8688,1.8622,1.8262,1.818,1.8052,1.7794,1.7794,1.7794,1.7794,1.7794,1.7833,1.7938,1.8435,1.8674,1.8798,1.9103,1.9282,1.9279,1.9282,1.9282,1.9282,1.9282,1.9282,1.9282,1.9282,1.9282,1.9282,1.9282,1.9282,1.9282,1.9282,1.9282,1.9282,1.9282,1.9282,1.932,1.9499,1.9669,1.9824,2.0,2.0064,2.0087,2.0227,2.0288,2.0339,2.0477,2.0566,2.0586,2.0605,2.0605,2.0605,2.0586,2.0542,2.0475,2.0487,2.0515,2.0534,2.0531,2.0558,2.0586,2.0605,2.0547,2.048,2.0541,2.0539,2.0503,2.05,2.0509,2.0516,2.0564,2.0586,2.0605,2.0605,2.0605,2.0605,2.0664,2.1113,2.2031,2.2012,2.1562,2.2246,2.3223,2.373,2.416,2.4434,2.4668,2.4805,2.5078,2.5293,2.5703,2.582,2.5723,2.5723,2.6016,2.6133,2.5977,2.5625,2.5703,2.5703,2.5703,2.5625,2.5918,2.625,2.6465,2.6719,2.7168,2.7578,1.8856,1.8571,1.831,1.8052,1.7883,1.8206,1.8325,1.8295,1.8618,1.858,1.8264,1.818,1.804,1.7811,1.7794,1.7794,1.7794,1.78,1.7872,1.8025,1.8338,1.8537,1.8798,1.9025,1.9202,1.9274,1.9282,1.9282,1.9282,1.9282,1.9282,1.9282,1.9282,1.9282,1.9282,1.9282,1.9282,1.9282,1.9282,1.9282,1.9282,1.9282,1.9282,1.9335,1.9496,1.9627,1.9717,1.9852,1.9898,1.9977,2.016,2.0288,2.0302,2.0407,2.0471,2.0506,2.053,2.056,2.0586,2.0539,2.0477,2.0414,2.0434,2.0441,2.0469,2.0488,2.0522,2.0558,2.0566,2.0541,2.0426,2.0445,2.0451,2.0429,2.0443,2.0438,2.047,2.0532,2.0565,2.0586,2.0605,2.0605,2.0625,2.0859,2.168,2.2695,2.2734,2.2422,2.334,2.4238,2.4668,2.5078,2.5352,2.5527,2.5527,2.5586,2.5527,2.5879,2.6191,2.5977,2.5801,2.625,2.6738,2.6387,2.5957,2.5723,2.5703,2.5723,2.6035,2.6406,2.6797,2.7148,2.75,2.7851,2.832,1.8874,1.858,1.8356,1.8094,1.7861,1.81,1.8177,1.8161,1.842,1.8381,1.8166,1.8135,1.7964,1.7833,1.7794,1.7794,1.7794,1.7811,1.7905,1.8156,1.8203,1.8479,1.8784,1.8913,1.9038,1.9213,1.9286,1.9293,1.9282,1.9282,1.9282,1.9282,1.9282,1.9282,1.9282,1.9282,1.9282,1.9282,1.9282,1.9282,1.9282,1.9282,1.9282,1.9331,1.9423,1.9527,1.9567,1.9676,1.9755,1.977,2.0062,2.022,2.0286,2.03,2.0331,2.0399,2.0403,2.045,2.0509,2.0453,2.0392,2.0374,2.0395,2.0397,2.0403,2.0428,2.0468,2.0523,2.0537,2.0538,2.0403,2.0398,2.0394,2.0426,2.0481,2.057,2.0618,2.0726,2.1025,2.0879,2.1191,2.1367,2.1269,2.1387,2.2363,2.3164,2.3184,2.3477,2.4394,2.498,2.5312,2.5469,2.5625,2.5684,2.5684,2.6172,2.6113,2.6309,2.6621,2.6562,2.6348,2.6855,2.7266,2.666,2.6269,2.6211,2.6328,2.6621,2.6914,2.7129,2.7559,2.8105,2.8398,2.8574,2.9082,1.9007,1.859,1.8547,1.8254,1.7872,1.81,1.8072,1.7932,1.8194,1.8109,1.7905,1.7878,1.7867,1.78,1.7794,1.7794,1.7794,1.7811,1.7926,1.8161,1.8208,1.841,1.8674,1.8775,1.8851,1.902,1.9192,1.9279,1.9282,1.9282,1.9282,1.9282,1.9282,1.9282,1.9282,1.9282,1.9282,1.9282,1.9282,1.9282,1.9282,1.9282,1.9282,1.9282,1.9361,1.9368,1.9416,1.9523,1.9617,1.9652,1.9789,2.0004,2.0176,2.0239,2.0317,2.031,2.0309,2.0367,2.0409,2.0418,2.037,2.0345,2.0332,2.0327,2.0319,2.0334,2.0403,2.047,2.0526,2.0524,2.0355,2.0329,2.0334,2.0476,2.0911,2.1333,2.1511,2.1921,2.2122,2.1824,2.209,2.2227,2.2012,2.2207,2.3281,2.3906,2.3965,2.4297,2.5019,2.5371,2.5547,2.5644,2.5684,2.5684,2.5703,2.6387,2.6777,2.6934,2.7226,2.7559,2.7519,2.7812,2.7793,2.7695,2.7519,2.75,2.7617,2.7598,2.7793,2.8008,2.8555,2.9101,2.9336,2.9551,2.998,1.893,1.859,1.845,1.8166,1.7883,1.8077,1.8125,1.8024,1.8135,1.813,1.7986,1.7861,1.7794,1.7794,1.7794,1.7794,1.7794,1.7794,1.7949,1.8146,1.8213,1.843,1.8752,1.8811,1.8953,1.9129,1.9259,1.9293,1.9282,1.9282,1.9282,1.9282,1.9282,1.9282,1.9282,1.9282,1.9282,1.9282,1.9282,1.9282,1.9282,1.9282,1.9282,1.9282,1.9282,1.9282,1.9316,1.9368,1.9434,1.9452,1.9507,1.9622,1.9816,2.0107,2.0288,2.0288,2.029,2.0304,2.0331,2.0343,2.0339,2.03,2.0303,2.0299,2.0294,2.0301,2.0338,2.0381,2.0404,2.04,2.0294,2.035,2.0483,2.0895,2.1378,2.1785,2.2282,2.3055,2.3112,2.2863,2.2832,2.2793,2.2578,2.3105,2.4199,2.4629,2.4703,2.5094,2.558,2.5644,2.5664,2.5684,2.5703,2.5781,2.5937,2.666,2.7344,2.7598,2.8047,2.8379,2.8613,2.8887,2.9277,2.9473,2.9277,2.8672,2.8281,2.8066,2.8457,2.8867,2.9219,2.9609,3.0137,3.0566,3.0801,1.8883,1.8576,1.8371,1.8105,1.7872,1.8008,1.8103,1.8114,1.8103,1.8098,1.8082,1.79,1.7794,1.7794,1.7794,1.7794,1.7794,1.7794,1.7992,1.8239,1.8234,1.8497,1.887,1.8962,1.8979,1.9142,1.921,1.9259,1.9297,1.9282,1.9282,1.9282,1.9282,1.9282,1.9282,1.9282,1.9282,1.9282,1.9282,1.9282,1.9282,1.9282,1.9282,1.9282,1.9282,1.9282,1.9301,1.9316,1.9324,1.9301,1.9309,1.9309,1.9416,1.9931,2.0279,2.0288,2.0288,2.0288,2.0294,2.0302,2.0313,2.029,2.0288,2.029,2.0292,2.0298,2.0296,2.0288,2.0308,2.0637,2.0933,2.0889,2.1177,2.16,2.1987,2.234,2.308,2.3741,2.4253,2.4022,2.3678,2.356,2.3529,2.38,2.4859,2.5001,2.5072,2.5168,2.5575,2.5585,2.5625,2.5664,2.5723,2.584,2.623,2.6973,2.7656,2.8203,2.8926,2.957,2.9746,2.9922,3.0234,3.0371,2.998,2.9375,2.8926,2.8809,2.9394,2.9785,2.9844,3.0078,3.0508,3.0723,3.0859,1.902,1.8595,1.8561,1.8264,1.7844,1.7872,1.7867,1.7883,1.7883,1.785,1.7911,1.7811,1.7794,1.7794,1.7794,1.7794,1.7794,1.7822,1.805,1.8415,1.8346,1.8528,1.8918,1.8716,1.8909,1.9092,1.908,1.9146,1.9255,1.9282,1.9282,1.9282,1.9282,1.9282,1.9282,1.9282,1.9282,1.9282,1.9282,1.9282,1.9282,1.9282,1.9282,1.9282,1.9282,1.9282,1.9282,1.9282,1.9282,1.9282,1.9282,1.9282,1.9405,1.9944,2.0225,2.0288,2.0288,2.0288,2.0288,2.0288,2.0288,2.0288,2.0288,2.0288,2.0288,2.0288,2.0288,2.0288,2.0288,2.0771,2.1677,2.2389,2.2564,2.272,2.299,2.3413,2.4023,2.4297,2.4804,2.4903,2.4483,2.4673,2.4791,2.5058,2.5361,2.5396,2.5436,2.5486,2.5535,2.5551,2.5566,2.5598,2.5929,2.6102,2.6631,2.734,2.807,2.8732,2.957,3.0449,3.0469,3.0469,3.0625,3.0644,3.0312,3.0215,3.0019,3.0117,3.0527,3.0547,3.041,3.0547,3.082,3.0918,3.0937,1.9111,1.8816,1.8669,1.8386,1.8052,1.8025,1.803,1.8018,1.803,1.803,1.7992,1.7856,1.7794,1.7794,1.7794,1.7794,1.7794,1.7805,1.8082,1.8513,1.8523,1.8689,1.9049,1.9048,1.9073,1.9103,1.9182,1.9208,1.9267,1.9282,1.9282,1.9282,1.9282,1.9282,1.9282,1.9282,1.9282,1.9282,1.9282,1.9282,1.9282,1.9282,1.9282,1.9282,1.9282,1.9282,1.9282,1.9282,1.9282,1.9282,1.9282,1.9282,1.9328,1.9596,1.9838,2.0288,2.0288,2.0288,2.0288,2.0288,2.0288,2.0288,2.0288,2.0288,2.0288,2.0288,2.0288,2.0288,2.0288,2.081,2.1887,2.3175,2.3293,2.3449,2.368,2.4199,2.4603,2.4928,2.5219,2.5272,2.5308,2.5308,2.5308,2.5329,2.5354,2.5346,2.5363,2.5398,2.5458,2.5508,2.5507,2.5523,2.5982,2.6456,2.7106,2.7818,2.861,2.9279,2.9863,3.0586,3.0781,3.0879,3.0918,3.0918,3.0703,3.0723,3.0918,3.0859,3.0762,3.082,3.0898,3.0976,3.1035,3.1035,3.1172,1.9082,1.8892,1.8688,1.841,1.8103,1.8098,1.8082,1.8088,1.8077,1.8077,1.804,1.7872,1.7794,1.7794,1.7794,1.7794,1.7788,1.785,1.8166,1.8469,1.8702,1.893,1.9164,1.9256,1.9256,1.9279,1.927,1.9267,1.9271,1.9282,1.9282,1.9282,1.9282,1.9282,1.9282,1.9282,1.9282,1.9282,1.9282,1.9282,1.9282,1.9282,1.9282,1.9282,1.9282,1.9282,1.9282,1.9282,1.9282,1.9282,1.9282,1.9282,1.9309,1.9376,1.9713,2.0138,2.0288,2.0288,2.0288,2.0288,2.0288,2.0288,2.0288,2.0288,2.0288,2.0288,2.0288,2.0288,2.0288,2.0692,2.1846,2.4077,2.4212,2.4115,2.4,2.4575,2.5055,2.5212,2.5308,2.5308,2.5308,2.5308,2.5308,2.5308,2.5305,2.5301,2.5313,2.5362,2.5458,2.5585,2.5571,2.5644,2.6177,2.6771,2.7521,2.8263,2.9066,2.9723,3.0329,3.0664,3.084,3.0918,3.0918,3.0918,3.0918,3.0918,3.0918,3.0918,3.0918,3.0918,3.0957,3.1113,3.1172,3.1269,3.1621,1.8878,1.8618,1.8595,1.831,1.7867,1.7822,1.7839,1.7867,1.785,1.7839,1.7867,1.7805,1.7794,1.7794,1.7794,1.7794,1.7805,1.805,1.8293,1.8571,1.8861,1.9025,1.9196,1.927,1.9271,1.9256,1.9271,1.9282,1.9334,1.9458,1.937,1.9282,1.9282,1.9282,1.9282,1.9282,1.9282,1.9282,1.9282,1.9282,1.9282,1.9282,1.9282,1.9282,1.9282,1.9282,1.9282,1.9282,1.9282,1.9282,1.9282,1.9282,1.9282,1.9405,1.9781,2.0147,2.0288,2.0288,2.0288,2.0288,2.0288,2.0288,2.0308,2.0365,2.05,2.0346,2.0288,2.0462,2.0827,2.2171,2.3709,2.5113,2.5019,2.4885,2.4635,2.4846,2.5192,2.5231,2.5308,2.5308,2.5308,2.5308,2.5308,2.5308,2.5308,2.5308,2.5673,2.5741,2.5772,2.5872,2.5783,2.5907,2.6437,2.7088,2.7889,2.8689,2.9535,3.0015,3.0472,3.072,3.0859,3.0898,3.0918,3.0918,3.0918,3.0918,3.0996,3.1191,3.125,3.1016,3.1055,3.1445,3.207,3.25,3.2812,1.8637,1.8119,1.8285,1.8239,1.8035,1.7861,1.7794,1.7794,1.7794,1.7794,1.7794,1.7794,1.7794,1.7811,1.7794,1.7794,1.7805,1.7883,1.8275,1.8503,1.8725,1.89,1.9072,1.9291,1.9231,1.9237,1.927,1.9282,1.9315,1.9807,1.9605,1.9458,1.9448,1.9282,1.9282,1.9426,1.9407,1.937,1.9352,1.9315,1.9282,1.9282,1.9282,1.9282,1.9282,1.9282,1.9282,1.9282,1.9282,1.9282,1.9286,1.9294,1.9376,1.9638,1.9964,2.0239,2.0285,2.0288,2.0288,2.0288,2.0288,2.0288,2.0327,2.0502,2.0867,2.0635,2.0365,2.0788,2.2173,2.3942,2.4692,2.525,2.525,2.5288,2.5308,2.5308,2.5308,2.5308,2.5462,2.5519,2.5404,2.5308,2.5308,2.5308,2.5308,2.5327,2.575,2.6132,2.6269,2.6423,2.6451,2.667,2.7226,2.7692,2.8461,2.926,3.005,3.0322,3.0609,3.0747,3.0859,3.0898,3.0918,3.0918,3.1094,3.1309,3.1504,3.166,3.1699,3.1699,3.1836,3.207,3.2793,3.3613,3.3945,1.8503,1.7954,1.8035,1.8072,1.8057,1.7866,1.7794,1.7794,1.7794,1.7794,1.7794,1.7794,1.7952,1.8059,1.8144,1.8369,1.8556,1.8711,1.8946,1.9268,1.9553,1.9518,1.9709,1.9951,2.0164,1.981,1.9924,2.0123,2.0233,2.0662,2.0597,2.0325,2.0013,2.0031,1.977,1.9921,2.0013,2.005,2.005,2.005,2.0087,1.9826,1.9711,1.9624,1.9481,1.9282,1.9282,1.9282,1.9282,1.9313,1.9339,1.935,1.9547,1.983,2.022,2.0288,2.0288,2.0288,2.0308,2.0288,2.0423,2.0694,2.0733,2.1079,2.131,2.1252,2.1312,2.1427,2.3579,2.5308,2.5308,2.5308,2.5308,2.5308,2.5308,2.5308,2.5308,2.5308,2.5577,2.5772,2.5712,2.5827,2.5981,2.6077,2.6115,2.6058,2.6115,2.6635,2.7099,2.7272,2.7453,2.776,2.823,2.8668,2.9116,2.9709,3.022,3.0341,3.0587,3.0716,3.082,3.0898,3.1269,3.1641,3.1836,3.1894,3.2148,3.248,3.2559,3.2559,3.2851,3.3223,3.3652,3.4434,3.4844,1.844,1.8172,1.7922,1.7822,1.7833,1.78,1.7834,1.7935,1.798,1.7952,1.7952,1.7969,1.8346,1.8758,1.8877,1.9141,1.9608,1.995,2.025,2.046,2.0637,2.1018,2.1165,2.1216,2.1073,2.1306,2.1243,2.128,2.15,2.1675,2.1647,2.1574,2.1368,2.1198,2.0639,2.1298,2.167,2.1684,2.1551,2.1482,2.1298,2.0794,2.0548,2.0368,2.0009,1.9793,1.955,1.9554,1.9499,1.9334,1.9468,1.9475,1.9483,1.9959,2.0271,2.0288,2.0288,2.0308,2.0348,2.0346,2.0848,2.1408,2.1504,2.1771,2.2079,2.2293,2.2641,2.2774,2.4329,2.5192,2.5308,2.5308,2.5308,2.5308,2.5308,2.5462,2.5481,2.5712,2.6038,2.6426,2.6579,2.6673,2.6844,2.6978,2.7036,2.694,2.6731,2.708,2.7775,2.8275,2.8525,2.8717,2.9143,2.9278,2.9624,3.0022,3.037,3.0478,3.0565,3.066,3.0873,3.1055,3.1543,3.2246,3.2539,3.2598,3.2988,3.3418,3.3613,3.3887,3.4219,3.459,3.4902,3.5117,3.5449,1.8445,1.8172,1.7911,1.7794,1.7794,1.7794,1.8059,1.8566,1.8983,1.8983,1.8707,1.9,1.9349,1.9585,1.9636,1.9811,2.0077,2.0342,2.0625,2.0967,2.1329,2.1329,2.151,2.178,2.1744,2.1543,2.1661,2.1923,2.1743,2.2304,2.2194,2.2014,2.2359,2.2116,2.162,2.1721,2.1776,2.1776,2.1757,2.1757,2.178,2.1533,2.1363,2.1349,2.1,2.0597,2.0148,2.0115,1.9936,1.9589,1.9689,1.9656,1.966,2.01,2.0277,2.0308,2.0327,2.0579,2.1081,2.1543,2.2066,2.2314,2.241,2.268,2.3295,2.291,2.3391,2.4118,2.4791,2.5308,2.5308,2.5308,2.5308,2.5308,2.5404,2.5772,2.5964,2.6365,2.6731,2.7198,2.7469,2.7544,2.7695,2.8038,2.8151,2.8231,2.8099,2.814,2.8701,2.9349,2.9769,2.9772,2.9964,2.9967,3.0118,3.0288,3.0382,3.0438,3.049,3.0551,3.0795,3.1126,3.2051,3.2871,3.3105,3.334,3.3906,3.4453,3.4961,3.5332,3.5332,3.5351,3.5488,3.5605,3.5781,1.8445,1.8177,1.7905,1.7794,1.7794,1.7794,1.8211,1.8967,1.9659,1.971,1.9446,1.9805,2.0166,2.0325,2.0426,2.065,2.0797,2.114,2.1453,2.1717,2.2067,2.2272,2.2376,2.241,2.2642,2.2358,2.2442,2.2694,2.2799,2.318,2.3162,2.302,2.3125,2.3088,2.2799,2.2749,2.2744,2.2818,2.2859,2.2799,2.2694,2.2451,2.2226,2.2116,2.1863,2.1478,2.1106,2.0868,2.0729,2.0279,2.0083,1.9992,2.0004,2.01,2.0273,2.0308,2.0983,2.1485,2.2391,2.2797,2.3297,2.3697,2.3449,2.3701,2.4259,2.4082,2.4349,2.4885,2.525,2.5327,2.5346,2.5346,2.5462,2.5481,2.6272,2.6659,2.6813,2.7214,2.7541,2.8008,2.8319,2.8412,2.8621,2.9003,2.9308,2.9426,2.9506,2.9525,2.9489,2.9964,3.0404,3.0365,3.0327,3.025,3.0231,3.0327,3.0382,3.0404,3.0498,3.0634,3.0847,3.1229,3.2358,3.3418,3.375,3.418,3.4922,3.5488,3.5625,3.5762,3.582,3.5879,3.6016,3.6016,3.6016,1.844,1.8172,1.7894,1.7794,1.7794,1.7946,1.8346,1.8984,1.975,2.0075,2.0065,2.0143,2.0629,2.115,2.1224,2.1522,2.1983,2.2362,2.2641,2.2976,2.3124,2.3364,2.3575,2.3744,2.3565,2.3711,2.3774,2.3662,2.4061,2.3951,2.3956,2.4011,2.3919,2.3864,2.3832,2.3795,2.3791,2.3717,2.3717,2.3699,2.3589,2.3327,2.3102,2.29,2.2579,2.218,2.19,2.179,2.1702,2.1455,2.1238,2.0568,2.0231,2.0205,2.0325,2.0962,2.2254,2.3103,2.3567,2.3798,2.4353,2.4637,2.4409,2.4697,2.487,2.4925,2.5038,2.5115,2.5308,2.5385,2.5442,2.5615,2.5786,2.6558,2.7582,2.7832,2.7854,2.8121,2.8429,2.8778,2.9069,2.9316,2.9714,3.0096,2.9923,3.0,3.0003,3.0022,3.0003,3.0061,3.0404,3.0404,3.0385,3.0385,3.0404,3.0404,3.0692,3.0769,3.0788,3.0897,3.1089,3.1649,3.2977,3.3996,3.4422,3.4941,3.5469,3.5762,3.5898,3.6016,3.6016,3.6016,3.6016,3.6016,3.6016,1.844,1.8172,1.7922,1.7794,1.7946,1.8915,1.9209,1.9103,2.0236,2.0845,2.0903,2.1417,2.1661,2.1965,2.2006,2.2117,2.2313,2.259,2.2868,2.3206,2.3544,2.3811,2.4011,2.4123,2.4132,2.4127,2.4151,2.4194,2.4176,2.4194,2.4194,2.4176,2.4194,2.4194,2.4194,2.4194,2.4194,2.4194,2.4194,2.4194,2.4209,2.3901,2.3763,2.3607,2.3538,2.3134,2.2785,2.2701,2.2518,2.1938,2.1822,2.1209,1.9945,2.1199,2.2348,2.3786,2.4346,2.4464,2.4058,2.45,2.5038,2.5212,2.5002,2.5058,2.525,2.5346,2.5346,2.5423,2.5385,2.544,2.6019,2.6385,2.6692,2.7467,2.8448,2.8948,2.8929,2.8854,2.9179,2.9503,2.9794,2.9871,3.0346,3.0365,3.0192,3.0327,3.0404,3.0404,3.0404,3.0404,3.0404,3.0404,3.0404,3.0404,3.0404,3.0404,3.0846,3.1169,3.1152,3.1378,3.1911,3.2648,3.3814,3.457,3.5031,3.5409,3.582,3.5996,3.6016,3.6016,3.6016,3.6016,3.6016,3.6055,3.6133,1.8458,1.8194,1.7928,1.7794,1.8003,1.9074,1.9435,1.9604,2.0981,2.164,2.1691,2.205,2.2313,2.2262,2.2262,2.2286,2.2297,2.2583,2.2885,2.3206,2.3511,2.3853,2.4094,2.4185,2.4185,2.4194,2.4194,2.4194,2.4194,2.4194,2.4194,2.4194,2.4194,2.4194,2.4194,2.4194,2.4194,2.4194,2.4194,2.4194,2.4223,2.4252,2.4266,2.4233,2.4294,2.405,2.3683,2.3598,2.3349,2.2856,2.2848,2.2383,2.1682,2.3081,2.3935,2.5036,2.5096,2.4885,2.4632,2.4885,2.5192,2.5308,2.5346,2.5538,2.5538,2.5599,2.5695,2.5772,2.5615,2.5671,2.6538,2.731,2.7813,2.8316,2.9179,3.0022,2.989,2.9662,2.989,3.0231,3.0346,3.0327,3.0404,3.0404,3.0404,3.0404,3.0404,3.0404,3.0404,3.0404,3.0404,3.0404,3.0404,3.0404,3.0404,3.0519,3.0981,3.1349,3.1483,3.1834,3.2576,3.3296,3.4139,3.4917,3.5627,3.5868,3.5976,3.5996,3.6016,3.6016,3.6133,3.6289,3.6269,3.6191,3.6309,1.8465,1.8177,1.7905,1.7794,1.7896,1.864,1.931,2.0143,2.1458,2.2226,2.2236,2.2296,2.2313,2.2313,2.2313,2.2313,2.2349,2.2534,2.277,2.313,2.3329,2.3671,2.3991,2.4151,2.4136,2.417,2.4194,2.4194,2.4194,2.4194,2.4194,2.4194,2.4194,2.4194,2.4194,2.4194,2.4194,2.4194,2.4194,2.4199,2.4261,2.4348,2.4436,2.4325,2.4507,2.4633,2.4555,2.4593,2.4719,2.4361,2.404,2.3716,2.3995,2.4361,2.4906,2.5211,2.5242,2.5194,2.5065,2.5212,2.5423,2.5481,2.5442,2.6,2.6233,2.5692,2.5635,2.6483,2.6558,2.694,2.7731,2.8596,2.9195,2.933,2.9772,3.0231,3.0173,3.0041,3.0138,3.0404,3.0404,3.0404,3.0404,3.0404,3.0404,3.0404,3.0404,3.0404,3.0423,3.0423,3.042,3.042,3.0404,3.0423,3.05,3.0673,3.1138,3.1484,3.1872,3.2699,3.3747,3.4141,3.4346,3.5085,3.5769,3.5891,3.5976,3.5996,3.6035,3.6074,3.623,3.6562,3.6601,3.666,3.6914,1.8636,1.8194,1.7922,1.7794,1.7896,1.8589,1.931,2.0059,2.1025,2.181,2.2219,2.2313,2.2313,2.2313,2.2313,2.2313,2.2352,2.2415,2.2581,2.2776,2.2996,2.3375,2.3742,2.3827,2.3966,2.4146,2.4194,2.4194,2.4194,2.4194,2.4194,2.4194,2.4194,2.4194,2.4194,2.4194,2.4194,2.4194,2.4194,2.4268,2.4357,2.4426,2.4469,2.4499,2.4662,2.4793,2.4757,2.4771,2.4786,2.4629,2.4427,2.4264,2.421,2.4386,2.4752,2.5149,2.5141,2.5179,2.5307,2.5442,2.5788,2.6269,2.6503,2.6909,2.6794,2.5865,2.5901,2.7,2.7846,2.8346,2.8865,2.9728,3.0324,3.0266,3.0228,3.0305,3.0404,3.0404,3.0404,3.0404,3.0404,3.0404,3.0404,3.0404,3.0404,3.0404,3.0404,3.0404,3.0442,3.0462,3.0478,3.0459,3.0404,3.0442,3.0596,3.1,3.1542,3.2352,3.2949,3.3888,3.4846,3.4946,3.4988,3.5358,3.5803,3.5896,3.5976,3.5996,3.6035,3.6211,3.6562,3.6992,3.7519,3.7695,3.7969,1.882,1.8513,1.8147,1.79,1.7935,1.8595,1.931,2.0059,2.0862,2.1624,2.2236,2.2313,2.2313,2.2313,2.2313,2.2313,2.2313,2.232,2.2511,2.2658,2.2751,2.3051,2.3294,2.3482,2.3698,2.3907,2.4128,2.4194,2.4194,2.4194,2.4194,2.4194,2.4194,2.4194,2.4194,2.4194,2.4213,2.4194,2.4231,2.4415,2.4586,2.4653,2.4532,2.4569,2.4738,2.4871,2.4939,2.4952,2.4959,2.478,2.4523,2.431,2.4218,2.4243,2.4422,2.4719,2.4901,2.5088,2.532,2.575,2.6327,2.7022,2.7313,2.7585,2.8066,2.7313,2.7058,2.8058,2.9058,2.9632,2.9632,3.0247,3.0362,3.0343,3.0324,3.0365,3.0404,3.0404,3.0404,3.0404,3.0404,3.0404,3.0404,3.0404,3.0404,3.0404,3.0404,3.0459,3.0481,3.0734,3.0692,3.0689,3.075,3.0885,3.1157,3.158,3.2083,3.2949,3.3875,3.4465,3.5055,3.5372,3.5633,3.5725,3.5819,3.5916,3.5976,3.6074,3.6406,3.6699,3.709,3.7519,3.8086,3.873,3.9101,1.9001,1.8883,1.8405,1.804,1.789,1.8454,1.9226,2.0042,2.0727,2.1515,2.2229,2.2313,2.2313,2.2313,2.2313,2.2313,2.2313,2.2313,2.247,2.257,2.2625,2.284,2.2996,2.3141,2.3414,2.373,2.4031,2.4156,2.4194,2.4194,2.4194,2.4194,2.4194,2.4194,2.4194,2.4231,2.425,2.4456,2.464,2.491,2.4976,2.5018,2.4945,2.4942,2.5001,2.513,2.5234,2.5329,2.5343,2.506,2.4737,2.437,2.4233,2.4194,2.4204,2.4462,2.5092,2.5238,2.5485,2.6253,2.7198,2.7967,2.8047,2.8316,2.88,2.8893,2.8618,2.8981,2.9978,3.0343,3.0343,3.0343,3.0382,3.0404,3.0404,3.0404,3.0404,3.0404,3.0404,3.0404,3.0404,3.0404,3.0404,3.0404,3.0423,3.0423,3.0439,3.0497,3.0654,3.1099,3.1311,3.1368,3.1445,3.1599,3.1657,3.2314,3.2852,3.3449,3.4318,3.4811,3.5216,3.5472,3.5653,3.5784,3.5861,3.5957,3.6113,3.6269,3.666,3.7187,3.7969,3.8535,3.9023,3.9648,4.0234,1.9006,1.8655,1.8325,1.8046,1.7862,1.7986,1.8763,1.9883,2.016,2.0978,2.206,2.2313,2.2313,2.2313,2.2313,2.2313,2.2313,2.2313,2.2313,2.2377,2.2433,2.259,2.2776,2.2953,2.3218,2.3582,2.3958,2.417,2.4194,2.4194,2.4194,2.4194,2.4231,2.425,2.425,2.4378,2.4672,2.4965,2.5264,2.5553,2.5976,2.6031,2.6019,2.6058,2.6136,2.6089,2.6088,2.6253,2.6312,2.5997,2.5391,2.4816,2.4653,2.4708,2.4855,2.5137,2.572,2.598,2.6431,2.7119,2.8124,2.9311,2.9352,2.9182,2.9602,2.9888,2.975,2.975,3.0382,3.0382,3.0382,3.0382,3.0404,3.0404,3.0404,3.0404,3.0404,3.0404,3.0404,3.0404,3.0404,3.0404,3.0404,3.0442,3.0538,3.0519,3.0478,3.0632,3.1404,3.1676,3.1948,3.2083,3.2199,3.1945,3.1907,3.3103,3.3779,3.4298,3.4683,3.508,3.5374,3.5491,3.5655,3.5765,3.5898,3.6016,3.6191,3.6582,3.7109,3.7754,3.8887,3.9648,4.0059,4.0351,4.0762]}]]